<?xml version="1.0" encoding="UTF-8" standalone="no" ?>
<gpx xmlns="http://www.topografix.com/GPX/1/1" xmlns:xsi="http://www.w3.org/2001/XMLSchema-instance" xsi:schemaLocation="http://www.topografix.com/GPX/1/1 http://www.topografix.com/GPX/1/1/gpx.xsd" version="1.1" creator="VisuGPX - https://www.visugpx.com">
  <metadata>
    <name>MAXI FREP J2/2/60/1383</name>
  </metadata>
  <trk>
    <name><![CDATA[MAXI FREP J2/2/60/1383_1]]></name>
    <trkseg>
      <trkpt lat="44.47753" lon="1.54343">
        <ele>229.40631103516</ele>
        <time>2021-03-15T18:39:10.325Z</time>
      </trkpt>
      <trkpt lat="44.47754" lon="1.54344">
        <ele>229.32652282715</ele>
        <time>2021-03-15T18:39:19.639Z</time>
      </trkpt>
      <trkpt lat="44.47728" lon="1.54313">
        <ele>231.53857421875</ele>
        <time>2021-03-15T18:39:28.964Z</time>
      </trkpt>
      <trkpt lat="44.47721" lon="1.54298">
        <ele>232.35704040527</ele>
        <time>2021-03-15T18:39:38.293Z</time>
      </trkpt>
      <trkpt lat="44.477" lon="1.54252">
        <ele>236.74253845215</ele>
        <time>2021-03-15T18:39:47.634Z</time>
      </trkpt>
      <trkpt lat="44.47672" lon="1.5419">
        <ele>242.98661804199</ele>
        <time>2021-03-15T18:39:56.991Z</time>
      </trkpt>
      <trkpt lat="44.47659" lon="1.54158">
        <ele>244.35356140137</ele>
        <time>2021-03-15T18:40:06.356Z</time>
      </trkpt>
      <trkpt lat="44.47656" lon="1.54144">
        <ele>244.857421875</ele>
        <time>2021-03-15T18:40:15.724Z</time>
      </trkpt>
      <trkpt lat="44.47652" lon="1.54111">
        <ele>246.49546813965</ele>
        <time>2021-03-15T18:40:25.099Z</time>
      </trkpt>
      <trkpt lat="44.47658" lon="1.54043">
        <ele>245.84565734863</ele>
        <time>2021-03-15T18:40:34.490Z</time>
      </trkpt>
      <trkpt lat="44.47673" lon="1.54036">
        <ele>247.75378417969</ele>
        <time>2021-03-15T18:40:43.885Z</time>
      </trkpt>
      <trkpt lat="44.47686" lon="1.54023">
        <ele>250.59567260742</ele>
        <time>2021-03-15T18:40:53.285Z</time>
      </trkpt>
      <trkpt lat="44.47699" lon="1.54015">
        <ele>252.37400817871</ele>
        <time>2021-03-15T18:41:02.690Z</time>
      </trkpt>
      <trkpt lat="44.4771" lon="1.54011">
        <ele>253.61976623535</ele>
        <time>2021-03-15T18:41:12.098Z</time>
      </trkpt>
      <trkpt lat="44.47733" lon="1.54008">
        <ele>256.07754516602</ele>
        <time>2021-03-15T18:41:21.513Z</time>
      </trkpt>
      <trkpt lat="44.47759" lon="1.54016">
        <ele>256.73886108398</ele>
        <time>2021-03-15T18:41:30.937Z</time>
      </trkpt>
      <trkpt lat="44.47779" lon="1.54018">
        <ele>257.30892944336</ele>
        <time>2021-03-15T18:41:40.367Z</time>
      </trkpt>
      <trkpt lat="44.47808" lon="1.54009">
        <ele>259.54208374023</ele>
        <time>2021-03-15T18:41:49.806Z</time>
      </trkpt>
      <trkpt lat="44.47845" lon="1.53989">
        <ele>261.31896972656</ele>
        <time>2021-03-15T18:41:59.257Z</time>
      </trkpt>
      <trkpt lat="44.47899" lon="1.5397">
        <ele>263.26531982422</ele>
        <time>2021-03-15T18:42:08.725Z</time>
      </trkpt>
      <trkpt lat="44.47915" lon="1.53966">
        <ele>263.69720458984</ele>
        <time>2021-03-15T18:42:18.198Z</time>
      </trkpt>
      <trkpt lat="44.47966" lon="1.53969">
        <ele>264.95202636719</ele>
        <time>2021-03-15T18:42:27.687Z</time>
      </trkpt>
      <trkpt lat="44.48022" lon="1.53978">
        <ele>265</ele>
        <time>2021-03-15T18:42:37.193Z</time>
      </trkpt>
      <trkpt lat="44.48096" lon="1.53994">
        <ele>267</ele>
        <time>2021-03-15T18:42:46.722Z</time>
      </trkpt>
      <trkpt lat="44.48116" lon="1.53926">
        <ele>264.10192871094</ele>
        <time>2021-03-15T18:42:56.267Z</time>
      </trkpt>
      <trkpt lat="44.48144" lon="1.53875">
        <ele>260.25869750977</ele>
        <time>2021-03-15T18:43:05.827Z</time>
      </trkpt>
      <trkpt lat="44.48194" lon="1.53813">
        <ele>256.23397827148</ele>
        <time>2021-03-15T18:43:15.407Z</time>
      </trkpt>
      <trkpt lat="44.48212" lon="1.53778">
        <ele>256.24020385742</ele>
        <time>2021-03-15T18:43:24.997Z</time>
      </trkpt>
      <trkpt lat="44.48221" lon="1.53748">
        <ele>255.81188964844</ele>
        <time>2021-03-15T18:43:34.594Z</time>
      </trkpt>
      <trkpt lat="44.48223" lon="1.53704">
        <ele>254.44425964355</ele>
        <time>2021-03-15T18:43:44.201Z</time>
      </trkpt>
      <trkpt lat="44.48204" lon="1.53604">
        <ele>253.7239074707</ele>
        <time>2021-03-15T18:43:53.830Z</time>
      </trkpt>
      <trkpt lat="44.48201" lon="1.53556">
        <ele>253.52752685547</ele>
        <time>2021-03-15T18:44:03.470Z</time>
      </trkpt>
      <trkpt lat="44.48206" lon="1.53504">
        <ele>254.1089630127</ele>
        <time>2021-03-15T18:44:13.122Z</time>
      </trkpt>
      <trkpt lat="44.48223" lon="1.53452">
        <ele>252.56651306152</ele>
        <time>2021-03-15T18:44:22.786Z</time>
      </trkpt>
      <trkpt lat="44.48243" lon="1.53411">
        <ele>250.05859375</ele>
        <time>2021-03-15T18:44:32.461Z</time>
      </trkpt>
      <trkpt lat="44.48279" lon="1.53346">
        <ele>247.96754455566</ele>
        <time>2021-03-15T18:44:42.154Z</time>
      </trkpt>
      <trkpt lat="44.48315" lon="1.53281">
        <ele>251.34417724609</ele>
        <time>2021-03-15T18:44:51.865Z</time>
      </trkpt>
      <trkpt lat="44.48314" lon="1.53277">
        <ele>251.34417724609</ele>
        <time>2021-03-15T18:45:01.577Z</time>
      </trkpt>
      <trkpt lat="44.48318" lon="1.53264">
        <ele>252.38789367676</ele>
        <time>2021-03-15T18:45:11.292Z</time>
      </trkpt>
      <trkpt lat="44.48346" lon="1.53217">
        <ele>257.19744873047</ele>
        <time>2021-03-15T18:45:21.021Z</time>
      </trkpt>
      <trkpt lat="44.48383" lon="1.5315">
        <ele>256.08236694336</ele>
        <time>2021-03-15T18:45:30.768Z</time>
      </trkpt>
      <trkpt lat="44.48385" lon="1.53138">
        <ele>254.49880981445</ele>
        <time>2021-03-15T18:45:40.518Z</time>
      </trkpt>
      <trkpt lat="44.48399" lon="1.53124">
        <ele>255.00555419922</ele>
        <time>2021-03-15T18:45:50.273Z</time>
      </trkpt>
      <trkpt lat="44.48419" lon="1.53098">
        <ele>254.89625549316</ele>
        <time>2021-03-15T18:46:00.037Z</time>
      </trkpt>
      <trkpt lat="44.48463" lon="1.53072">
        <ele>260.73345947266</ele>
        <time>2021-03-15T18:46:09.816Z</time>
      </trkpt>
      <trkpt lat="44.4852" lon="1.53013">
        <ele>265.34533691406</ele>
        <time>2021-03-15T18:46:19.616Z</time>
      </trkpt>
      <trkpt lat="44.48556" lon="1.52961">
        <ele>264.22409057617</ele>
        <time>2021-03-15T18:46:29.432Z</time>
      </trkpt>
      <trkpt lat="44.48572" lon="1.52933">
        <ele>263.54244995117</ele>
        <time>2021-03-15T18:46:39.256Z</time>
      </trkpt>
      <trkpt lat="44.48596" lon="1.5288">
        <ele>266.16900634766</ele>
        <time>2021-03-15T18:46:49.094Z</time>
      </trkpt>
      <trkpt lat="44.486" lon="1.52865">
        <ele>267.57263183594</ele>
        <time>2021-03-15T18:46:58.936Z</time>
      </trkpt>
      <trkpt lat="44.48589" lon="1.52793">
        <ele>271.53030395508</ele>
        <time>2021-03-15T18:47:08.794Z</time>
      </trkpt>
      <trkpt lat="44.48579" lon="1.52755">
        <ele>273.83364868164</ele>
        <time>2021-03-15T18:47:18.661Z</time>
      </trkpt>
      <trkpt lat="44.48578" lon="1.52741">
        <ele>275.33889770508</ele>
        <time>2021-03-15T18:47:28.531Z</time>
      </trkpt>
      <trkpt lat="44.48591" lon="1.52649">
        <ele>285.06549072266</ele>
        <time>2021-03-15T18:47:38.421Z</time>
      </trkpt>
      <trkpt lat="44.48602" lon="1.52541">
        <ele>286.56646728516</ele>
        <time>2021-03-15T18:47:48.335Z</time>
      </trkpt>
      <trkpt lat="44.4861" lon="1.525">
        <ele>285.81838989258</ele>
        <time>2021-03-15T18:47:58.259Z</time>
      </trkpt>
      <trkpt lat="44.4862" lon="1.52461">
        <ele>286.66897583008</ele>
        <time>2021-03-15T18:48:08.192Z</time>
      </trkpt>
      <trkpt lat="44.48636" lon="1.52409">
        <ele>287.51919555664</ele>
        <time>2021-03-15T18:48:18.137Z</time>
      </trkpt>
      <trkpt lat="44.48664" lon="1.52359">
        <ele>285.63555908203</ele>
        <time>2021-03-15T18:48:28.096Z</time>
      </trkpt>
      <trkpt lat="44.48666" lon="1.52346">
        <ele>284.84378051758</ele>
        <time>2021-03-15T18:48:38.058Z</time>
      </trkpt>
      <trkpt lat="44.48667" lon="1.52299">
        <ele>280.34967041016</ele>
        <time>2021-03-15T18:48:48.031Z</time>
      </trkpt>
      <trkpt lat="44.48672" lon="1.52234">
        <ele>275.63333129883</ele>
        <time>2021-03-15T18:48:58.018Z</time>
      </trkpt>
      <trkpt lat="44.48668" lon="1.52239">
        <ele>274.94952392578</ele>
        <time>2021-03-15T18:49:08.007Z</time>
      </trkpt>
      <trkpt lat="44.48662" lon="1.52241">
        <ele>273.57122802734</ele>
        <time>2021-03-15T18:49:17.998Z</time>
      </trkpt>
      <trkpt lat="44.48655" lon="1.52236">
        <ele>271.62777709961</ele>
        <time>2021-03-15T18:49:27.991Z</time>
      </trkpt>
      <trkpt lat="44.48632" lon="1.52236">
        <ele>267.01498413086</ele>
        <time>2021-03-15T18:49:37.991Z</time>
      </trkpt>
      <trkpt lat="44.48621" lon="1.5223">
        <ele>263.99182128906</ele>
        <time>2021-03-15T18:49:47.995Z</time>
      </trkpt>
      <trkpt lat="44.48614" lon="1.52221">
        <ele>261.44232177734</ele>
        <time>2021-03-15T18:49:58.002Z</time>
      </trkpt>
      <trkpt lat="44.48605" lon="1.52205">
        <ele>257.60760498047</ele>
        <time>2021-03-15T18:50:08.013Z</time>
      </trkpt>
      <trkpt lat="44.48595" lon="1.5218">
        <ele>252.02722167969</ele>
        <time>2021-03-15T18:50:18.031Z</time>
      </trkpt>
      <trkpt lat="44.48582" lon="1.52155">
        <ele>246.94779968262</ele>
        <time>2021-03-15T18:50:28.055Z</time>
      </trkpt>
      <trkpt lat="44.48579" lon="1.52142">
        <ele>245.47219848633</ele>
        <time>2021-03-15T18:50:38.082Z</time>
      </trkpt>
      <trkpt lat="44.48565" lon="1.52127">
        <ele>243.22099304199</ele>
        <time>2021-03-15T18:50:48.115Z</time>
      </trkpt>
      <trkpt lat="44.48556" lon="1.52123">
        <ele>241.74540710449</ele>
        <time>2021-03-15T18:50:58.151Z</time>
      </trkpt>
      <trkpt lat="44.48521" lon="1.52127">
        <ele>232.1662902832</ele>
        <time>2021-03-15T18:51:08.197Z</time>
      </trkpt>
      <trkpt lat="44.48484" lon="1.52114">
        <ele>221.11813354492</ele>
        <time>2021-03-15T18:51:18.255Z</time>
      </trkpt>
      <trkpt lat="44.48471" lon="1.52111">
        <ele>216.77027893066</ele>
        <time>2021-03-15T18:51:28.317Z</time>
      </trkpt>
      <trkpt lat="44.48454" lon="1.52112">
        <ele>211.90830993652</ele>
        <time>2021-03-15T18:51:38.384Z</time>
      </trkpt>
      <trkpt lat="44.48436" lon="1.5211">
        <ele>206.63198852539</ele>
        <time>2021-03-15T18:51:48.457Z</time>
      </trkpt>
      <trkpt lat="44.48414" lon="1.52104">
        <ele>200.16195678711</ele>
        <time>2021-03-15T18:51:58.537Z</time>
      </trkpt>
      <trkpt lat="44.48368" lon="1.52083">
        <ele>187.8173828125</ele>
        <time>2021-03-15T18:52:08.632Z</time>
      </trkpt>
      <trkpt lat="44.48333" lon="1.5206">
        <ele>179.57162475586</ele>
        <time>2021-03-15T18:52:18.739Z</time>
      </trkpt>
      <trkpt lat="44.48308" lon="1.52035">
        <ele>170.72285461426</ele>
        <time>2021-03-15T18:52:28.855Z</time>
      </trkpt>
      <trkpt lat="44.48278" lon="1.52013">
        <ele>162.34024047852</ele>
        <time>2021-03-15T18:52:38.982Z</time>
      </trkpt>
      <trkpt lat="44.48265" lon="1.52001">
        <ele>158.75201416016</ele>
        <time>2021-03-15T18:52:49.113Z</time>
      </trkpt>
      <trkpt lat="44.48238" lon="1.51958">
        <ele>149.45932006836</ele>
        <time>2021-03-15T18:52:59.257Z</time>
      </trkpt>
      <trkpt lat="44.48232" lon="1.51941">
        <ele>147.0828704834</ele>
        <time>2021-03-15T18:53:09.405Z</time>
      </trkpt>
      <trkpt lat="44.48232" lon="1.5194">
        <ele>147.0108795166</ele>
        <time>2021-03-15T18:53:19.553Z</time>
      </trkpt>
      <trkpt lat="44.48283" lon="1.51912">
        <ele>149.70574951172</ele>
        <time>2021-03-15T18:53:29.718Z</time>
      </trkpt>
      <trkpt lat="44.48295" lon="1.51899">
        <ele>150.23738098145</ele>
        <time>2021-03-15T18:53:39.888Z</time>
      </trkpt>
      <trkpt lat="44.48333" lon="1.5185">
        <ele>151.71269226074</ele>
        <time>2021-03-15T18:53:50.074Z</time>
      </trkpt>
      <trkpt lat="44.4836" lon="1.51799">
        <ele>151.5884552002</ele>
        <time>2021-03-15T18:54:00.274Z</time>
      </trkpt>
      <trkpt lat="44.48383" lon="1.51744">
        <ele>153.89125061035</ele>
        <time>2021-03-15T18:54:10.488Z</time>
      </trkpt>
      <trkpt lat="44.48418" lon="1.51643">
        <ele>152.03288269043</ele>
        <time>2021-03-15T18:54:20.727Z</time>
      </trkpt>
      <trkpt lat="44.4842" lon="1.5163">
        <ele>151.54957580566</ele>
        <time>2021-03-15T18:54:30.969Z</time>
      </trkpt>
      <trkpt lat="44.48418" lon="1.51621">
        <ele>150.25393676758</ele>
        <time>2021-03-15T18:54:41.213Z</time>
      </trkpt>
      <trkpt lat="44.48412" lon="1.51609">
        <ele>148.72779846191</ele>
        <time>2021-03-15T18:54:51.460Z</time>
      </trkpt>
      <trkpt lat="44.48406" lon="1.51581">
        <ele>148.93135070801</ele>
        <time>2021-03-15T18:55:01.713Z</time>
      </trkpt>
      <trkpt lat="44.48419" lon="1.51566">
        <ele>150.03887939453</ele>
        <time>2021-03-15T18:55:11.971Z</time>
      </trkpt>
      <trkpt lat="44.4844" lon="1.51559">
        <ele>151.07241821289</ele>
        <time>2021-03-15T18:55:22.236Z</time>
      </trkpt>
      <trkpt lat="44.48465" lon="1.51537">
        <ele>153.02188110352</ele>
        <time>2021-03-15T18:55:32.510Z</time>
      </trkpt>
      <trkpt lat="44.48511" lon="1.51511">
        <ele>155.07119750977</ele>
        <time>2021-03-15T18:55:42.799Z</time>
      </trkpt>
      <trkpt lat="44.48556" lon="1.51485">
        <ele>156.96322631836</ele>
        <time>2021-03-15T18:55:53.103Z</time>
      </trkpt>
      <trkpt lat="44.48603" lon="1.51452">
        <ele>156.75190734863</ele>
        <time>2021-03-15T18:56:03.424Z</time>
      </trkpt>
      <trkpt lat="44.48668" lon="1.51375">
        <ele>156.27908325195</ele>
        <time>2021-03-15T18:56:13.771Z</time>
      </trkpt>
      <trkpt lat="44.48692" lon="1.51358">
        <ele>156.82377624512</ele>
        <time>2021-03-15T18:56:24.126Z</time>
      </trkpt>
      <trkpt lat="44.48708" lon="1.51358">
        <ele>158.7525177002</ele>
        <time>2021-03-15T18:56:34.486Z</time>
      </trkpt>
      <trkpt lat="44.48775" lon="1.51331">
        <ele>159.41616821289</ele>
        <time>2021-03-15T18:56:44.868Z</time>
      </trkpt>
      <trkpt lat="44.48846" lon="1.51319">
        <ele>161.76651000977</ele>
        <time>2021-03-15T18:56:55.272Z</time>
      </trkpt>
      <trkpt lat="44.48901" lon="1.51304">
        <ele>160.72386169434</ele>
        <time>2021-03-15T18:57:05.693Z</time>
      </trkpt>
      <trkpt lat="44.48901" lon="1.51305">
        <ele>160.86781311035</ele>
        <time>2021-03-15T18:57:16.114Z</time>
      </trkpt>
      <trkpt lat="44.48953" lon="1.513">
        <ele>160.14801025391</ele>
        <time>2021-03-15T18:57:26.551Z</time>
      </trkpt>
      <trkpt lat="44.48994" lon="1.51312">
        <ele>162.45071411133</ele>
        <time>2021-03-15T18:57:37.001Z</time>
      </trkpt>
      <trkpt lat="44.49016" lon="1.51353">
        <ele>164.95735168457</ele>
        <time>2021-03-15T18:57:47.462Z</time>
      </trkpt>
      <trkpt lat="44.49058" lon="1.51391">
        <ele>166.53207397461</ele>
        <time>2021-03-15T18:57:57.939Z</time>
      </trkpt>
      <trkpt lat="44.49095" lon="1.51403">
        <ele>171.31591796875</ele>
        <time>2021-03-15T18:58:08.427Z</time>
      </trkpt>
      <trkpt lat="44.4917" lon="1.51407">
        <ele>173.82760620117</ele>
        <time>2021-03-15T18:58:18.938Z</time>
      </trkpt>
      <trkpt lat="44.49257" lon="1.51394">
        <ele>170.24209594727</ele>
        <time>2021-03-15T18:58:29.476Z</time>
      </trkpt>
      <trkpt lat="44.49277" lon="1.51403">
        <ele>170.02615356445</ele>
        <time>2021-03-15T18:58:40.021Z</time>
      </trkpt>
      <trkpt lat="44.49298" lon="1.51418">
        <ele>170.99789428711</ele>
        <time>2021-03-15T18:58:50.573Z</time>
      </trkpt>
      <trkpt lat="44.49327" lon="1.5145">
        <ele>173.99810791016</ele>
        <time>2021-03-15T18:59:01.136Z</time>
      </trkpt>
      <trkpt lat="44.49368" lon="1.51476">
        <ele>173.09757995605</ele>
        <time>2021-03-15T18:59:11.713Z</time>
      </trkpt>
      <trkpt lat="44.49403" lon="1.51488">
        <ele>173.25164794922</ele>
        <time>2021-03-15T18:59:22.301Z</time>
      </trkpt>
      <trkpt lat="44.49451" lon="1.51479">
        <ele>174.6167755127</ele>
        <time>2021-03-15T18:59:32.904Z</time>
      </trkpt>
      <trkpt lat="44.49473" lon="1.51478">
        <ele>175.19261169434</ele>
        <time>2021-03-15T18:59:43.514Z</time>
      </trkpt>
      <trkpt lat="44.49492" lon="1.51482">
        <ele>176.36029052734</ele>
        <time>2021-03-15T18:59:54.130Z</time>
      </trkpt>
      <trkpt lat="44.49514" lon="1.51472">
        <ele>174.94956970215</ele>
        <time>2021-03-15T19:00:04.753Z</time>
      </trkpt>
      <trkpt lat="44.49593" lon="1.51449">
        <ele>176.24914550781</ele>
        <time>2021-03-15T19:00:15.401Z</time>
      </trkpt>
      <trkpt lat="44.49655" lon="1.51402">
        <ele>175.41539001465</ele>
        <time>2021-03-15T19:00:26.071Z</time>
      </trkpt>
      <trkpt lat="44.49692" lon="1.51393">
        <ele>175.85359191895</ele>
        <time>2021-03-15T19:00:36.752Z</time>
      </trkpt>
      <trkpt lat="44.49739" lon="1.51401">
        <ele>178.9539642334</ele>
        <time>2021-03-15T19:00:47.448Z</time>
      </trkpt>
      <trkpt lat="44.49787" lon="1.51389">
        <ele>178.64848327637</ele>
        <time>2021-03-15T19:00:58.159Z</time>
      </trkpt>
      <trkpt lat="44.4983" lon="1.51373">
        <ele>181.42050170898</ele>
        <time>2021-03-15T19:01:08.883Z</time>
      </trkpt>
      <trkpt lat="44.4987" lon="1.51348">
        <ele>182.37939453125</ele>
        <time>2021-03-15T19:01:19.621Z</time>
      </trkpt>
      <trkpt lat="44.49887" lon="1.51347">
        <ele>182.39266967773</ele>
        <time>2021-03-15T19:01:30.364Z</time>
      </trkpt>
      <trkpt lat="44.49902" lon="1.51353">
        <ele>182.99938964844</ele>
        <time>2021-03-15T19:01:41.112Z</time>
      </trkpt>
      <trkpt lat="44.49927" lon="1.51351">
        <ele>183.61294555664</ele>
        <time>2021-03-15T19:01:51.868Z</time>
      </trkpt>
      <trkpt lat="44.49983" lon="1.5131">
        <ele>182.75212097168</ele>
        <time>2021-03-15T19:02:02.643Z</time>
      </trkpt>
      <trkpt lat="44.50061" lon="1.5125">
        <ele>187.17739868164</ele>
        <time>2021-03-15T19:02:13.445Z</time>
      </trkpt>
      <trkpt lat="44.50138" lon="1.5119">
        <ele>180.75634765625</ele>
        <time>2021-03-15T19:02:24.275Z</time>
      </trkpt>
      <trkpt lat="44.50172" lon="1.51185">
        <ele>180.32502746582</ele>
        <time>2021-03-15T19:02:35.115Z</time>
      </trkpt>
      <trkpt lat="44.50193" lon="1.51198">
        <ele>183.47225952148</ele>
        <time>2021-03-15T19:02:45.962Z</time>
      </trkpt>
      <trkpt lat="44.5019" lon="1.51217">
        <ele>186.6753692627</ele>
        <time>2021-03-15T19:02:56.814Z</time>
      </trkpt>
      <trkpt lat="44.50186" lon="1.51222">
        <ele>187.85848999023</ele>
        <time>2021-03-15T19:03:07.667Z</time>
      </trkpt>
      <trkpt lat="44.5016" lon="1.51233">
        <ele>190.76379394531</ele>
        <time>2021-03-15T19:03:18.529Z</time>
      </trkpt>
      <trkpt lat="44.50141" lon="1.51251">
        <ele>195.30952453613</ele>
        <time>2021-03-15T19:03:29.398Z</time>
      </trkpt>
      <trkpt lat="44.50103" lon="1.51306">
        <ele>206.41456604004</ele>
        <time>2021-03-15T19:03:40.283Z</time>
      </trkpt>
      <trkpt lat="44.50065" lon="1.5136">
        <ele>215.05387878418</ele>
        <time>2021-03-15T19:03:51.185Z</time>
      </trkpt>
      <trkpt lat="44.50053" lon="1.51389">
        <ele>217.11779785156</ele>
        <time>2021-03-15T19:04:02.094Z</time>
      </trkpt>
      <trkpt lat="44.50049" lon="1.51405">
        <ele>218.70135498047</ele>
        <time>2021-03-15T19:04:13.007Z</time>
      </trkpt>
      <trkpt lat="44.50039" lon="1.51499">
        <ele>231.02493286133</ele>
        <time>2021-03-15T19:04:23.941Z</time>
      </trkpt>
      <trkpt lat="44.50065" lon="1.5146">
        <ele>233.89642333984</ele>
        <time>2021-03-15T19:04:34.887Z</time>
      </trkpt>
      <trkpt lat="44.50092" lon="1.51437">
        <ele>237.73701477051</ele>
        <time>2021-03-15T19:04:45.843Z</time>
      </trkpt>
      <trkpt lat="44.50125" lon="1.5142">
        <ele>242.31240844727</ele>
        <time>2021-03-15T19:04:56.809Z</time>
      </trkpt>
      <trkpt lat="44.50157" lon="1.51418">
        <ele>244.7857208252</ele>
        <time>2021-03-15T19:05:07.785Z</time>
      </trkpt>
      <trkpt lat="44.50182" lon="1.51414">
        <ele>243.23881530762</ele>
        <time>2021-03-15T19:05:18.769Z</time>
      </trkpt>
      <trkpt lat="44.50189" lon="1.51415">
        <ele>242.9508972168</ele>
        <time>2021-03-15T19:05:29.755Z</time>
      </trkpt>
      <trkpt lat="44.50195" lon="1.51418">
        <ele>243.11724853516</ele>
        <time>2021-03-15T19:05:40.743Z</time>
      </trkpt>
      <trkpt lat="44.50207" lon="1.5143">
        <ele>244.41288757324</ele>
        <time>2021-03-15T19:05:51.736Z</time>
      </trkpt>
      <trkpt lat="44.50212" lon="1.51442">
        <ele>245.96044921875</ele>
        <time>2021-03-15T19:06:02.732Z</time>
      </trkpt>
      <trkpt lat="44.50232" lon="1.51471">
        <ele>249.17356872559</ele>
        <time>2021-03-15T19:06:13.737Z</time>
      </trkpt>
      <trkpt lat="44.50236" lon="1.51496">
        <ele>252.01676940918</ele>
        <time>2021-03-15T19:06:24.747Z</time>
      </trkpt>
      <trkpt lat="44.50242" lon="1.51581">
        <ele>258.03894042969</ele>
        <time>2021-03-15T19:06:35.776Z</time>
      </trkpt>
      <trkpt lat="44.50247" lon="1.51667">
        <ele>263.06512451172</ele>
        <time>2021-03-15T19:06:46.824Z</time>
      </trkpt>
      <trkpt lat="44.50253" lon="1.51752">
        <ele>269.10897827148</ele>
        <time>2021-03-15T19:06:57.891Z</time>
      </trkpt>
      <trkpt lat="44.50255" lon="1.51765">
        <ele>269.69979858398</ele>
        <time>2021-03-15T19:07:08.961Z</time>
      </trkpt>
      <trkpt lat="44.50264" lon="1.51792">
        <ele>270.99545288086</ele>
        <time>2021-03-15T19:07:20.037Z</time>
      </trkpt>
      <trkpt lat="44.50291" lon="1.51859">
        <ele>274.47308349609</ele>
        <time>2021-03-15T19:07:31.130Z</time>
      </trkpt>
      <trkpt lat="44.50318" lon="1.51926">
        <ele>276.8896484375</ele>
        <time>2021-03-15T19:07:42.240Z</time>
      </trkpt>
      <trkpt lat="44.50335" lon="1.51993">
        <ele>277.67141723633</ele>
        <time>2021-03-15T19:07:53.366Z</time>
      </trkpt>
      <trkpt lat="44.50355" lon="1.52057">
        <ele>278</ele>
        <time>2021-03-15T19:08:04.507Z</time>
      </trkpt>
      <trkpt lat="44.50374" lon="1.5212">
        <ele>277.70120239258</ele>
        <time>2021-03-15T19:08:15.663Z</time>
      </trkpt>
      <trkpt lat="44.50426" lon="1.52147">
        <ele>274.06597900391</ele>
        <time>2021-03-15T19:08:26.836Z</time>
      </trkpt>
      <trkpt lat="44.5051" lon="1.52185">
        <ele>269.00692749023</ele>
        <time>2021-03-15T19:08:38.037Z</time>
      </trkpt>
      <trkpt lat="44.50517" lon="1.5219">
        <ele>268.57507324219</ele>
        <time>2021-03-15T19:08:49.240Z</time>
      </trkpt>
      <trkpt lat="44.50521" lon="1.52197">
        <ele>268.24920654297</ele>
        <time>2021-03-15T19:09:00.445Z</time>
      </trkpt>
      <trkpt lat="44.50535" lon="1.52262">
        <ele>267.59060668945</ele>
        <time>2021-03-15T19:09:11.665Z</time>
      </trkpt>
      <trkpt lat="44.50547" lon="1.52296">
        <ele>267</ele>
        <time>2021-03-15T19:09:22.893Z</time>
      </trkpt>
      <trkpt lat="44.50592" lon="1.52367">
        <ele>266.88226318359</ele>
        <time>2021-03-15T19:09:34.142Z</time>
      </trkpt>
      <trkpt lat="44.50598" lon="1.52372">
        <ele>266.84625244141</ele>
        <time>2021-03-15T19:09:45.393Z</time>
      </trkpt>
      <trkpt lat="44.50603" lon="1.52369">
        <ele>266.55834960938</ele>
        <time>2021-03-15T19:09:56.646Z</time>
      </trkpt>
      <trkpt lat="44.5061" lon="1.52394">
        <ele>267.32012939453</ele>
        <time>2021-03-15T19:10:07.905Z</time>
      </trkpt>
      <trkpt lat="44.5062" lon="1.52448">
        <ele>269.31381225586</ele>
        <time>2021-03-15T19:10:19.176Z</time>
      </trkpt>
      <trkpt lat="44.50647" lon="1.52527">
        <ele>272.07019042969</ele>
        <time>2021-03-15T19:10:30.466Z</time>
      </trkpt>
      <trkpt lat="44.50673" lon="1.52605">
        <ele>281.17172241211</ele>
        <time>2021-03-15T19:10:41.775Z</time>
      </trkpt>
      <trkpt lat="44.5069" lon="1.52663">
        <ele>286.18206787109</ele>
        <time>2021-03-15T19:10:53.098Z</time>
      </trkpt>
      <trkpt lat="44.50708" lon="1.52741">
        <ele>291.16766357422</ele>
        <time>2021-03-15T19:11:04.439Z</time>
      </trkpt>
      <trkpt lat="44.50718" lon="1.52839">
        <ele>296.99844360352</ele>
        <time>2021-03-15T19:11:15.802Z</time>
      </trkpt>
      <trkpt lat="44.50728" lon="1.52936">
        <ele>300.0680847168</ele>
        <time>2021-03-15T19:11:27.187Z</time>
      </trkpt>
      <trkpt lat="44.50743" lon="1.53046">
        <ele>299.85559082031</ele>
        <time>2021-03-15T19:11:38.596Z</time>
      </trkpt>
      <trkpt lat="44.50743" lon="1.53139">
        <ele>301.45376586914</ele>
        <time>2021-03-15T19:11:50.026Z</time>
      </trkpt>
      <trkpt lat="44.50745" lon="1.53169">
        <ele>303.72973632812</ele>
        <time>2021-03-15T19:12:01.462Z</time>
      </trkpt>
      <trkpt lat="44.50751" lon="1.53206">
        <ele>306.76788330078</ele>
        <time>2021-03-15T19:12:12.907Z</time>
      </trkpt>
      <trkpt lat="44.50773" lon="1.53273">
        <ele>311.56555175781</ele>
        <time>2021-03-15T19:12:24.368Z</time>
      </trkpt>
      <trkpt lat="44.50799" lon="1.53332">
        <ele>315.22601318359</ele>
        <time>2021-03-15T19:12:35.844Z</time>
      </trkpt>
      <trkpt lat="44.50824" lon="1.5339">
        <ele>319.00610351562</ele>
        <time>2021-03-15T19:12:47.335Z</time>
      </trkpt>
      <trkpt lat="44.50829" lon="1.5342">
        <ele>320.33590698242</ele>
        <time>2021-03-15T19:12:58.833Z</time>
      </trkpt>
      <trkpt lat="44.50846" lon="1.53476">
        <ele>324.20248413086</ele>
        <time>2021-03-15T19:13:10.344Z</time>
      </trkpt>
      <trkpt lat="44.50862" lon="1.53504">
        <ele>326.21792602539</ele>
        <time>2021-03-15T19:13:21.863Z</time>
      </trkpt>
      <trkpt lat="44.50872" lon="1.53514">
        <ele>326.95489501953</ele>
        <time>2021-03-15T19:13:33.386Z</time>
      </trkpt>
      <trkpt lat="44.50892" lon="1.53535">
        <ele>328.22467041016</ele>
        <time>2021-03-15T19:13:44.917Z</time>
      </trkpt>
      <trkpt lat="44.50943" lon="1.53578">
        <ele>331.48300170898</ele>
        <time>2021-03-15T19:13:56.466Z</time>
      </trkpt>
      <trkpt lat="44.50984" lon="1.53613">
        <ele>334.83270263672</ele>
        <time>2021-03-15T19:14:08.030Z</time>
      </trkpt>
      <trkpt lat="44.50984" lon="1.53613">
        <ele>334.83291625977</ele>
        <time>2021-03-15T19:14:19.594Z</time>
      </trkpt>
      <trkpt lat="44.50994" lon="1.53621">
        <ele>335.5481262207</ele>
        <time>2021-03-15T19:14:31.161Z</time>
      </trkpt>
      <trkpt lat="44.5102" lon="1.53646">
        <ele>338.83920288086</ele>
        <time>2021-03-15T19:14:42.738Z</time>
      </trkpt>
      <trkpt lat="44.51043" lon="1.53677">
        <ele>341.61273193359</ele>
        <time>2021-03-15T19:14:54.325Z</time>
      </trkpt>
      <trkpt lat="44.51076" lon="1.53731">
        <ele>345.17572021484</ele>
        <time>2021-03-15T19:15:05.928Z</time>
      </trkpt>
      <trkpt lat="44.5109" lon="1.53759">
        <ele>346.22909545898</ele>
        <time>2021-03-15T19:15:17.538Z</time>
      </trkpt>
      <trkpt lat="44.51108" lon="1.53673">
        <ele>347.71786499023</ele>
        <time>2021-03-15T19:15:29.168Z</time>
      </trkpt>
      <trkpt lat="44.51125" lon="1.53586">
        <ele>349.3684387207</ele>
        <time>2021-03-15T19:15:40.818Z</time>
      </trkpt>
      <trkpt lat="44.51142" lon="1.53537">
        <ele>349.8994140625</ele>
        <time>2021-03-15T19:15:52.480Z</time>
      </trkpt>
      <trkpt lat="44.51163" lon="1.53493">
        <ele>348.42614746094</ele>
        <time>2021-03-15T19:16:04.153Z</time>
      </trkpt>
      <trkpt lat="44.5117" lon="1.53481">
        <ele>347.34579467773</ele>
        <time>2021-03-15T19:16:15.830Z</time>
      </trkpt>
      <trkpt lat="44.51178" lon="1.53473">
        <ele>346.59033203125</ele>
        <time>2021-03-15T19:16:27.510Z</time>
      </trkpt>
      <trkpt lat="44.51211" lon="1.53412">
        <ele>342.36380004883</ele>
        <time>2021-03-15T19:16:39.207Z</time>
      </trkpt>
      <trkpt lat="44.51244" lon="1.5335">
        <ele>340.88119506836</ele>
        <time>2021-03-15T19:16:50.921Z</time>
      </trkpt>
      <trkpt lat="44.51254" lon="1.53349">
        <ele>341.39904785156</ele>
        <time>2021-03-15T19:17:02.638Z</time>
      </trkpt>
      <trkpt lat="44.51278" lon="1.53365">
        <ele>341.00479125977</ele>
        <time>2021-03-15T19:17:14.363Z</time>
      </trkpt>
      <trkpt lat="44.51282" lon="1.53366">
        <ele>340.44326782227</ele>
        <time>2021-03-15T19:17:26.089Z</time>
      </trkpt>
      <trkpt lat="44.51292" lon="1.53359">
        <ele>338.39498901367</ele>
        <time>2021-03-15T19:17:37.819Z</time>
      </trkpt>
      <trkpt lat="44.51288" lon="1.53343">
        <ele>338.57949829102</ele>
        <time>2021-03-15T19:17:49.552Z</time>
      </trkpt>
      <trkpt lat="44.51286" lon="1.53319">
        <ele>338.86743164062</ele>
        <time>2021-03-15T19:18:01.291Z</time>
      </trkpt>
      <trkpt lat="44.51287" lon="1.53273">
        <ele>337.15701293945</ele>
        <time>2021-03-15T19:18:13.040Z</time>
      </trkpt>
      <trkpt lat="44.51293" lon="1.53234">
        <ele>335.39166259766</ele>
        <time>2021-03-15T19:18:24.798Z</time>
      </trkpt>
      <trkpt lat="44.513" lon="1.53213">
        <ele>334.63586425781</ele>
        <time>2021-03-15T19:18:36.561Z</time>
      </trkpt>
      <trkpt lat="44.51304" lon="1.53193">
        <ele>333.93096923828</ele>
        <time>2021-03-15T19:18:48.328Z</time>
      </trkpt>
      <trkpt lat="44.51301" lon="1.53125">
        <ele>332.82299804688</ele>
        <time>2021-03-15T19:19:00.110Z</time>
      </trkpt>
      <trkpt lat="44.51287" lon="1.53054">
        <ele>332.5517578125</ele>
        <time>2021-03-15T19:19:11.908Z</time>
      </trkpt>
      <trkpt lat="44.51273" lon="1.52983">
        <ele>329.43453979492</ele>
        <time>2021-03-15T19:19:23.723Z</time>
      </trkpt>
      <trkpt lat="44.51269" lon="1.52938">
        <ele>324.98239135742</ele>
        <time>2021-03-15T19:19:35.548Z</time>
      </trkpt>
      <trkpt lat="44.51268" lon="1.52852">
        <ele>312.74240112305</ele>
        <time>2021-03-15T19:19:47.392Z</time>
      </trkpt>
      <trkpt lat="44.51294" lon="1.52851">
        <ele>317.49923706055</ele>
        <time>2021-03-15T19:19:59.244Z</time>
      </trkpt>
      <trkpt lat="44.51379" lon="1.52881">
        <ele>324.4313659668</ele>
        <time>2021-03-15T19:20:11.123Z</time>
      </trkpt>
      <trkpt lat="44.51457" lon="1.52929">
        <ele>319.10241699219</ele>
        <time>2021-03-15T19:20:23.028Z</time>
      </trkpt>
      <trkpt lat="44.51472" lon="1.52929">
        <ele>317.48287963867</ele>
        <time>2021-03-15T19:20:34.937Z</time>
      </trkpt>
      <trkpt lat="44.51491" lon="1.52924">
        <ele>316.10412597656</ele>
        <time>2021-03-15T19:20:46.852Z</time>
      </trkpt>
      <trkpt lat="44.51533" lon="1.52895">
        <ele>314.69064331055</ele>
        <time>2021-03-15T19:20:58.782Z</time>
      </trkpt>
      <trkpt lat="44.51574" lon="1.52865">
        <ele>316.42553710938</ele>
        <time>2021-03-15T19:21:10.726Z</time>
      </trkpt>
      <trkpt lat="44.51603" lon="1.52853">
        <ele>316.62854003906</ele>
        <time>2021-03-15T19:21:22.679Z</time>
      </trkpt>
      <trkpt lat="44.51634" lon="1.52843">
        <ele>316.68041992188</ele>
        <time>2021-03-15T19:21:34.642Z</time>
      </trkpt>
      <trkpt lat="44.51651" lon="1.5284">
        <ele>316.78839111328</ele>
        <time>2021-03-15T19:21:46.610Z</time>
      </trkpt>
      <trkpt lat="44.51667" lon="1.5285">
        <ele>316.42849731445</ele>
        <time>2021-03-15T19:21:58.584Z</time>
      </trkpt>
      <trkpt lat="44.51677" lon="1.52853">
        <ele>316.32052612305</ele>
        <time>2021-03-15T19:22:10.561Z</time>
      </trkpt>
      <trkpt lat="44.51669" lon="1.52816">
        <ele>317.51751708984</ele>
        <time>2021-03-15T19:22:22.546Z</time>
      </trkpt>
      <trkpt lat="44.51668" lon="1.52793">
        <ele>318.38595581055</ele>
        <time>2021-03-15T19:22:34.536Z</time>
      </trkpt>
      <trkpt lat="44.51664" lon="1.52778">
        <ele>319.11264038086</ele>
        <time>2021-03-15T19:22:46.530Z</time>
      </trkpt>
      <trkpt lat="44.51665" lon="1.52754">
        <ele>319.07666015625</ele>
        <time>2021-03-15T19:22:58.529Z</time>
      </trkpt>
      <trkpt lat="44.51654" lon="1.52691">
        <ele>320.62344360352</ele>
        <time>2021-03-15T19:23:10.543Z</time>
      </trkpt>
      <trkpt lat="44.51652" lon="1.52657">
        <ele>322.37457275391</ele>
        <time>2021-03-15T19:23:22.564Z</time>
      </trkpt>
      <trkpt lat="44.51658" lon="1.526">
        <ele>320.90258789062</ele>
        <time>2021-03-15T19:23:34.598Z</time>
      </trkpt>
      <trkpt lat="44.51657" lon="1.52583">
        <ele>320.32675170898</ele>
        <time>2021-03-15T19:23:46.636Z</time>
      </trkpt>
      <trkpt lat="44.51664" lon="1.52564">
        <ele>319.39099121094</ele>
        <time>2021-03-15T19:23:58.678Z</time>
      </trkpt>
      <trkpt lat="44.51674" lon="1.52549">
        <ele>318.75274658203</ele>
        <time>2021-03-15T19:24:10.725Z</time>
      </trkpt>
      <trkpt lat="44.51665" lon="1.52515">
        <ele>318.4382019043</ele>
        <time>2021-03-15T19:24:22.780Z</time>
      </trkpt>
      <trkpt lat="44.51663" lon="1.52496">
        <ele>317.34451293945</ele>
        <time>2021-03-15T19:24:34.839Z</time>
      </trkpt>
      <trkpt lat="44.5168" lon="1.52441">
        <ele>311.33279418945</ele>
        <time>2021-03-15T19:24:46.911Z</time>
      </trkpt>
      <trkpt lat="44.51675" lon="1.52406">
        <ele>304.99337768555</ele>
        <time>2021-03-15T19:24:58.991Z</time>
      </trkpt>
      <trkpt lat="44.51685" lon="1.5238">
        <ele>299.822265625</ele>
        <time>2021-03-15T19:25:11.077Z</time>
      </trkpt>
      <trkpt lat="44.51701" lon="1.52358">
        <ele>296.4889831543</ele>
        <time>2021-03-15T19:25:23.170Z</time>
      </trkpt>
      <trkpt lat="44.5171" lon="1.52334">
        <ele>290.54824829102</ele>
        <time>2021-03-15T19:25:35.269Z</time>
      </trkpt>
      <trkpt lat="44.5172" lon="1.52317">
        <ele>287.23580932617</ele>
        <time>2021-03-15T19:25:47.373Z</time>
      </trkpt>
      <trkpt lat="44.51727" lon="1.52294">
        <ele>282.21166992188</ele>
        <time>2021-03-15T19:25:59.483Z</time>
      </trkpt>
      <trkpt lat="44.51741" lon="1.52282">
        <ele>278.58712768555</ele>
        <time>2021-03-15T19:26:11.598Z</time>
      </trkpt>
      <trkpt lat="44.51751" lon="1.52268">
        <ele>274.30331420898</ele>
        <time>2021-03-15T19:26:23.717Z</time>
      </trkpt>
      <trkpt lat="44.51775" lon="1.52213">
        <ele>255.70178222656</ele>
        <time>2021-03-15T19:26:35.850Z</time>
      </trkpt>
      <trkpt lat="44.51798" lon="1.52157">
        <ele>241.28297424316</ele>
        <time>2021-03-15T19:26:47.998Z</time>
      </trkpt>
      <trkpt lat="44.51821" lon="1.52143">
        <ele>234.60827636719</ele>
        <time>2021-03-15T19:27:00.153Z</time>
      </trkpt>
      <trkpt lat="44.51833" lon="1.5214">
        <ele>232.23294067383</ele>
        <time>2021-03-15T19:27:12.312Z</time>
      </trkpt>
      <trkpt lat="44.51847" lon="1.52112">
        <ele>228.47354125977</ele>
        <time>2021-03-15T19:27:24.478Z</time>
      </trkpt>
      <trkpt lat="44.51854" lon="1.52119">
        <ele>228.72546386719</ele>
        <time>2021-03-15T19:27:36.647Z</time>
      </trkpt>
      <trkpt lat="44.51868" lon="1.5216">
        <ele>230.98588562012</ele>
        <time>2021-03-15T19:27:48.826Z</time>
      </trkpt>
      <trkpt lat="44.51873" lon="1.52205">
        <ele>233.66954040527</ele>
        <time>2021-03-15T19:28:01.015Z</time>
      </trkpt>
      <trkpt lat="44.51905" lon="1.52275">
        <ele>236.02055358887</ele>
        <time>2021-03-15T19:28:13.222Z</time>
      </trkpt>
      <trkpt lat="44.51936" lon="1.52317">
        <ele>235.74774169922</ele>
        <time>2021-03-15T19:28:25.443Z</time>
      </trkpt>
      <trkpt lat="44.51976" lon="1.52377">
        <ele>238.07670593262</ele>
        <time>2021-03-15T19:28:37.682Z</time>
      </trkpt>
      <trkpt lat="44.51997" lon="1.52438">
        <ele>241.87113952637</ele>
        <time>2021-03-15T19:28:49.936Z</time>
      </trkpt>
      <trkpt lat="44.51998" lon="1.52492">
        <ele>243.33090209961</ele>
        <time>2021-03-15T19:29:02.202Z</time>
      </trkpt>
      <trkpt lat="44.52003" lon="1.52541">
        <ele>243.72525024414</ele>
        <time>2021-03-15T19:29:14.478Z</time>
      </trkpt>
      <trkpt lat="44.52068" lon="1.52597">
        <ele>244.0094909668</ele>
        <time>2021-03-15T19:29:26.778Z</time>
      </trkpt>
      <trkpt lat="44.52087" lon="1.52619">
        <ele>245.40449523926</ele>
        <time>2021-03-15T19:29:39.086Z</time>
      </trkpt>
      <trkpt lat="44.521" lon="1.52631">
        <ele>245.80038452148</ele>
        <time>2021-03-15T19:29:51.398Z</time>
      </trkpt>
      <trkpt lat="44.52108" lon="1.52626">
        <ele>245.50975036621</ele>
        <time>2021-03-15T19:30:03.713Z</time>
      </trkpt>
      <trkpt lat="44.52128" lon="1.52619">
        <ele>245.58673095703</ele>
        <time>2021-03-15T19:30:16.034Z</time>
      </trkpt>
      <trkpt lat="44.52129" lon="1.52619">
        <ele>245.62271118164</ele>
        <time>2021-03-15T19:30:28.356Z</time>
      </trkpt>
      <trkpt lat="44.52134" lon="1.52608">
        <ele>245.94073486328</ele>
        <time>2021-03-15T19:30:40.681Z</time>
      </trkpt>
      <trkpt lat="44.52102" lon="1.52578">
        <ele>245.38850402832</ele>
        <time>2021-03-15T19:30:53.017Z</time>
      </trkpt>
      <trkpt lat="44.52086" lon="1.52567">
        <ele>244.45275878906</ele>
        <time>2021-03-15T19:31:05.359Z</time>
      </trkpt>
      <trkpt lat="44.52065" lon="1.52559">
        <ele>242.76123046875</ele>
        <time>2021-03-15T19:31:17.708Z</time>
      </trkpt>
      <trkpt lat="44.52049" lon="1.52541">
        <ele>242.58583068848</ele>
        <time>2021-03-15T19:31:30.063Z</time>
      </trkpt>
      <trkpt lat="44.52033" lon="1.52509">
        <ele>241.63426208496</ele>
        <time>2021-03-15T19:31:42.427Z</time>
      </trkpt>
      <trkpt lat="44.52031" lon="1.52448">
        <ele>243.66203308105</ele>
        <time>2021-03-15T19:31:54.804Z</time>
      </trkpt>
      <trkpt lat="44.52023" lon="1.52409">
        <ele>243.73880004883</ele>
        <time>2021-03-15T19:32:07.190Z</time>
      </trkpt>
      <trkpt lat="44.52008" lon="1.52364">
        <ele>238.87547302246</ele>
        <time>2021-03-15T19:32:19.587Z</time>
      </trkpt>
      <trkpt lat="44.52009" lon="1.52349">
        <ele>239.58689880371</ele>
        <time>2021-03-15T19:32:31.987Z</time>
      </trkpt>
      <trkpt lat="44.52004" lon="1.52336">
        <ele>238.74378967285</ele>
        <time>2021-03-15T19:32:44.390Z</time>
      </trkpt>
      <trkpt lat="44.51981" lon="1.52321">
        <ele>236.35578918457</ele>
        <time>2021-03-15T19:32:56.801Z</time>
      </trkpt>
      <trkpt lat="44.51951" lon="1.52278">
        <ele>235.88075256348</ele>
        <time>2021-03-15T19:33:09.225Z</time>
      </trkpt>
      <trkpt lat="44.51938" lon="1.52252">
        <ele>235.19639587402</ele>
        <time>2021-03-15T19:33:21.656Z</time>
      </trkpt>
      <trkpt lat="44.51917" lon="1.52187">
        <ele>234.20726013184</ele>
        <time>2021-03-15T19:33:34.103Z</time>
      </trkpt>
      <trkpt lat="44.51895" lon="1.52121">
        <ele>233.80511474609</ele>
        <time>2021-03-15T19:33:46.566Z</time>
      </trkpt>
      <trkpt lat="44.5188" lon="1.52082">
        <ele>234.83488464355</ele>
        <time>2021-03-15T19:33:59.039Z</time>
      </trkpt>
      <trkpt lat="44.51865" lon="1.52061">
        <ele>233.32330322266</ele>
        <time>2021-03-15T19:34:11.518Z</time>
      </trkpt>
      <trkpt lat="44.51847" lon="1.52048">
        <ele>231.53756713867</ele>
        <time>2021-03-15T19:34:24.004Z</time>
      </trkpt>
      <trkpt lat="44.51804" lon="1.52">
        <ele>230.74978637695</ele>
        <time>2021-03-15T19:34:36.507Z</time>
      </trkpt>
      <trkpt lat="44.51774" lon="1.51986">
        <ele>228.06698608398</ele>
        <time>2021-03-15T19:34:49.019Z</time>
      </trkpt>
      <trkpt lat="44.51732" lon="1.51977">
        <ele>220.39916992188</ele>
        <time>2021-03-15T19:35:01.544Z</time>
      </trkpt>
      <trkpt lat="44.5171" lon="1.5196">
        <ele>218.0883026123</ele>
        <time>2021-03-15T19:35:14.077Z</time>
      </trkpt>
      <trkpt lat="44.51694" lon="1.51945">
        <ele>216.96650695801</ele>
        <time>2021-03-15T19:35:26.616Z</time>
      </trkpt>
      <trkpt lat="44.51686" lon="1.51933">
        <ele>217.11047363281</ele>
        <time>2021-03-15T19:35:39.159Z</time>
      </trkpt>
      <trkpt lat="44.51686" lon="1.51919">
        <ele>217.61433410645</ele>
        <time>2021-03-15T19:35:51.705Z</time>
      </trkpt>
      <trkpt lat="44.51689" lon="1.51915">
        <ele>217.94540405273</ele>
        <time>2021-03-15T19:36:04.252Z</time>
      </trkpt>
      <trkpt lat="44.51674" lon="1.51903">
        <ele>218.26931762695</ele>
        <time>2021-03-15T19:36:16.804Z</time>
      </trkpt>
      <trkpt lat="44.51658" lon="1.51907">
        <ele>217.73413085938</ele>
        <time>2021-03-15T19:36:29.361Z</time>
      </trkpt>
      <trkpt lat="44.51602" lon="1.51939">
        <ele>220.02221679688</ele>
        <time>2021-03-15T19:36:41.937Z</time>
      </trkpt>
      <trkpt lat="44.51576" lon="1.51956">
        <ele>221.09042358398</ele>
        <time>2021-03-15T19:36:54.522Z</time>
      </trkpt>
      <trkpt lat="44.5155" lon="1.51957">
        <ele>221.27026367188</ele>
        <time>2021-03-15T19:37:07.115Z</time>
      </trkpt>
      <trkpt lat="44.51497" lon="1.51951">
        <ele>223.94696044922</ele>
        <time>2021-03-15T19:37:19.724Z</time>
      </trkpt>
      <trkpt lat="44.51477" lon="1.51953">
        <ele>224.95468139648</ele>
        <time>2021-03-15T19:37:32.339Z</time>
      </trkpt>
      <trkpt lat="44.51466" lon="1.51966">
        <ele>222.70057678223</ele>
        <time>2021-03-15T19:37:44.959Z</time>
      </trkpt>
      <trkpt lat="44.51463" lon="1.51984">
        <ele>220.53829956055</ele>
        <time>2021-03-15T19:37:57.583Z</time>
      </trkpt>
      <trkpt lat="44.51467" lon="1.5201">
        <ele>220.01971435547</ele>
        <time>2021-03-15T19:38:10.213Z</time>
      </trkpt>
      <trkpt lat="44.51395" lon="1.52015">
        <ele>215.9716796875</ele>
        <time>2021-03-15T19:38:22.865Z</time>
      </trkpt>
      <trkpt lat="44.51358" lon="1.51999">
        <ele>212.87442016602</ele>
        <time>2021-03-15T19:38:35.529Z</time>
      </trkpt>
      <trkpt lat="44.51327" lon="1.51981">
        <ele>211.51747131348</ele>
        <time>2021-03-15T19:38:48.203Z</time>
      </trkpt>
      <trkpt lat="44.51297" lon="1.51987">
        <ele>210.19116210938</ele>
        <time>2021-03-15T19:39:00.886Z</time>
      </trkpt>
      <trkpt lat="44.51258" lon="1.52013">
        <ele>212.68725585938</ele>
        <time>2021-03-15T19:39:13.583Z</time>
      </trkpt>
      <trkpt lat="44.51216" lon="1.52014">
        <ele>213.41932678223</ele>
        <time>2021-03-15T19:39:26.293Z</time>
      </trkpt>
      <trkpt lat="44.51158" lon="1.51971">
        <ele>211.25987243652</ele>
        <time>2021-03-15T19:39:39.023Z</time>
      </trkpt>
      <trkpt lat="44.51107" lon="1.51942">
        <ele>211.20657348633</ele>
        <time>2021-03-15T19:39:51.770Z</time>
      </trkpt>
      <trkpt lat="44.51055" lon="1.51912">
        <ele>210.46920776367</ele>
        <time>2021-03-15T19:40:04.534Z</time>
      </trkpt>
      <trkpt lat="44.50999" lon="1.5186">
        <ele>207.89813232422</ele>
        <time>2021-03-15T19:40:17.319Z</time>
      </trkpt>
      <trkpt lat="44.50942" lon="1.51807">
        <ele>206.19921875</ele>
        <time>2021-03-15T19:40:30.125Z</time>
      </trkpt>
      <trkpt lat="44.50894" lon="1.51759">
        <ele>202.56907653809</ele>
        <time>2021-03-15T19:40:42.949Z</time>
      </trkpt>
      <trkpt lat="44.50846" lon="1.51711">
        <ele>197.02644348145</ele>
        <time>2021-03-15T19:40:55.791Z</time>
      </trkpt>
      <trkpt lat="44.50815" lon="1.51676">
        <ele>196.66815185547</ele>
        <time>2021-03-15T19:41:08.646Z</time>
      </trkpt>
      <trkpt lat="44.5079" lon="1.51642">
        <ele>198.47232055664</ele>
        <time>2021-03-15T19:41:21.511Z</time>
      </trkpt>
      <trkpt lat="44.50755" lon="1.51613">
        <ele>199.82754516602</ele>
        <time>2021-03-15T19:41:34.389Z</time>
      </trkpt>
      <trkpt lat="44.5071" lon="1.51581">
        <ele>199.7643737793</ele>
        <time>2021-03-15T19:41:47.282Z</time>
      </trkpt>
      <trkpt lat="44.50665" lon="1.51548">
        <ele>197.11668395996</ele>
        <time>2021-03-15T19:42:00.191Z</time>
      </trkpt>
      <trkpt lat="44.50635" lon="1.51507">
        <ele>195.82582092285</ele>
        <time>2021-03-15T19:42:13.113Z</time>
      </trkpt>
      <trkpt lat="44.50618" lon="1.51462">
        <ele>195.12669372559</ele>
        <time>2021-03-15T19:42:26.046Z</time>
      </trkpt>
      <trkpt lat="44.5059" lon="1.51409">
        <ele>194.19328308105</ele>
        <time>2021-03-15T19:42:38.994Z</time>
      </trkpt>
      <trkpt lat="44.50562" lon="1.51356">
        <ele>192.50180053711</ele>
        <time>2021-03-15T19:42:51.956Z</time>
      </trkpt>
      <trkpt lat="44.50584" lon="1.51236">
        <ele>190.60356140137</ele>
        <time>2021-03-15T19:43:04.945Z</time>
      </trkpt>
      <trkpt lat="44.50573" lon="1.51231">
        <ele>190.33346557617</ele>
        <time>2021-03-15T19:43:17.938Z</time>
      </trkpt>
      <trkpt lat="44.50558" lon="1.51221">
        <ele>190.4458770752</ele>
        <time>2021-03-15T19:43:30.936Z</time>
      </trkpt>
      <trkpt lat="44.50486" lon="1.51195">
        <ele>190.96778869629</ele>
        <time>2021-03-15T19:43:43.957Z</time>
      </trkpt>
      <trkpt lat="44.50465" lon="1.51181">
        <ele>191.92463684082</ele>
        <time>2021-03-15T19:43:56.985Z</time>
      </trkpt>
      <trkpt lat="44.5043" lon="1.51142">
        <ele>193.2507019043</ele>
        <time>2021-03-15T19:44:10.027Z</time>
      </trkpt>
      <trkpt lat="44.50378" lon="1.51108">
        <ele>190.46409606934</ele>
        <time>2021-03-15T19:44:23.087Z</time>
      </trkpt>
      <trkpt lat="44.50325" lon="1.51073">
        <ele>191.38272094727</ele>
        <time>2021-03-15T19:44:36.165Z</time>
      </trkpt>
      <trkpt lat="44.5031" lon="1.51049">
        <ele>192.73945617676</ele>
        <time>2021-03-15T19:44:49.250Z</time>
      </trkpt>
      <trkpt lat="44.50306" lon="1.5104">
        <ele>193.71119689941</ele>
        <time>2021-03-15T19:45:02.337Z</time>
      </trkpt>
      <trkpt lat="44.50292" lon="1.51051">
        <ele>194.66171264648</ele>
        <time>2021-03-15T19:45:15.429Z</time>
      </trkpt>
      <trkpt lat="44.50283" lon="1.51061">
        <ele>194.88764953613</ele>
        <time>2021-03-15T19:45:28.524Z</time>
      </trkpt>
      <trkpt lat="44.50254" lon="1.5111">
        <ele>188.06292724609</ele>
        <time>2021-03-15T19:45:41.633Z</time>
      </trkpt>
      <trkpt lat="44.50245" lon="1.51114">
        <ele>187.81427001953</ele>
        <time>2021-03-15T19:45:54.745Z</time>
      </trkpt>
      <trkpt lat="44.50211" lon="1.51112">
        <ele>186.7190246582</ele>
        <time>2021-03-15T19:46:07.868Z</time>
      </trkpt>
      <trkpt lat="44.50207" lon="1.51113">
        <ele>186.17916870117</ele>
        <time>2021-03-15T19:46:20.992Z</time>
      </trkpt>
      <trkpt lat="44.50194" lon="1.51106">
        <ele>185.9214630127</ele>
        <time>2021-03-15T19:46:34.120Z</time>
      </trkpt>
      <trkpt lat="44.50179" lon="1.51094">
        <ele>186.46131896973</ele>
        <time>2021-03-15T19:46:47.254Z</time>
      </trkpt>
      <trkpt lat="44.50146" lon="1.51094">
        <ele>184.88081359863</ele>
        <time>2021-03-15T19:47:00.398Z</time>
      </trkpt>
      <trkpt lat="44.50127" lon="1.511">
        <ele>186.80860900879</ele>
        <time>2021-03-15T19:47:13.548Z</time>
      </trkpt>
      <trkpt lat="44.5009" lon="1.51156">
        <ele>188.14762878418</ele>
        <time>2021-03-15T19:47:26.715Z</time>
      </trkpt>
      <trkpt lat="44.50063" lon="1.51192">
        <ele>187.23220825195</ele>
        <time>2021-03-15T19:47:39.893Z</time>
      </trkpt>
      <trkpt lat="44.50051" lon="1.51203">
        <ele>187.32902526855</ele>
        <time>2021-03-15T19:47:53.075Z</time>
      </trkpt>
      <trkpt lat="44.50018" lon="1.51216">
        <ele>186.24143981934</ele>
        <time>2021-03-15T19:48:06.268Z</time>
      </trkpt>
      <trkpt lat="44.49967" lon="1.51247">
        <ele>186.35301208496</ele>
        <time>2021-03-15T19:48:19.478Z</time>
      </trkpt>
      <trkpt lat="44.49958" lon="1.51248">
        <ele>187.46870422363</ele>
        <time>2021-03-15T19:48:32.691Z</time>
      </trkpt>
      <trkpt lat="44.49937" lon="1.51239">
        <ele>192.11141967773</ele>
        <time>2021-03-15T19:48:45.911Z</time>
      </trkpt>
      <trkpt lat="44.49932" lon="1.51233">
        <ele>193.91091918945</ele>
        <time>2021-03-15T19:48:59.133Z</time>
      </trkpt>
      <trkpt lat="44.4991" lon="1.5129">
        <ele>182.97575378418</ele>
        <time>2021-03-15T19:49:12.369Z</time>
      </trkpt>
      <trkpt lat="44.49887" lon="1.51347">
        <ele>182.39266967773</ele>
        <time>2021-03-15T19:49:25.619Z</time>
      </trkpt>
      <trkpt lat="44.4987" lon="1.51348">
        <ele>182.37939453125</ele>
        <time>2021-03-15T19:49:38.875Z</time>
      </trkpt>
      <trkpt lat="44.4983" lon="1.51373">
        <ele>181.42050170898</ele>
        <time>2021-03-15T19:49:52.144Z</time>
      </trkpt>
      <trkpt lat="44.49787" lon="1.51389">
        <ele>178.64848327637</ele>
        <time>2021-03-15T19:50:05.427Z</time>
      </trkpt>
      <trkpt lat="44.49739" lon="1.51401">
        <ele>178.9539642334</ele>
        <time>2021-03-15T19:50:18.725Z</time>
      </trkpt>
      <trkpt lat="44.49692" lon="1.51393">
        <ele>175.85359191895</ele>
        <time>2021-03-15T19:50:32.037Z</time>
      </trkpt>
      <trkpt lat="44.49655" lon="1.51402">
        <ele>175.41539001465</ele>
        <time>2021-03-15T19:50:45.361Z</time>
      </trkpt>
      <trkpt lat="44.49593" lon="1.51449">
        <ele>176.24914550781</ele>
        <time>2021-03-15T19:50:58.707Z</time>
      </trkpt>
      <trkpt lat="44.49514" lon="1.51472">
        <ele>174.94956970215</ele>
        <time>2021-03-15T19:51:12.077Z</time>
      </trkpt>
      <trkpt lat="44.49492" lon="1.51482">
        <ele>176.36029052734</ele>
        <time>2021-03-15T19:51:25.455Z</time>
      </trkpt>
      <trkpt lat="44.49473" lon="1.51478">
        <ele>175.19261169434</ele>
        <time>2021-03-15T19:51:38.838Z</time>
      </trkpt>
      <trkpt lat="44.49451" lon="1.51479">
        <ele>174.6167755127</ele>
        <time>2021-03-15T19:51:52.228Z</time>
      </trkpt>
      <trkpt lat="44.49403" lon="1.51488">
        <ele>173.25164794922</ele>
        <time>2021-03-15T19:52:05.633Z</time>
      </trkpt>
      <trkpt lat="44.49368" lon="1.51476">
        <ele>173.09757995605</ele>
        <time>2021-03-15T19:52:19.049Z</time>
      </trkpt>
      <trkpt lat="44.49327" lon="1.5145">
        <ele>173.99810791016</ele>
        <time>2021-03-15T19:52:32.479Z</time>
      </trkpt>
      <trkpt lat="44.49298" lon="1.51418">
        <ele>170.99789428711</ele>
        <time>2021-03-15T19:52:45.920Z</time>
      </trkpt>
      <trkpt lat="44.49277" lon="1.51403">
        <ele>170.02615356445</ele>
        <time>2021-03-15T19:52:59.369Z</time>
      </trkpt>
      <trkpt lat="44.49262" lon="1.51396">
        <ele>170.13412475586</ele>
        <time>2021-03-15T19:53:12.823Z</time>
      </trkpt>
      <trkpt lat="44.4927" lon="1.51364">
        <ele>167.63693237305</ele>
        <time>2021-03-15T19:53:26.284Z</time>
      </trkpt>
      <trkpt lat="44.49253" lon="1.51328">
        <ele>168.19316101074</ele>
        <time>2021-03-15T19:53:39.755Z</time>
      </trkpt>
      <trkpt lat="44.49245" lon="1.51318">
        <ele>169.04043579102</ele>
        <time>2021-03-15T19:53:53.229Z</time>
      </trkpt>
      <trkpt lat="44.49231" lon="1.51281">
        <ele>177.40977478027</ele>
        <time>2021-03-15T19:54:06.712Z</time>
      </trkpt>
      <trkpt lat="44.49209" lon="1.51294">
        <ele>175.50979614258</ele>
        <time>2021-03-15T19:54:20.202Z</time>
      </trkpt>
      <trkpt lat="44.49172" lon="1.51321">
        <ele>173.14241027832</ele>
        <time>2021-03-15T19:54:33.705Z</time>
      </trkpt>
      <trkpt lat="44.49154" lon="1.51329">
        <ele>173.08009338379</ele>
        <time>2021-03-15T19:54:47.214Z</time>
      </trkpt>
      <trkpt lat="44.49144" lon="1.5133">
        <ele>173.54795837402</ele>
        <time>2021-03-15T19:55:00.726Z</time>
      </trkpt>
      <trkpt lat="44.49076" lon="1.5132">
        <ele>169.93740844727</ele>
        <time>2021-03-15T19:55:14.259Z</time>
      </trkpt>
      <trkpt lat="44.49068" lon="1.51317">
        <ele>168.74974060059</ele>
        <time>2021-03-15T19:55:27.795Z</time>
      </trkpt>
      <trkpt lat="44.49042" lon="1.51296">
        <ele>166.8002166748</ele>
        <time>2021-03-15T19:55:41.340Z</time>
      </trkpt>
      <trkpt lat="44.49019" lon="1.51267">
        <ele>165.05865478516</ele>
        <time>2021-03-15T19:55:54.895Z</time>
      </trkpt>
      <trkpt lat="44.49003" lon="1.51232">
        <ele>164.14640808105</ele>
        <time>2021-03-15T19:56:08.459Z</time>
      </trkpt>
      <trkpt lat="44.48996" lon="1.51177">
        <ele>166.74368286133</ele>
        <time>2021-03-15T19:56:22.035Z</time>
      </trkpt>
      <trkpt lat="44.48978" lon="1.5116">
        <ele>165.37606811523</ele>
        <time>2021-03-15T19:56:35.618Z</time>
      </trkpt>
      <trkpt lat="44.48963" lon="1.51157">
        <ele>165.68403625488</ele>
        <time>2021-03-15T19:56:49.205Z</time>
      </trkpt>
      <trkpt lat="44.48947" lon="1.51173">
        <ele>164.1349029541</ele>
        <time>2021-03-15T19:57:02.798Z</time>
      </trkpt>
      <trkpt lat="44.48934" lon="1.51183">
        <ele>163.79133605957</ele>
        <time>2021-03-15T19:57:16.396Z</time>
      </trkpt>
      <trkpt lat="44.48911" lon="1.51192">
        <ele>163.69270324707</ele>
        <time>2021-03-15T19:57:30.001Z</time>
      </trkpt>
      <trkpt lat="44.48887" lon="1.51207">
        <ele>162.24026489258</ele>
        <time>2021-03-15T19:57:43.614Z</time>
      </trkpt>
      <trkpt lat="44.4887" lon="1.51211">
        <ele>161.66442871094</ele>
        <time>2021-03-15T19:57:57.233Z</time>
      </trkpt>
      <trkpt lat="44.48865" lon="1.51209">
        <ele>161.95234680176</ele>
        <time>2021-03-15T19:58:10.853Z</time>
      </trkpt>
      <trkpt lat="44.48853" lon="1.51199">
        <ele>163.11141967773</ele>
        <time>2021-03-15T19:58:24.478Z</time>
      </trkpt>
      <trkpt lat="44.48843" lon="1.51105">
        <ele>172.05270385742</ele>
        <time>2021-03-15T19:58:38.124Z</time>
      </trkpt>
      <trkpt lat="44.48842" lon="1.51077">
        <ele>174.80111694336</ele>
        <time>2021-03-15T19:58:51.776Z</time>
      </trkpt>
      <trkpt lat="44.48848" lon="1.50985">
        <ele>182.35745239258</ele>
        <time>2021-03-15T19:59:05.448Z</time>
      </trkpt>
      <trkpt lat="44.48847" lon="1.50946">
        <ele>187.3314666748</ele>
        <time>2021-03-15T19:59:19.129Z</time>
      </trkpt>
      <trkpt lat="44.4883" lon="1.50853">
        <ele>192.98550415039</ele>
        <time>2021-03-15T19:59:32.831Z</time>
      </trkpt>
      <trkpt lat="44.48824" lon="1.50833">
        <ele>195.3921661377</ele>
        <time>2021-03-15T19:59:46.538Z</time>
      </trkpt>
      <trkpt lat="44.4882" lon="1.50825">
        <ele>195.68008422852</ele>
        <time>2021-03-15T20:00:00.247Z</time>
      </trkpt>
      <trkpt lat="44.48814" lon="1.5082">
        <ele>195.60810852051</ele>
        <time>2021-03-15T20:00:13.958Z</time>
      </trkpt>
      <trkpt lat="44.48807" lon="1.50819">
        <ele>195.17622375488</ele>
        <time>2021-03-15T20:00:27.671Z</time>
      </trkpt>
      <trkpt lat="44.48802" lon="1.50823">
        <ele>195.57261657715</ele>
        <time>2021-03-15T20:00:41.386Z</time>
      </trkpt>
      <trkpt lat="44.48799" lon="1.5085">
        <ele>193.12145996094</ele>
        <time>2021-03-15T20:00:55.107Z</time>
      </trkpt>
      <trkpt lat="44.48795" lon="1.50856">
        <ele>192.87408447266</ele>
        <time>2021-03-15T20:01:08.830Z</time>
      </trkpt>
      <trkpt lat="44.48788" lon="1.50862">
        <ele>192.81288146973</ele>
        <time>2021-03-15T20:01:22.555Z</time>
      </trkpt>
      <trkpt lat="44.48775" lon="1.50866">
        <ele>194.44692993164</ele>
        <time>2021-03-15T20:01:36.284Z</time>
      </trkpt>
      <trkpt lat="44.4877" lon="1.50876">
        <ele>195.3466796875</ele>
        <time>2021-03-15T20:01:50.016Z</time>
      </trkpt>
      <trkpt lat="44.48769" lon="1.50889">
        <ele>195.13073730469</ele>
        <time>2021-03-15T20:02:03.751Z</time>
      </trkpt>
      <trkpt lat="44.48776" lon="1.50912">
        <ele>193.36235046387</ele>
        <time>2021-03-15T20:02:17.491Z</time>
      </trkpt>
      <trkpt lat="44.48775" lon="1.50923">
        <ele>193.3955078125</ele>
        <time>2021-03-15T20:02:31.234Z</time>
      </trkpt>
      <trkpt lat="44.48771" lon="1.5093">
        <ele>194.15129089355</ele>
        <time>2021-03-15T20:02:44.979Z</time>
      </trkpt>
      <trkpt lat="44.48758" lon="1.50944">
        <ele>196.92251586914</ele>
        <time>2021-03-15T20:02:58.729Z</time>
      </trkpt>
      <trkpt lat="44.48753" lon="1.50953">
        <ele>197.91580200195</ele>
        <time>2021-03-15T20:03:12.481Z</time>
      </trkpt>
      <trkpt lat="44.48752" lon="1.5096">
        <ele>198.23971557617</ele>
        <time>2021-03-15T20:03:26.235Z</time>
      </trkpt>
      <trkpt lat="44.48755" lon="1.50993">
        <ele>197.26797485352</ele>
        <time>2021-03-15T20:03:39.996Z</time>
      </trkpt>
      <trkpt lat="44.48752" lon="1.51008">
        <ele>197.96179199219</ele>
        <time>2021-03-15T20:03:53.761Z</time>
      </trkpt>
      <trkpt lat="44.48734" lon="1.51045">
        <ele>201.24143981934</ele>
        <time>2021-03-15T20:04:07.536Z</time>
      </trkpt>
      <trkpt lat="44.48726" lon="1.51054">
        <ele>202.86097717285</ele>
        <time>2021-03-15T20:04:21.314Z</time>
      </trkpt>
      <trkpt lat="44.48676" lon="1.51088">
        <ele>209.11897277832</ele>
        <time>2021-03-15T20:04:35.109Z</time>
      </trkpt>
      <trkpt lat="44.48666" lon="1.51093">
        <ele>210.3572845459</ele>
        <time>2021-03-15T20:04:48.907Z</time>
      </trkpt>
      <trkpt lat="44.48615" lon="1.51106">
        <ele>213.22952270508</ele>
        <time>2021-03-15T20:05:02.721Z</time>
      </trkpt>
      <trkpt lat="44.48563" lon="1.51119">
        <ele>207.93740844727</ele>
        <time>2021-03-15T20:05:16.551Z</time>
      </trkpt>
      <trkpt lat="44.48554" lon="1.51116">
        <ele>207.88497924805</ele>
        <time>2021-03-15T20:05:30.384Z</time>
      </trkpt>
      <trkpt lat="44.48551" lon="1.51104">
        <ele>209.70513916016</ele>
        <time>2021-03-15T20:05:44.220Z</time>
      </trkpt>
      <trkpt lat="44.48554" lon="1.51098">
        <ele>211.64859008789</ele>
        <time>2021-03-15T20:05:58.058Z</time>
      </trkpt>
      <trkpt lat="44.48576" lon="1.51092">
        <ele>215.89335632324</ele>
        <time>2021-03-15T20:06:11.902Z</time>
      </trkpt>
      <trkpt lat="44.48593" lon="1.51083">
        <ele>219.15979003906</ele>
        <time>2021-03-15T20:06:25.752Z</time>
      </trkpt>
      <trkpt lat="44.48611" lon="1.51062">
        <ele>223.64204406738</ele>
        <time>2021-03-15T20:06:39.609Z</time>
      </trkpt>
      <trkpt lat="44.48632" lon="1.51013">
        <ele>226.10580444336</ele>
        <time>2021-03-15T20:06:53.479Z</time>
      </trkpt>
      <trkpt lat="44.48635" lon="1.51">
        <ele>227.51541137695</ele>
        <time>2021-03-15T20:07:07.352Z</time>
      </trkpt>
      <trkpt lat="44.48637" lon="1.50971">
        <ele>230.16246032715</ele>
        <time>2021-03-15T20:07:21.231Z</time>
      </trkpt>
      <trkpt lat="44.48632" lon="1.50906">
        <ele>232.42030334473</ele>
        <time>2021-03-15T20:07:35.125Z</time>
      </trkpt>
      <trkpt lat="44.48626" lon="1.5084">
        <ele>237.23837280273</ele>
        <time>2021-03-15T20:07:49.033Z</time>
      </trkpt>
      <trkpt lat="44.48613" lon="1.50781">
        <ele>247.96784973145</ele>
        <time>2021-03-15T20:08:02.955Z</time>
      </trkpt>
      <trkpt lat="44.48612" lon="1.50769">
        <ele>250.01950073242</ele>
        <time>2021-03-15T20:08:16.880Z</time>
      </trkpt>
      <trkpt lat="44.48619" lon="1.50743">
        <ele>251.99143981934</ele>
        <time>2021-03-15T20:08:30.811Z</time>
      </trkpt>
      <trkpt lat="44.48627" lon="1.50735">
        <ele>251.3938293457</ele>
        <time>2021-03-15T20:08:44.745Z</time>
      </trkpt>
      <trkpt lat="44.48658" lon="1.50716">
        <ele>249.6487121582</ele>
        <time>2021-03-15T20:08:58.689Z</time>
      </trkpt>
      <trkpt lat="44.48665" lon="1.50707">
        <ele>250.51702880859</ele>
        <time>2021-03-15T20:09:12.636Z</time>
      </trkpt>
      <trkpt lat="44.48674" lon="1.50693">
        <ele>250.74040222168</ele>
        <time>2021-03-15T20:09:26.587Z</time>
      </trkpt>
      <trkpt lat="44.48687" lon="1.50658">
        <ele>253.80355834961</ele>
        <time>2021-03-15T20:09:40.547Z</time>
      </trkpt>
      <trkpt lat="44.4869" lon="1.50634">
        <ele>256.09918212891</ele>
        <time>2021-03-15T20:09:54.512Z</time>
      </trkpt>
      <trkpt lat="44.48685" lon="1.50513">
        <ele>265.20678710938</ele>
        <time>2021-03-15T20:10:08.504Z</time>
      </trkpt>
      <trkpt lat="44.48687" lon="1.50453">
        <ele>270.89318847656</ele>
        <time>2021-03-15T20:10:22.509Z</time>
      </trkpt>
      <trkpt lat="44.48702" lon="1.50354">
        <ele>269.90341186523</ele>
        <time>2021-03-15T20:10:36.536Z</time>
      </trkpt>
      <trkpt lat="44.4871" lon="1.5032">
        <ele>270.88891601562</ele>
        <time>2021-03-15T20:10:50.571Z</time>
      </trkpt>
      <trkpt lat="44.4873" lon="1.50261">
        <ele>274.29025268555</ele>
        <time>2021-03-15T20:11:04.621Z</time>
      </trkpt>
      <trkpt lat="44.48749" lon="1.50202">
        <ele>277.41305541992</ele>
        <time>2021-03-15T20:11:18.685Z</time>
      </trkpt>
      <trkpt lat="44.48791" lon="1.5017">
        <ele>279.59875488281</ele>
        <time>2021-03-15T20:11:32.764Z</time>
      </trkpt>
      <trkpt lat="44.48833" lon="1.50137">
        <ele>284.34585571289</ele>
        <time>2021-03-15T20:11:46.858Z</time>
      </trkpt>
      <trkpt lat="44.48825" lon="1.5013">
        <ele>284.74172973633</ele>
        <time>2021-03-15T20:12:00.954Z</time>
      </trkpt>
      <trkpt lat="44.48796" lon="1.50117">
        <ele>284.03964233398</ele>
        <time>2021-03-15T20:12:15.060Z</time>
      </trkpt>
      <trkpt lat="44.48772" lon="1.50112">
        <ele>281.18621826172</ele>
        <time>2021-03-15T20:12:29.173Z</time>
      </trkpt>
      <trkpt lat="44.48735" lon="1.50111">
        <ele>275.90081787109</ele>
        <time>2021-03-15T20:12:43.298Z</time>
      </trkpt>
      <trkpt lat="44.48709" lon="1.50112">
        <ele>271.22143554688</ele>
        <time>2021-03-15T20:12:57.431Z</time>
      </trkpt>
      <trkpt lat="44.48657" lon="1.50121">
        <ele>262.03671264648</ele>
        <time>2021-03-15T20:13:11.580Z</time>
      </trkpt>
      <trkpt lat="44.48628" lon="1.50116">
        <ele>256.45825195312</ele>
        <time>2021-03-15T20:13:25.738Z</time>
      </trkpt>
      <trkpt lat="44.48603" lon="1.50105">
        <ele>252.99311828613</ele>
        <time>2021-03-15T20:13:39.904Z</time>
      </trkpt>
      <trkpt lat="44.48568" lon="1.50082">
        <ele>251.70213317871</ele>
        <time>2021-03-15T20:13:54.082Z</time>
      </trkpt>
      <trkpt lat="44.4851" lon="1.50035">
        <ele>250.66232299805</ele>
        <time>2021-03-15T20:14:08.280Z</time>
      </trkpt>
      <trkpt lat="44.48476" lon="1.4999">
        <ele>252.24426269531</ele>
        <time>2021-03-15T20:14:22.493Z</time>
      </trkpt>
      <trkpt lat="44.48441" lon="1.49944">
        <ele>245.80744934082</ele>
        <time>2021-03-15T20:14:36.721Z</time>
      </trkpt>
      <trkpt lat="44.48435" lon="1.49926">
        <ele>243.43209838867</ele>
        <time>2021-03-15T20:14:50.953Z</time>
      </trkpt>
      <trkpt lat="44.48436" lon="1.49899">
        <ele>241.28802490234</ele>
        <time>2021-03-15T20:15:05.191Z</time>
      </trkpt>
      <trkpt lat="44.48466" lon="1.49783">
        <ele>228.3063659668</ele>
        <time>2021-03-15T20:15:19.456Z</time>
      </trkpt>
      <trkpt lat="44.48466" lon="1.49762">
        <ele>224.96322631836</ele>
        <time>2021-03-15T20:15:33.726Z</time>
      </trkpt>
      <trkpt lat="44.48461" lon="1.49747">
        <ele>222.71685791016</ele>
        <time>2021-03-15T20:15:47.999Z</time>
      </trkpt>
      <trkpt lat="44.48487" lon="1.49691">
        <ele>221.49749755859</ele>
        <time>2021-03-15T20:16:02.287Z</time>
      </trkpt>
      <trkpt lat="44.48513" lon="1.49634">
        <ele>224.99989318848</ele>
        <time>2021-03-15T20:16:16.590Z</time>
      </trkpt>
      <trkpt lat="44.48524" lon="1.49586">
        <ele>229.02110290527</ele>
        <time>2021-03-15T20:16:30.904Z</time>
      </trkpt>
      <trkpt lat="44.48533" lon="1.49479">
        <ele>235.87370300293</ele>
        <time>2021-03-15T20:16:45.242Z</time>
      </trkpt>
      <trkpt lat="44.48542" lon="1.49441">
        <ele>238.63287353516</ele>
        <time>2021-03-15T20:16:59.589Z</time>
      </trkpt>
      <trkpt lat="44.48561" lon="1.4938">
        <ele>238.41777038574</ele>
        <time>2021-03-15T20:17:13.950Z</time>
      </trkpt>
      <trkpt lat="44.48579" lon="1.49319">
        <ele>236.63259887695</ele>
        <time>2021-03-15T20:17:28.326Z</time>
      </trkpt>
      <trkpt lat="44.48583" lon="1.49284">
        <ele>236.77967834473</ele>
        <time>2021-03-15T20:17:42.710Z</time>
      </trkpt>
      <trkpt lat="44.48579" lon="1.49267">
        <ele>238.28381347656</ele>
        <time>2021-03-15T20:17:57.098Z</time>
      </trkpt>
      <trkpt lat="44.48559" lon="1.4921">
        <ele>245.57315063477</ele>
        <time>2021-03-15T20:18:11.500Z</time>
      </trkpt>
      <trkpt lat="44.48539" lon="1.49153">
        <ele>249.86920166016</ele>
        <time>2021-03-15T20:18:25.916Z</time>
      </trkpt>
      <trkpt lat="44.48532" lon="1.49065">
        <ele>253.50003051758</ele>
        <time>2021-03-15T20:18:40.351Z</time>
      </trkpt>
      <trkpt lat="44.48512" lon="1.4899">
        <ele>259.04971313477</ele>
        <time>2021-03-15T20:18:54.804Z</time>
      </trkpt>
      <trkpt lat="44.485" lon="1.48962">
        <ele>262.47546386719</ele>
        <time>2021-03-15T20:19:09.264Z</time>
      </trkpt>
      <trkpt lat="44.4849" lon="1.48946">
        <ele>264.73385620117</ele>
        <time>2021-03-15T20:19:23.729Z</time>
      </trkpt>
      <trkpt lat="44.48475" lon="1.4893">
        <ele>268.05581665039</ele>
        <time>2021-03-15T20:19:38.199Z</time>
      </trkpt>
      <trkpt lat="44.48464" lon="1.48923">
        <ele>270.40933227539</ele>
        <time>2021-03-15T20:19:52.673Z</time>
      </trkpt>
      <trkpt lat="44.48441" lon="1.48912">
        <ele>275.05114746094</ele>
        <time>2021-03-15T20:20:07.155Z</time>
      </trkpt>
      <trkpt lat="44.48426" lon="1.48901">
        <ele>278.06158447266</ele>
        <time>2021-03-15T20:20:21.642Z</time>
      </trkpt>
      <trkpt lat="44.48406" lon="1.48881">
        <ele>282.82739257812</ele>
        <time>2021-03-15T20:20:36.136Z</time>
      </trkpt>
      <trkpt lat="44.48395" lon="1.48873">
        <ele>284.77084350586</ele>
        <time>2021-03-15T20:20:50.634Z</time>
      </trkpt>
      <trkpt lat="44.48388" lon="1.48873">
        <ele>285.33822631836</ele>
        <time>2021-03-15T20:21:05.134Z</time>
      </trkpt>
      <trkpt lat="44.48382" lon="1.48875">
        <ele>286.34594726562</ele>
        <time>2021-03-15T20:21:19.636Z</time>
      </trkpt>
      <trkpt lat="44.48365" lon="1.48943">
        <ele>286.55145263672</ele>
        <time>2021-03-15T20:21:34.154Z</time>
      </trkpt>
      <trkpt lat="44.48346" lon="1.48995">
        <ele>290.27981567383</ele>
        <time>2021-03-15T20:21:48.685Z</time>
      </trkpt>
      <trkpt lat="44.48341" lon="1.49002">
        <ele>290.99362182617</ele>
        <time>2021-03-15T20:22:03.218Z</time>
      </trkpt>
      <trkpt lat="44.48353" lon="1.49099">
        <ele>294.5510559082</ele>
        <time>2021-03-15T20:22:17.773Z</time>
      </trkpt>
      <trkpt lat="44.48347" lon="1.49112">
        <ele>295.02383422852</ele>
        <time>2021-03-15T20:22:32.331Z</time>
      </trkpt>
      <trkpt lat="44.48337" lon="1.49118">
        <ele>295.85137939453</ele>
        <time>2021-03-15T20:22:46.893Z</time>
      </trkpt>
      <trkpt lat="44.48322" lon="1.49136">
        <ele>295.70413208008</ele>
        <time>2021-03-15T20:23:01.461Z</time>
      </trkpt>
      <trkpt lat="44.48315" lon="1.4914">
        <ele>295.30825805664</ele>
        <time>2021-03-15T20:23:16.031Z</time>
      </trkpt>
      <trkpt lat="44.48307" lon="1.49137">
        <ele>295.12829589844</ele>
        <time>2021-03-15T20:23:30.603Z</time>
      </trkpt>
      <trkpt lat="44.48294" lon="1.49126">
        <ele>294.25842285156</ele>
        <time>2021-03-15T20:23:45.180Z</time>
      </trkpt>
      <trkpt lat="44.48285" lon="1.49077">
        <ele>294.83142089844</ele>
        <time>2021-03-15T20:23:59.768Z</time>
      </trkpt>
      <trkpt lat="44.48283" lon="1.49042">
        <ele>294.88876342773</ele>
        <time>2021-03-15T20:24:14.364Z</time>
      </trkpt>
      <trkpt lat="44.4829" lon="1.48968">
        <ele>296.42504882812</ele>
        <time>2021-03-15T20:24:28.976Z</time>
      </trkpt>
      <trkpt lat="44.48292" lon="1.48925">
        <ele>301.06774902344</ele>
        <time>2021-03-15T20:24:43.598Z</time>
      </trkpt>
      <trkpt lat="44.48292" lon="1.48881">
        <ele>304.81845092773</ele>
        <time>2021-03-15T20:24:58.230Z</time>
      </trkpt>
      <trkpt lat="44.4829" lon="1.48866">
        <ele>305.89846801758</ele>
        <time>2021-03-15T20:25:12.865Z</time>
      </trkpt>
      <trkpt lat="44.4831" lon="1.48758">
        <ele>308.1155090332</ele>
        <time>2021-03-15T20:25:27.525Z</time>
      </trkpt>
      <trkpt lat="44.48306" lon="1.48718">
        <ele>309.79495239258</ele>
        <time>2021-03-15T20:25:42.194Z</time>
      </trkpt>
      <trkpt lat="44.48315" lon="1.48616">
        <ele>303.73651123047</ele>
        <time>2021-03-15T20:25:56.885Z</time>
      </trkpt>
      <trkpt lat="44.48327" lon="1.48537">
        <ele>300.50152587891</ele>
        <time>2021-03-15T20:26:11.594Z</time>
      </trkpt>
      <trkpt lat="44.48327" lon="1.48504">
        <ele>297.42050170898</ele>
        <time>2021-03-15T20:26:26.310Z</time>
      </trkpt>
      <trkpt lat="44.48316" lon="1.48435">
        <ele>287.10113525391</ele>
        <time>2021-03-15T20:26:41.042Z</time>
      </trkpt>
      <trkpt lat="44.48304" lon="1.48386">
        <ele>281.63882446289</ele>
        <time>2021-03-15T20:26:55.785Z</time>
      </trkpt>
      <trkpt lat="44.48288" lon="1.48337">
        <ele>276.22283935547</ele>
        <time>2021-03-15T20:27:10.540Z</time>
      </trkpt>
      <trkpt lat="44.48265" lon="1.483">
        <ele>271.67202758789</ele>
        <time>2021-03-15T20:27:25.306Z</time>
      </trkpt>
      <trkpt lat="44.48225" lon="1.4827">
        <ele>268.49819946289</ele>
        <time>2021-03-15T20:27:40.086Z</time>
      </trkpt>
      <trkpt lat="44.4821" lon="1.48255">
        <ele>267.95834350586</ele>
        <time>2021-03-15T20:27:54.871Z</time>
      </trkpt>
      <trkpt lat="44.48133" lon="1.48211">
        <ele>267.57888793945</ele>
        <time>2021-03-15T20:28:09.682Z</time>
      </trkpt>
      <trkpt lat="44.48123" lon="1.48203">
        <ele>267.79483032227</ele>
        <time>2021-03-15T20:28:24.497Z</time>
      </trkpt>
      <trkpt lat="44.48059" lon="1.48168">
        <ele>259.478515625</ele>
        <time>2021-03-15T20:28:39.333Z</time>
      </trkpt>
      <trkpt lat="44.47995" lon="1.48132">
        <ele>256.73040771484</ele>
        <time>2021-03-15T20:28:54.190Z</time>
      </trkpt>
      <trkpt lat="44.47964" lon="1.48131">
        <ele>260.89852905273</ele>
        <time>2021-03-15T20:29:09.057Z</time>
      </trkpt>
      <trkpt lat="44.47923" lon="1.4812">
        <ele>265.07363891602</ele>
        <time>2021-03-15T20:29:23.936Z</time>
      </trkpt>
      <trkpt lat="44.47909" lon="1.48121">
        <ele>265.50552368164</ele>
        <time>2021-03-15T20:29:38.820Z</time>
      </trkpt>
      <trkpt lat="44.47877" lon="1.4813">
        <ele>264.69296264648</ele>
        <time>2021-03-15T20:29:53.714Z</time>
      </trkpt>
      <trkpt lat="44.4785" lon="1.48145">
        <ele>260.23159790039</ele>
        <time>2021-03-15T20:30:08.617Z</time>
      </trkpt>
      <trkpt lat="44.47822" lon="1.48165">
        <ele>257.28363037109</ele>
        <time>2021-03-15T20:30:23.529Z</time>
      </trkpt>
      <trkpt lat="44.47784" lon="1.48167">
        <ele>257.37100219727</ele>
        <time>2021-03-15T20:30:38.453Z</time>
      </trkpt>
      <trkpt lat="44.47757" lon="1.48175">
        <ele>253.41738891602</ele>
        <time>2021-03-15T20:30:53.386Z</time>
      </trkpt>
      <trkpt lat="44.47745" lon="1.48175">
        <ele>251.41543579102</ele>
        <time>2021-03-15T20:31:08.322Z</time>
      </trkpt>
      <trkpt lat="44.47678" lon="1.48163">
        <ele>249.47909545898</ele>
        <time>2021-03-15T20:31:23.279Z</time>
      </trkpt>
      <trkpt lat="44.47665" lon="1.48159">
        <ele>250.52146911621</ele>
        <time>2021-03-15T20:31:38.240Z</time>
      </trkpt>
      <trkpt lat="44.47621" lon="1.48127">
        <ele>249.4049987793</ele>
        <time>2021-03-15T20:31:53.216Z</time>
      </trkpt>
      <trkpt lat="44.47604" lon="1.48118">
        <ele>249.29702758789</ele>
        <time>2021-03-15T20:32:08.198Z</time>
      </trkpt>
      <trkpt lat="44.47575" lon="1.48111">
        <ele>251.16256713867</ele>
        <time>2021-03-15T20:32:23.189Z</time>
      </trkpt>
      <trkpt lat="44.47561" lon="1.481">
        <ele>251.5944519043</ele>
        <time>2021-03-15T20:32:38.185Z</time>
      </trkpt>
      <trkpt lat="44.47549" lon="1.48096">
        <ele>252.95762634277</ele>
        <time>2021-03-15T20:32:53.185Z</time>
      </trkpt>
      <trkpt lat="44.47537" lon="1.48109">
        <ele>256.40222167969</ele>
        <time>2021-03-15T20:33:08.189Z</time>
      </trkpt>
      <trkpt lat="44.47517" lon="1.48111">
        <ele>258.74124145508</ele>
        <time>2021-03-15T20:33:23.200Z</time>
      </trkpt>
      <trkpt lat="44.47493" lon="1.48117">
        <ele>260.68859863281</ele>
        <time>2021-03-15T20:33:38.218Z</time>
      </trkpt>
      <trkpt lat="44.47485" lon="1.48113">
        <ele>260.68859863281</ele>
        <time>2021-03-15T20:33:53.239Z</time>
      </trkpt>
      <trkpt lat="44.47474" lon="1.48115">
        <ele>261.22842407227</ele>
        <time>2021-03-15T20:34:08.263Z</time>
      </trkpt>
      <trkpt lat="44.47464" lon="1.48109">
        <ele>260.44387817383</ele>
        <time>2021-03-15T20:34:23.291Z</time>
      </trkpt>
      <trkpt lat="44.47466" lon="1.48105">
        <ele>259.70748901367</ele>
        <time>2021-03-15T20:34:38.320Z</time>
      </trkpt>
      <trkpt lat="44.47484" lon="1.48051">
        <ele>251.03121948242</ele>
        <time>2021-03-15T20:34:53.362Z</time>
      </trkpt>
      <trkpt lat="44.47485" lon="1.48035">
        <ele>248.05914306641</ele>
        <time>2021-03-15T20:35:08.407Z</time>
      </trkpt>
      <trkpt lat="44.47482" lon="1.4802">
        <ele>244.68725585938</ele>
        <time>2021-03-15T20:35:23.456Z</time>
      </trkpt>
      <trkpt lat="44.47489" lon="1.47987">
        <ele>240.1643371582</ele>
        <time>2021-03-15T20:35:38.512Z</time>
      </trkpt>
      <trkpt lat="44.47498" lon="1.47972">
        <ele>239.73246765137</ele>
        <time>2021-03-15T20:35:53.573Z</time>
      </trkpt>
      <trkpt lat="44.47509" lon="1.47935">
        <ele>236.03324890137</ele>
        <time>2021-03-15T20:36:08.642Z</time>
      </trkpt>
      <trkpt lat="44.47509" lon="1.47935">
        <ele>236.03308105469</ele>
        <time>2021-03-15T20:36:23.711Z</time>
      </trkpt>
      <trkpt lat="44.47509" lon="1.47935">
        <ele>236.10932922363</ele>
        <time>2021-03-15T20:36:38.781Z</time>
      </trkpt>
      <trkpt lat="44.47522" lon="1.47893">
        <ele>237.38815307617</ele>
        <time>2021-03-15T20:36:53.861Z</time>
      </trkpt>
      <trkpt lat="44.47541" lon="1.47865">
        <ele>239.04895019531</ele>
        <time>2021-03-15T20:37:08.949Z</time>
      </trkpt>
      <trkpt lat="44.47553" lon="1.47813">
        <ele>243.96421813965</ele>
        <time>2021-03-15T20:37:24.049Z</time>
      </trkpt>
      <trkpt lat="44.47553" lon="1.47813">
        <ele>243.96633911133</ele>
        <time>2021-03-15T20:37:39.149Z</time>
      </trkpt>
      <trkpt lat="44.47578" lon="1.47749">
        <ele>248.46333312988</ele>
        <time>2021-03-15T20:37:54.265Z</time>
      </trkpt>
      <trkpt lat="44.47577" lon="1.47695">
        <ele>249.45947265625</ele>
        <time>2021-03-15T20:38:09.393Z</time>
      </trkpt>
      <trkpt lat="44.4757" lon="1.47662">
        <ele>245.57438659668</ele>
        <time>2021-03-15T20:38:24.529Z</time>
      </trkpt>
      <trkpt lat="44.47585" lon="1.4763">
        <ele>246.98727416992</ele>
        <time>2021-03-15T20:38:39.673Z</time>
      </trkpt>
      <trkpt lat="44.47595" lon="1.47563">
        <ele>237.88247680664</ele>
        <time>2021-03-15T20:38:54.832Z</time>
      </trkpt>
      <trkpt lat="44.47596" lon="1.47507">
        <ele>230.22088623047</ele>
        <time>2021-03-15T20:39:10.004Z</time>
      </trkpt>
      <trkpt lat="44.47583" lon="1.47448">
        <ele>221.26948547363</ele>
        <time>2021-03-15T20:39:25.189Z</time>
      </trkpt>
      <trkpt lat="44.47577" lon="1.4734">
        <ele>208.0290222168</ele>
        <time>2021-03-15T20:39:40.398Z</time>
      </trkpt>
      <trkpt lat="44.47594" lon="1.47234">
        <ele>205.7211151123</ele>
        <time>2021-03-15T20:39:55.631Z</time>
      </trkpt>
      <trkpt lat="44.47611" lon="1.47183">
        <ele>202.41860961914</ele>
        <time>2021-03-15T20:40:10.877Z</time>
      </trkpt>
      <trkpt lat="44.47607" lon="1.47145">
        <ele>192.67083740234</ele>
        <time>2021-03-15T20:40:26.131Z</time>
      </trkpt>
      <trkpt lat="44.47598" lon="1.47095">
        <ele>177.37368774414</ele>
        <time>2021-03-15T20:40:41.396Z</time>
      </trkpt>
      <trkpt lat="44.47584" lon="1.47088">
        <ele>172.74012756348</ele>
        <time>2021-03-15T20:40:56.666Z</time>
      </trkpt>
      <trkpt lat="44.47584" lon="1.47058">
        <ele>164.28973388672</ele>
        <time>2021-03-15T20:41:11.942Z</time>
      </trkpt>
      <trkpt lat="44.47542" lon="1.47022">
        <ele>140.78601074219</ele>
        <time>2021-03-15T20:41:27.234Z</time>
      </trkpt>
      <trkpt lat="44.47547" lon="1.47048">
        <ele>146.90773010254</ele>
        <time>2021-03-15T20:41:42.532Z</time>
      </trkpt>
      <trkpt lat="44.47519" lon="1.47112">
        <ele>137.38566589355</ele>
        <time>2021-03-15T20:41:57.846Z</time>
      </trkpt>
      <trkpt lat="44.47522" lon="1.47055">
        <ele>135.08818054199</ele>
        <time>2021-03-15T20:42:13.173Z</time>
      </trkpt>
      <trkpt lat="44.47522" lon="1.47055">
        <ele>135.09158325195</ele>
        <time>2021-03-15T20:42:28.500Z</time>
      </trkpt>
      <trkpt lat="44.4753" lon="1.46934">
        <ele>124.27059173584</ele>
        <time>2021-03-15T20:42:43.853Z</time>
      </trkpt>
      <trkpt lat="44.47535" lon="1.46882">
        <ele>119.34867095947</ele>
        <time>2021-03-15T20:42:59.218Z</time>
      </trkpt>
      <trkpt lat="44.47535" lon="1.46882">
        <ele>119.34927368164</ele>
        <time>2021-03-15T20:43:14.583Z</time>
      </trkpt>
      <trkpt lat="44.47535" lon="1.46882">
        <ele>119.34867095947</ele>
        <time>2021-03-15T20:43:29.948Z</time>
      </trkpt>
      <trkpt lat="44.47523" lon="1.46881">
        <ele>118.74662017822</ele>
        <time>2021-03-15T20:43:45.317Z</time>
      </trkpt>
      <trkpt lat="44.47521" lon="1.4687">
        <ele>118.3604888916</ele>
        <time>2021-03-15T20:44:00.688Z</time>
      </trkpt>
      <trkpt lat="44.47517" lon="1.46843">
        <ele>118.23014068604</ele>
        <time>2021-03-15T20:44:16.065Z</time>
      </trkpt>
      <trkpt lat="44.47516" lon="1.46832">
        <ele>118.61656951904</ele>
        <time>2021-03-15T20:44:31.445Z</time>
      </trkpt>
      <trkpt lat="44.4751" lon="1.46808">
        <ele>119.27299499512</ele>
        <time>2021-03-15T20:44:46.830Z</time>
      </trkpt>
      <trkpt lat="44.47506" lon="1.4679">
        <ele>120.31046295166</ele>
        <time>2021-03-15T20:45:02.219Z</time>
      </trkpt>
      <trkpt lat="44.47496" lon="1.46732">
        <ele>123.80780029297</ele>
        <time>2021-03-15T20:45:17.621Z</time>
      </trkpt>
      <trkpt lat="44.47496" lon="1.46632">
        <ele>127.24365234375</ele>
        <time>2021-03-15T20:45:33.045Z</time>
      </trkpt>
      <trkpt lat="44.47494" lon="1.46543">
        <ele>127.09887695312</ele>
        <time>2021-03-15T20:45:48.489Z</time>
      </trkpt>
      <trkpt lat="44.47478" lon="1.46379">
        <ele>124.38617706299</ele>
        <time>2021-03-15T20:46:03.970Z</time>
      </trkpt>
      <trkpt lat="44.47463" lon="1.46282">
        <ele>120.86250305176</ele>
        <time>2021-03-15T20:46:19.472Z</time>
      </trkpt>
      <trkpt lat="44.4743" lon="1.46178">
        <ele>120.02841949463</ele>
        <time>2021-03-15T20:46:34.999Z</time>
      </trkpt>
      <trkpt lat="44.47206" lon="1.45605">
        <ele>114.1643371582</ele>
        <time>2021-03-15T20:46:50.670Z</time>
      </trkpt>
      <trkpt lat="44.46861" lon="1.44899">
        <ele>117.57174682617</ele>
        <time>2021-03-15T20:47:06.530Z</time>
      </trkpt>
      <trkpt lat="44.46758" lon="1.44634">
        <ele>116.43502807617</ele>
        <time>2021-03-15T20:47:22.456Z</time>
      </trkpt>
      <trkpt lat="44.46743" lon="1.44603">
        <ele>116.77104187012</ele>
        <time>2021-03-15T20:47:38.390Z</time>
      </trkpt>
      <trkpt lat="44.46716" lon="1.44584">
        <ele>115.63987731934</ele>
        <time>2021-03-15T20:47:54.334Z</time>
      </trkpt>
      <trkpt lat="44.46711" lon="1.44574">
        <ele>115.25374603271</ele>
        <time>2021-03-15T20:48:10.280Z</time>
      </trkpt>
      <trkpt lat="44.46614" lon="1.44246">
        <ele>113.15169525146</ele>
        <time>2021-03-15T20:48:26.304Z</time>
      </trkpt>
      <trkpt lat="44.46514" lon="1.44004">
        <ele>130.07559204102</ele>
        <time>2021-03-15T20:48:42.390Z</time>
      </trkpt>
      <trkpt lat="44.46428" lon="1.43946">
        <ele>134.24951171875</ele>
        <time>2021-03-15T20:48:58.506Z</time>
      </trkpt>
      <trkpt lat="44.46276" lon="1.43905">
        <ele>135.05653381348</ele>
        <time>2021-03-15T20:49:14.669Z</time>
      </trkpt>
      <trkpt lat="44.46255" lon="1.43894">
        <ele>135.86027526855</ele>
        <time>2021-03-15T20:49:30.839Z</time>
      </trkpt>
      <trkpt lat="44.46245" lon="1.43891">
        <ele>135.63011169434</ele>
        <time>2021-03-15T20:49:47.012Z</time>
      </trkpt>
      <trkpt lat="44.46241" lon="1.43896">
        <ele>132.34648132324</ele>
        <time>2021-03-15T20:50:03.187Z</time>
      </trkpt>
      <trkpt lat="44.46194" lon="1.43887">
        <ele>132.35287475586</ele>
        <time>2021-03-15T20:50:19.377Z</time>
      </trkpt>
      <trkpt lat="44.46077" lon="1.43875">
        <ele>138.91969299316</ele>
        <time>2021-03-15T20:50:35.603Z</time>
      </trkpt>
      <trkpt lat="44.45821" lon="1.43872">
        <ele>128.0690612793</ele>
        <time>2021-03-15T20:50:51.908Z</time>
      </trkpt>
      <trkpt lat="44.45681" lon="1.4388">
        <ele>127.93593597412</ele>
        <time>2021-03-15T20:51:08.255Z</time>
      </trkpt>
      <trkpt lat="44.45681" lon="1.4388">
        <ele>127.93774414062</ele>
        <time>2021-03-15T20:51:24.602Z</time>
      </trkpt>
      <trkpt lat="44.45514" lon="1.43927">
        <ele>127.65787506104</ele>
        <time>2021-03-15T20:51:41.002Z</time>
      </trkpt>
      <trkpt lat="44.45377" lon="1.44012">
        <ele>131.41659545898</ele>
        <time>2021-03-15T20:51:57.448Z</time>
      </trkpt>
      <trkpt lat="44.45377" lon="1.44012">
        <ele>131.41688537598</ele>
        <time>2021-03-15T20:52:13.894Z</time>
      </trkpt>
      <trkpt lat="44.45311" lon="1.44059">
        <ele>128.18899536133</ele>
        <time>2021-03-15T20:52:30.363Z</time>
      </trkpt>
      <trkpt lat="44.45311" lon="1.44059">
        <ele>128.19081115723</ele>
        <time>2021-03-15T20:52:46.832Z</time>
      </trkpt>
      <trkpt lat="44.45085" lon="1.44246">
        <ele>124.99536132812</ele>
        <time>2021-03-15T20:53:03.382Z</time>
      </trkpt>
      <trkpt lat="44.45024" lon="1.44276">
        <ele>125.10234832764</ele>
        <time>2021-03-15T20:53:19.951Z</time>
      </trkpt>
      <trkpt lat="44.44949" lon="1.44308">
        <ele>123.29653930664</ele>
        <time>2021-03-15T20:53:36.545Z</time>
      </trkpt>
      <trkpt lat="44.44874" lon="1.44339">
        <ele>119.9342880249</ele>
        <time>2021-03-15T20:53:53.163Z</time>
      </trkpt>
      <trkpt lat="44.44875" lon="1.44347">
        <ele>119.35508728027</ele>
        <time>2021-03-15T20:54:09.782Z</time>
      </trkpt>
      <trkpt lat="44.44912" lon="1.44507">
        <ele>115.71899414062</ele>
        <time>2021-03-15T20:54:26.438Z</time>
      </trkpt>
      <trkpt lat="44.44913" lon="1.44512">
        <ele>116.06620788574</ele>
        <time>2021-03-15T20:54:43.096Z</time>
      </trkpt>
      <trkpt lat="44.44913" lon="1.44512">
        <ele>116.06651306152</ele>
        <time>2021-03-15T20:54:59.754Z</time>
      </trkpt>
      <trkpt lat="44.44914" lon="1.44517">
        <ele>116.41403198242</ele>
        <time>2021-03-15T20:55:16.413Z</time>
      </trkpt>
      <trkpt lat="44.44926" lon="1.44567">
        <ele>118.83289337158</ele>
        <time>2021-03-15T20:55:33.083Z</time>
      </trkpt>
      <trkpt lat="44.44914" lon="1.44517">
        <ele>116.41403198242</ele>
        <time>2021-03-15T20:55:49.765Z</time>
      </trkpt>
      <trkpt lat="44.44913" lon="1.44512">
        <ele>116.06651306152</ele>
        <time>2021-03-15T20:56:06.448Z</time>
      </trkpt>
      <trkpt lat="44.44913" lon="1.44512">
        <ele>116.06620788574</ele>
        <time>2021-03-15T20:56:23.131Z</time>
      </trkpt>
      <trkpt lat="44.44912" lon="1.44507">
        <ele>115.71899414062</ele>
        <time>2021-03-15T20:56:39.815Z</time>
      </trkpt>
      <trkpt lat="44.44911" lon="1.44502">
        <ele>115.43211364746</ele>
        <time>2021-03-15T20:56:56.500Z</time>
      </trkpt>
      <trkpt lat="44.44911" lon="1.44502">
        <ele>115.43361663818</ele>
        <time>2021-03-15T17:26:22.000Z</time>
      </trkpt>
      <trkpt lat="44.44911" lon="1.44502">
        <ele>115.43361663818</ele>
        <time>2021-03-15T17:26:22.000Z</time>
      </trkpt>
      <trkpt lat="44.44912" lon="1.44507">
        <ele>115.71899414062</ele>
        <time>2021-03-15T17:26:22.001Z</time>
      </trkpt>
      <trkpt lat="44.44913" lon="1.44512">
        <ele>116.06620788574</ele>
        <time>2021-03-15T17:26:22.003Z</time>
      </trkpt>
      <trkpt lat="44.44913" lon="1.44512">
        <ele>116.06651306152</ele>
        <time>2021-03-15T17:26:22.005Z</time>
      </trkpt>
      <trkpt lat="44.44914" lon="1.44517">
        <ele>116.41403198242</ele>
        <time>2021-03-15T17:26:22.008Z</time>
      </trkpt>
      <trkpt lat="44.44926" lon="1.44567">
        <ele>118.83289337158</ele>
        <time>2021-03-15T17:26:22.023Z</time>
      </trkpt>
      <trkpt lat="44.44926" lon="1.44599">
        <ele>119.61658477783</ele>
        <time>2021-03-15T17:26:22.045Z</time>
      </trkpt>
      <trkpt lat="44.44927" lon="1.44659">
        <ele>119.22107696533</ele>
        <time>2021-03-15T17:26:22.080Z</time>
      </trkpt>
      <trkpt lat="44.44938" lon="1.44745">
        <ele>119.79974365234</ele>
        <time>2021-03-15T17:26:22.135Z</time>
      </trkpt>
      <trkpt lat="44.44942" lon="1.44785">
        <ele>120.29665374756</ele>
        <time>2021-03-15T17:26:22.198Z</time>
      </trkpt>
      <trkpt lat="44.44947" lon="1.44847">
        <ele>123.75559234619</ele>
        <time>2021-03-15T17:26:22.275Z</time>
      </trkpt>
      <trkpt lat="44.44946" lon="1.44853">
        <ele>124.41201019287</ele>
        <time>2021-03-15T17:26:22.354Z</time>
      </trkpt>
      <trkpt lat="44.44936" lon="1.44895">
        <ele>128.61685180664</ele>
        <time>2021-03-15T17:26:22.442Z</time>
      </trkpt>
      <trkpt lat="44.44868" lon="1.45137">
        <ele>140.88522338867</ele>
        <time>2021-03-15T17:26:22.588Z</time>
      </trkpt>
      <trkpt lat="44.44842" lon="1.452">
        <ele>143.44610595703</ele>
        <time>2021-03-15T17:26:22.750Z</time>
      </trkpt>
      <trkpt lat="44.44842" lon="1.452">
        <ele>143.44549560547</ele>
        <time>2021-03-15T17:26:22.912Z</time>
      </trkpt>
      <trkpt lat="44.448" lon="1.45303">
        <ele>144.80374145508</ele>
        <time>2021-03-15T17:26:23.100Z</time>
      </trkpt>
      <trkpt lat="44.44765" lon="1.45417">
        <ele>147.37106323242</ele>
        <time>2021-03-15T17:26:23.315Z</time>
      </trkpt>
      <trkpt lat="44.44745" lon="1.45415">
        <ele>149.67492675781</ele>
        <time>2021-03-15T17:26:23.536Z</time>
      </trkpt>
      <trkpt lat="44.44713" lon="1.45463">
        <ele>153.73609924316</ele>
        <time>2021-03-15T17:26:23.771Z</time>
      </trkpt>
      <trkpt lat="44.44633" lon="1.45642">
        <ele>158.96369934082</ele>
        <time>2021-03-15T17:26:24.053Z</time>
      </trkpt>
      <trkpt lat="44.44632" lon="1.45854">
        <ele>177.23170471191</ele>
        <time>2021-03-15T17:26:24.382Z</time>
      </trkpt>
      <trkpt lat="44.44632" lon="1.45854">
        <ele>177.2299041748</ele>
        <time>2021-03-15T17:26:24.711Z</time>
      </trkpt>
      <trkpt lat="44.44632" lon="1.45859">
        <ele>177.23170471191</ele>
        <time>2021-03-15T17:26:25.041Z</time>
      </trkpt>
      <trkpt lat="44.44523" lon="1.45991">
        <ele>203.92153930664</ele>
        <time>2021-03-15T17:26:25.415Z</time>
      </trkpt>
      <trkpt lat="44.44498" lon="1.46032">
        <ele>207.80252075195</ele>
        <time>2021-03-15T17:26:25.801Z</time>
      </trkpt>
      <trkpt lat="44.44457" lon="1.4617">
        <ele>227.73071289062</ele>
        <time>2021-03-15T17:26:26.220Z</time>
      </trkpt>
      <trkpt lat="44.44464" lon="1.46243">
        <ele>240.40130615234</ele>
        <time>2021-03-15T17:26:26.655Z</time>
      </trkpt>
      <trkpt lat="44.44463" lon="1.46266">
        <ele>245.19284057617</ele>
        <time>2021-03-15T17:26:27.095Z</time>
      </trkpt>
      <trkpt lat="44.44456" lon="1.46281">
        <ele>247.89575195312</ele>
        <time>2021-03-15T17:26:27.539Z</time>
      </trkpt>
      <trkpt lat="44.4444" lon="1.4628">
        <ele>247.44816589355</ele>
        <time>2021-03-15T17:26:27.988Z</time>
      </trkpt>
      <trkpt lat="44.44396" lon="1.46247">
        <ele>252.08032226562</ele>
        <time>2021-03-15T17:26:28.453Z</time>
      </trkpt>
      <trkpt lat="44.4436" lon="1.46289">
        <ele>263.81256103516</ele>
        <time>2021-03-15T17:26:28.932Z</time>
      </trkpt>
      <trkpt lat="44.44341" lon="1.46306">
        <ele>265.76943969727</ele>
        <time>2021-03-15T17:26:29.418Z</time>
      </trkpt>
      <trkpt lat="44.4433" lon="1.4634">
        <ele>268.28561401367</ele>
        <time>2021-03-15T17:26:29.912Z</time>
      </trkpt>
      <trkpt lat="44.44345" lon="1.46336">
        <ele>267.51498413086</ele>
        <time>2021-03-15T17:26:30.411Z</time>
      </trkpt>
      <trkpt lat="44.44359" lon="1.46342">
        <ele>267.01300048828</ele>
        <time>2021-03-15T17:26:30.915Z</time>
      </trkpt>
      <trkpt lat="44.44402" lon="1.46399">
        <ele>265.18130493164</ele>
        <time>2021-03-15T17:26:31.437Z</time>
      </trkpt>
      <trkpt lat="44.4437" lon="1.46405">
        <ele>264.7951965332</ele>
        <time>2021-03-15T17:26:31.969Z</time>
      </trkpt>
      <trkpt lat="44.44249" lon="1.46493">
        <ele>266.44296264648</ele>
        <time>2021-03-15T17:26:32.543Z</time>
      </trkpt>
      <trkpt lat="44.442" lon="1.46586">
        <ele>264.92718505859</ele>
        <time>2021-03-15T17:26:33.142Z</time>
      </trkpt>
      <trkpt lat="44.44189" lon="1.46673">
        <ele>262.35427856445</ele>
        <time>2021-03-15T17:26:33.761Z</time>
      </trkpt>
      <trkpt lat="44.44181" lon="1.46695">
        <ele>262.62457275391</ele>
        <time>2021-03-15T17:26:34.385Z</time>
      </trkpt>
      <trkpt lat="44.44164" lon="1.46713">
        <ele>265.20294189453</ele>
        <time>2021-03-15T17:26:35.016Z</time>
      </trkpt>
      <trkpt lat="44.44161" lon="1.46735">
        <ele>265.78063964844</ele>
        <time>2021-03-15T17:26:35.652Z</time>
      </trkpt>
      <trkpt lat="44.44165" lon="1.46756">
        <ele>265.00988769531</ele>
        <time>2021-03-15T17:26:36.292Z</time>
      </trkpt>
      <trkpt lat="44.44163" lon="1.4682">
        <ele>266.15841674805</ele>
        <time>2021-03-15T17:26:36.947Z</time>
      </trkpt>
      <trkpt lat="44.4413" lon="1.46863">
        <ele>266.55181884766</ele>
        <time>2021-03-15T17:26:37.616Z</time>
      </trkpt>
      <trkpt lat="44.4413" lon="1.46863">
        <ele>266.55242919922</ele>
        <time>2021-03-15T17:26:38.285Z</time>
      </trkpt>
      <trkpt lat="44.44107" lon="1.46886">
        <ele>265.29479980469</ele>
        <time>2021-03-15T17:26:38.962Z</time>
      </trkpt>
      <trkpt lat="44.44017" lon="1.46879">
        <ele>269</ele>
        <time>2021-03-15T17:26:39.667Z</time>
      </trkpt>
      <trkpt lat="44.44017" lon="1.46878">
        <ele>269</ele>
        <time>2021-03-15T17:26:40.372Z</time>
      </trkpt>
      <trkpt lat="44.44017" lon="1.46878">
        <ele>268.99822998047</ele>
        <time>2021-03-15T17:26:41.077Z</time>
      </trkpt>
      <trkpt lat="44.43997" lon="1.46877">
        <ele>268.40774536133</ele>
        <time>2021-03-15T17:26:41.788Z</time>
      </trkpt>
      <trkpt lat="44.43997" lon="1.46877">
        <ele>268.40783691406</ele>
        <time>2021-03-15T17:26:42.499Z</time>
      </trkpt>
      <trkpt lat="44.43991" lon="1.46883">
        <ele>268.25729370117</ele>
        <time>2021-03-15T17:26:43.213Z</time>
      </trkpt>
      <trkpt lat="44.44012" lon="1.46887">
        <ele>268.498046875</ele>
        <time>2021-03-15T17:26:43.933Z</time>
      </trkpt>
      <trkpt lat="44.43963" lon="1.46944">
        <ele>266.49768066406</ele>
        <time>2021-03-15T17:26:44.672Z</time>
      </trkpt>
      <trkpt lat="44.4394" lon="1.46943">
        <ele>268.12454223633</ele>
        <time>2021-03-15T17:26:45.419Z</time>
      </trkpt>
      <trkpt lat="44.43889" lon="1.46965">
        <ele>266.63204956055</ele>
        <time>2021-03-15T17:26:46.182Z</time>
      </trkpt>
      <trkpt lat="44.43845" lon="1.46934">
        <ele>265.4280090332</ele>
        <time>2021-03-15T17:26:46.960Z</time>
      </trkpt>
      <trkpt lat="44.43832" lon="1.46931">
        <ele>264.81021118164</ele>
        <time>2021-03-15T17:26:47.742Z</time>
      </trkpt>
      <trkpt lat="44.43694" lon="1.46996">
        <ele>278.6907043457</ele>
        <time>2021-03-15T17:26:48.569Z</time>
      </trkpt>
      <trkpt lat="44.43682" lon="1.47005">
        <ele>279.5299987793</ele>
        <time>2021-03-15T17:26:49.400Z</time>
      </trkpt>
      <trkpt lat="44.43668" lon="1.47056">
        <ele>279.4787902832</ele>
        <time>2021-03-15T17:26:50.243Z</time>
      </trkpt>
      <trkpt lat="44.43631" lon="1.47117">
        <ele>277.98950195312</ele>
        <time>2021-03-15T17:26:51.104Z</time>
      </trkpt>
      <trkpt lat="44.43621" lon="1.47133">
        <ele>278.15762329102</ele>
        <time>2021-03-15T17:26:51.969Z</time>
      </trkpt>
      <trkpt lat="44.43624" lon="1.47147">
        <ele>277.28060913086</ele>
        <time>2021-03-15T17:26:52.838Z</time>
      </trkpt>
      <trkpt lat="44.43617" lon="1.47154">
        <ele>277.64544677734</ele>
        <time>2021-03-15T17:26:53.709Z</time>
      </trkpt>
      <trkpt lat="44.43611" lon="1.47201">
        <ele>275.45199584961</ele>
        <time>2021-03-15T17:26:54.591Z</time>
      </trkpt>
      <trkpt lat="44.43589" lon="1.47281">
        <ele>275.76370239258</ele>
        <time>2021-03-15T17:26:55.492Z</time>
      </trkpt>
      <trkpt lat="44.43579" lon="1.47294">
        <ele>275.33148193359</ele>
        <time>2021-03-15T17:26:56.397Z</time>
      </trkpt>
      <trkpt lat="44.43564" lon="1.47401">
        <ele>268.45401000977</ele>
        <time>2021-03-15T17:26:57.326Z</time>
      </trkpt>
      <trkpt lat="44.43566" lon="1.47458">
        <ele>264.09616088867</ele>
        <time>2021-03-15T17:26:58.268Z</time>
      </trkpt>
      <trkpt lat="44.43575" lon="1.4747">
        <ele>263.47833251953</ele>
        <time>2021-03-15T17:26:59.213Z</time>
      </trkpt>
      <trkpt lat="44.43593" lon="1.47563">
        <ele>256</ele>
        <time>2021-03-15T17:27:00.180Z</time>
      </trkpt>
      <trkpt lat="44.43619" lon="1.47571">
        <ele>256</ele>
        <time>2021-03-15T17:27:01.155Z</time>
      </trkpt>
      <trkpt lat="44.43644" lon="1.47555">
        <ele>252.05863952637</ele>
        <time>2021-03-15T17:27:02.138Z</time>
      </trkpt>
      <trkpt lat="44.43656" lon="1.47535">
        <ele>246.93563842773</ele>
        <time>2021-03-15T17:27:03.127Z</time>
      </trkpt>
      <trkpt lat="44.43676" lon="1.47529">
        <ele>242.17321777344</ele>
        <time>2021-03-15T17:27:04.122Z</time>
      </trkpt>
      <trkpt lat="44.43682" lon="1.475">
        <ele>236.04751586914</ele>
        <time>2021-03-15T17:27:05.124Z</time>
      </trkpt>
      <trkpt lat="44.43677" lon="1.47479">
        <ele>235.36259460449</ele>
        <time>2021-03-15T17:27:06.131Z</time>
      </trkpt>
      <trkpt lat="44.43677" lon="1.47479">
        <ele>235.36315917969</ele>
        <time>2021-03-15T17:27:07.138Z</time>
      </trkpt>
      <trkpt lat="44.43798" lon="1.47404">
        <ele>217.26902770996</ele>
        <time>2021-03-15T17:27:08.186Z</time>
      </trkpt>
      <trkpt lat="44.43798" lon="1.47404">
        <ele>217.26968383789</ele>
        <time>2021-03-15T17:27:09.234Z</time>
      </trkpt>
      <trkpt lat="44.43798" lon="1.47404">
        <ele>217.27003479004</ele>
        <time>2021-03-15T17:27:10.282Z</time>
      </trkpt>
      <trkpt lat="44.43812" lon="1.47401">
        <ele>215.65643310547</ele>
        <time>2021-03-15T17:27:11.334Z</time>
      </trkpt>
      <trkpt lat="44.43832" lon="1.47389">
        <ele>212.95901489258</ele>
        <time>2021-03-15T17:27:12.393Z</time>
      </trkpt>
      <trkpt lat="44.43846" lon="1.47385">
        <ele>211.15762329102</ele>
        <time>2021-03-15T17:27:13.456Z</time>
      </trkpt>
      <trkpt lat="44.43864" lon="1.47384">
        <ele>208.63832092285</ele>
        <time>2021-03-15T17:27:14.525Z</time>
      </trkpt>
      <trkpt lat="44.43875" lon="1.4739">
        <ele>206.88725280762</ele>
        <time>2021-03-15T17:27:15.597Z</time>
      </trkpt>
      <trkpt lat="44.43904" lon="1.47396">
        <ele>202.86225891113</ele>
        <time>2021-03-15T17:27:16.678Z</time>
      </trkpt>
      <trkpt lat="44.43914" lon="1.47395">
        <ele>201.38667297363</ele>
        <time>2021-03-15T17:27:17.762Z</time>
      </trkpt>
      <trkpt lat="44.43928" lon="1.47399">
        <ele>199.51519775391</ele>
        <time>2021-03-15T17:27:18.851Z</time>
      </trkpt>
      <trkpt lat="44.43947" lon="1.47394">
        <ele>197.05754089355</ele>
        <time>2021-03-15T17:27:19.946Z</time>
      </trkpt>
      <trkpt lat="44.43971" lon="1.4737">
        <ele>196.66998291016</ele>
        <time>2021-03-15T17:27:21.050Z</time>
      </trkpt>
      <trkpt lat="44.4398" lon="1.47356">
        <ele>197.97045898438</ele>
        <time>2021-03-15T17:27:22.158Z</time>
      </trkpt>
      <trkpt lat="44.43993" lon="1.47345">
        <ele>200.02188110352</ele>
        <time>2021-03-15T17:27:23.271Z</time>
      </trkpt>
      <trkpt lat="44.44018" lon="1.4735">
        <ele>203.57823181152</ele>
        <time>2021-03-15T17:27:24.391Z</time>
      </trkpt>
      <trkpt lat="44.44027" lon="1.47365">
        <ele>203.92102050781</ele>
        <time>2021-03-15T17:27:25.516Z</time>
      </trkpt>
      <trkpt lat="44.44017" lon="1.47415">
        <ele>198.04959106445</ele>
        <time>2021-03-15T17:27:26.652Z</time>
      </trkpt>
      <trkpt lat="44.44019" lon="1.4744">
        <ele>196.86558532715</ele>
        <time>2021-03-15T17:27:27.794Z</time>
      </trkpt>
      <trkpt lat="44.44032" lon="1.47473">
        <ele>196.5284576416</ele>
        <time>2021-03-15T17:27:28.944Z</time>
      </trkpt>
      <trkpt lat="44.4404" lon="1.47481">
        <ele>196.81639099121</ele>
        <time>2021-03-15T17:27:30.097Z</time>
      </trkpt>
      <trkpt lat="44.44047" lon="1.47498">
        <ele>196.75151062012</ele>
        <time>2021-03-15T17:27:31.254Z</time>
      </trkpt>
      <trkpt lat="44.44066" lon="1.47528">
        <ele>195.3371887207</ele>
        <time>2021-03-15T17:27:32.420Z</time>
      </trkpt>
      <trkpt lat="44.44128" lon="1.47585">
        <ele>191.66354370117</ele>
        <time>2021-03-15T17:27:33.609Z</time>
      </trkpt>
      <trkpt lat="44.44134" lon="1.47596">
        <ele>190.72779846191</ele>
        <time>2021-03-15T17:27:34.801Z</time>
      </trkpt>
      <trkpt lat="44.44175" lon="1.47649">
        <ele>186.58322143555</ele>
        <time>2021-03-15T17:27:36.010Z</time>
      </trkpt>
      <trkpt lat="44.44187" lon="1.47683">
        <ele>184.56777954102</ele>
        <time>2021-03-15T17:27:37.228Z</time>
      </trkpt>
      <trkpt lat="44.44195" lon="1.47716">
        <ele>183.59133911133</ele>
        <time>2021-03-15T17:27:38.453Z</time>
      </trkpt>
      <trkpt lat="44.44196" lon="1.47747">
        <ele>181.85510253906</ele>
        <time>2021-03-15T17:27:39.685Z</time>
      </trkpt>
      <trkpt lat="44.44193" lon="1.47792">
        <ele>180.49014282227</ele>
        <time>2021-03-15T17:27:40.927Z</time>
      </trkpt>
      <trkpt lat="44.44195" lon="1.47843">
        <ele>178.78649902344</ele>
        <time>2021-03-15T17:27:42.180Z</time>
      </trkpt>
      <trkpt lat="44.44199" lon="1.47868">
        <ele>177.73068237305</ele>
        <time>2021-03-15T17:27:43.439Z</time>
      </trkpt>
      <trkpt lat="44.44215" lon="1.47904">
        <ele>175.87008666992</ele>
        <time>2021-03-15T17:27:44.707Z</time>
      </trkpt>
      <trkpt lat="44.44253" lon="1.47948">
        <ele>172.71990966797</ele>
        <time>2021-03-15T17:27:45.990Z</time>
      </trkpt>
      <trkpt lat="44.44252" lon="1.47961">
        <ele>171.76722717285</ele>
        <time>2021-03-15T17:27:47.276Z</time>
      </trkpt>
      <trkpt lat="44.44239" lon="1.4796">
        <ele>171.50080871582</ele>
        <time>2021-03-15T17:27:48.566Z</time>
      </trkpt>
      <trkpt lat="44.44225" lon="1.47964">
        <ele>171.27565002441</ele>
        <time>2021-03-15T17:27:49.861Z</time>
      </trkpt>
      <trkpt lat="44.44207" lon="1.47978">
        <ele>172.43659973145</ele>
        <time>2021-03-15T17:27:51.162Z</time>
      </trkpt>
      <trkpt lat="44.44183" lon="1.47975">
        <ele>173.82794189453</ele>
        <time>2021-03-15T17:27:52.471Z</time>
      </trkpt>
      <trkpt lat="44.44138" lon="1.47976">
        <ele>177.10302734375</ele>
        <time>2021-03-15T17:27:53.793Z</time>
      </trkpt>
      <trkpt lat="44.44111" lon="1.47979">
        <ele>178</ele>
        <time>2021-03-15T17:27:55.124Z</time>
      </trkpt>
      <trkpt lat="44.44091" lon="1.47985">
        <ele>178</ele>
        <time>2021-03-15T17:27:56.461Z</time>
      </trkpt>
      <trkpt lat="44.44035" lon="1.48006">
        <ele>179.59666442871</ele>
        <time>2021-03-15T17:27:57.816Z</time>
      </trkpt>
      <trkpt lat="44.43994" lon="1.48031">
        <ele>180.75950622559</ele>
        <time>2021-03-15T17:27:59.185Z</time>
      </trkpt>
      <trkpt lat="44.43958" lon="1.48059">
        <ele>182.97862243652</ele>
        <time>2021-03-15T17:28:00.566Z</time>
      </trkpt>
      <trkpt lat="44.43902" lon="1.48068">
        <ele>184.40083312988</ele>
        <time>2021-03-15T17:28:01.965Z</time>
      </trkpt>
      <trkpt lat="44.43855" lon="1.48072">
        <ele>185.62649536133</ele>
        <time>2021-03-15T17:28:03.378Z</time>
      </trkpt>
      <trkpt lat="44.43778" lon="1.48075">
        <ele>188.19316101074</ele>
        <time>2021-03-15T17:28:04.815Z</time>
      </trkpt>
      <trkpt lat="44.43741" lon="1.48081">
        <ele>188.32624816895</ele>
        <time>2021-03-15T17:28:06.263Z</time>
      </trkpt>
      <trkpt lat="44.43731" lon="1.48084">
        <ele>188.57817077637</ele>
        <time>2021-03-15T17:28:07.714Z</time>
      </trkpt>
      <trkpt lat="44.43709" lon="1.48043">
        <ele>190.90353393555</ele>
        <time>2021-03-15T17:28:09.177Z</time>
      </trkpt>
      <trkpt lat="44.43694" lon="1.48021">
        <ele>192.7667388916</ele>
        <time>2021-03-15T17:28:10.646Z</time>
      </trkpt>
      <trkpt lat="44.43658" lon="1.47954">
        <ele>199.65809631348</ele>
        <time>2021-03-15T17:28:12.134Z</time>
      </trkpt>
      <trkpt lat="44.43622" lon="1.47887">
        <ele>206.00527954102</ele>
        <time>2021-03-15T17:28:13.640Z</time>
      </trkpt>
      <trkpt lat="44.43597" lon="1.47851">
        <ele>207.78649902344</ele>
        <time>2021-03-15T17:28:15.157Z</time>
      </trkpt>
      <trkpt lat="44.4358" lon="1.47811">
        <ele>211.23471069336</ele>
        <time>2021-03-15T17:28:16.685Z</time>
      </trkpt>
      <trkpt lat="44.43562" lon="1.47779">
        <ele>214.31474304199</ele>
        <time>2021-03-15T17:28:18.222Z</time>
      </trkpt>
      <trkpt lat="44.43549" lon="1.47749">
        <ele>219.53945922852</ele>
        <time>2021-03-15T17:28:19.766Z</time>
      </trkpt>
      <trkpt lat="44.43543" lon="1.47732">
        <ele>221.57684326172</ele>
        <time>2021-03-15T17:28:21.315Z</time>
      </trkpt>
      <trkpt lat="44.43542" lon="1.47712">
        <ele>225.03187561035</ele>
        <time>2021-03-15T17:28:22.868Z</time>
      </trkpt>
      <trkpt lat="44.43535" lon="1.47702">
        <ele>225.88298034668</ele>
        <time>2021-03-15T17:28:24.424Z</time>
      </trkpt>
      <trkpt lat="44.43528" lon="1.47676">
        <ele>228.99928283691</ele>
        <time>2021-03-15T17:28:25.986Z</time>
      </trkpt>
      <trkpt lat="44.43508" lon="1.47652">
        <ele>227.6309967041</ele>
        <time>2021-03-15T17:28:27.556Z</time>
      </trkpt>
      <trkpt lat="44.43487" lon="1.47622">
        <ele>227.10092163086</ele>
        <time>2021-03-15T17:28:29.136Z</time>
      </trkpt>
      <trkpt lat="44.43471" lon="1.47586">
        <ele>230.42810058594</ele>
        <time>2021-03-15T17:28:30.725Z</time>
      </trkpt>
      <trkpt lat="44.43452" lon="1.47566">
        <ele>230.21171569824</ele>
        <time>2021-03-15T17:28:32.321Z</time>
      </trkpt>
      <trkpt lat="44.43445" lon="1.47542">
        <ele>233.46481323242</ele>
        <time>2021-03-15T17:28:33.923Z</time>
      </trkpt>
      <trkpt lat="44.43438" lon="1.47532">
        <ele>234.27436828613</ele>
        <time>2021-03-15T17:28:35.528Z</time>
      </trkpt>
      <trkpt lat="44.43422" lon="1.47519">
        <ele>234.77822875977</ele>
        <time>2021-03-15T17:28:37.139Z</time>
      </trkpt>
      <trkpt lat="44.43406" lon="1.4751">
        <ele>235.05448913574</ele>
        <time>2021-03-15T17:28:38.755Z</time>
      </trkpt>
      <trkpt lat="44.43385" lon="1.47507">
        <ele>234.8923034668</ele>
        <time>2021-03-15T17:28:40.377Z</time>
      </trkpt>
      <trkpt lat="44.43367" lon="1.47511">
        <ele>234.45904541016</ele>
        <time>2021-03-15T17:28:42.005Z</time>
      </trkpt>
      <trkpt lat="44.43355" lon="1.47509">
        <ele>235.41400146484</ele>
        <time>2021-03-15T17:28:43.637Z</time>
      </trkpt>
      <trkpt lat="44.43311" lon="1.47496">
        <ele>242.54335021973</ele>
        <time>2021-03-15T17:28:45.283Z</time>
      </trkpt>
      <trkpt lat="44.43297" lon="1.47497">
        <ele>244.86080932617</ele>
        <time>2021-03-15T17:28:46.933Z</time>
      </trkpt>
      <trkpt lat="44.43282" lon="1.47502">
        <ele>247.3941192627</ele>
        <time>2021-03-15T17:28:48.588Z</time>
      </trkpt>
      <trkpt lat="44.43256" lon="1.47522">
        <ele>252.89869689941</ele>
        <time>2021-03-15T17:28:50.252Z</time>
      </trkpt>
      <trkpt lat="44.43238" lon="1.47546">
        <ele>255.5541229248</ele>
        <time>2021-03-15T17:28:51.923Z</time>
      </trkpt>
      <trkpt lat="44.43191" lon="1.4749">
        <ele>268.22305297852</ele>
        <time>2021-03-15T17:28:53.614Z</time>
      </trkpt>
      <trkpt lat="44.43224" lon="1.47414">
        <ele>268.78955078125</ele>
        <time>2021-03-15T17:28:55.324Z</time>
      </trkpt>
      <trkpt lat="44.43263" lon="1.47367">
        <ele>271.12939453125</ele>
        <time>2021-03-15T17:28:57.050Z</time>
      </trkpt>
      <trkpt lat="44.43304" lon="1.47329">
        <ele>274.10107421875</ele>
        <time>2021-03-15T17:28:58.791Z</time>
      </trkpt>
      <trkpt lat="44.43344" lon="1.47291">
        <ele>274.54330444336</ele>
        <time>2021-03-15T17:29:00.547Z</time>
      </trkpt>
      <trkpt lat="44.43385" lon="1.47235">
        <ele>275.92611694336</ele>
        <time>2021-03-15T17:29:02.321Z</time>
      </trkpt>
      <trkpt lat="44.43417" lon="1.47203">
        <ele>276.56939697266</ele>
        <time>2021-03-15T17:29:04.107Z</time>
      </trkpt>
      <trkpt lat="44.43465" lon="1.4717">
        <ele>279.25021362305</ele>
        <time>2021-03-15T17:29:05.909Z</time>
      </trkpt>
      <trkpt lat="44.43522" lon="1.47137">
        <ele>277.73861694336</ele>
        <time>2021-03-15T17:29:07.730Z</time>
      </trkpt>
      <trkpt lat="44.43554" lon="1.47126">
        <ele>278.69418334961</ele>
        <time>2021-03-15T17:29:09.561Z</time>
      </trkpt>
      <trkpt lat="44.43582" lon="1.47112">
        <ele>279.04470825195</ele>
        <time>2021-03-15T17:29:11.402Z</time>
      </trkpt>
      <trkpt lat="44.43616" lon="1.47082">
        <ele>279.25863647461</ele>
        <time>2021-03-15T17:29:13.255Z</time>
      </trkpt>
      <trkpt lat="44.43621" lon="1.47033">
        <ele>281.40423583984</ele>
        <time>2021-03-15T17:29:15.119Z</time>
      </trkpt>
      <trkpt lat="44.4362" lon="1.47008">
        <ele>281.83343505859</ele>
        <time>2021-03-15T17:29:16.988Z</time>
      </trkpt>
      <trkpt lat="44.43623" lon="1.46993">
        <ele>282.47525024414</ele>
        <time>2021-03-15T17:29:18.861Z</time>
      </trkpt>
      <trkpt lat="44.43624" lon="1.46941">
        <ele>280.34091186523</ele>
        <time>2021-03-15T17:29:20.745Z</time>
      </trkpt>
      <trkpt lat="44.43628" lon="1.46921">
        <ele>279.04525756836</ele>
        <time>2021-03-15T17:29:22.634Z</time>
      </trkpt>
      <trkpt lat="44.43646" lon="1.4687">
        <ele>275.71224975586</ele>
        <time>2021-03-15T17:29:24.535Z</time>
      </trkpt>
      <trkpt lat="44.43647" lon="1.46861">
        <ele>274.98822021484</ele>
        <time>2021-03-15T17:29:26.438Z</time>
      </trkpt>
      <trkpt lat="44.43639" lon="1.46833">
        <ele>273.78860473633</ele>
        <time>2021-03-15T17:29:28.348Z</time>
      </trkpt>
      <trkpt lat="44.43629" lon="1.46818">
        <ele>272.95962524414</ele>
        <time>2021-03-15T17:29:30.263Z</time>
      </trkpt>
      <trkpt lat="44.43622" lon="1.4678">
        <ele>269.88079833984</ele>
        <time>2021-03-15T17:29:32.186Z</time>
      </trkpt>
      <trkpt lat="44.43613" lon="1.46769">
        <ele>269.30075073242</ele>
        <time>2021-03-15T17:29:34.113Z</time>
      </trkpt>
      <trkpt lat="44.436" lon="1.4673">
        <ele>266.97668457031</ele>
        <time>2021-03-15T17:29:36.049Z</time>
      </trkpt>
      <trkpt lat="44.43592" lon="1.46675">
        <ele>263.29040527344</ele>
        <time>2021-03-15T17:29:37.998Z</time>
      </trkpt>
      <trkpt lat="44.4358" lon="1.46649">
        <ele>262.17422485352</ele>
        <time>2021-03-15T17:29:39.954Z</time>
      </trkpt>
      <trkpt lat="44.4358" lon="1.46634">
        <ele>261.72091674805</ele>
        <time>2021-03-15T17:29:41.913Z</time>
      </trkpt>
      <trkpt lat="44.43573" lon="1.46606">
        <ele>260.46127319336</ele>
        <time>2021-03-15T17:29:43.878Z</time>
      </trkpt>
      <trkpt lat="44.43574" lon="1.46578">
        <ele>260.07077026367</ele>
        <time>2021-03-15T17:29:45.850Z</time>
      </trkpt>
      <trkpt lat="44.43566" lon="1.46566">
        <ele>259.32095336914</ele>
        <time>2021-03-15T17:29:47.825Z</time>
      </trkpt>
      <trkpt lat="44.43549" lon="1.4651">
        <ele>259.74755859375</ele>
        <time>2021-03-15T17:29:49.814Z</time>
      </trkpt>
      <trkpt lat="44.43548" lon="1.46491">
        <ele>260.37750244141</ele>
        <time>2021-03-15T17:29:51.807Z</time>
      </trkpt>
      <trkpt lat="44.43538" lon="1.46458">
        <ele>260.2509765625</ele>
        <time>2021-03-15T17:29:53.808Z</time>
      </trkpt>
      <trkpt lat="44.43511" lon="1.46428">
        <ele>259.46087646484</ele>
        <time>2021-03-15T17:29:55.819Z</time>
      </trkpt>
      <trkpt lat="44.43508" lon="1.46382">
        <ele>260.85891723633</ele>
        <time>2021-03-15T17:29:57.840Z</time>
      </trkpt>
      <trkpt lat="44.43513" lon="1.46367">
        <ele>260.64974975586</ele>
        <time>2021-03-15T17:29:59.865Z</time>
      </trkpt>
      <trkpt lat="44.4351" lon="1.46267">
        <ele>260.57696533203</ele>
        <time>2021-03-15T17:30:01.912Z</time>
      </trkpt>
      <trkpt lat="44.43512" lon="1.46243">
        <ele>261.7981262207</ele>
        <time>2021-03-15T17:30:03.965Z</time>
      </trkpt>
      <trkpt lat="44.43508" lon="1.46208">
        <ele>261.94128417969</ele>
        <time>2021-03-15T17:30:06.025Z</time>
      </trkpt>
      <trkpt lat="44.43502" lon="1.46192">
        <ele>262.35229492188</ele>
        <time>2021-03-15T17:30:08.089Z</time>
      </trkpt>
      <trkpt lat="44.43503" lon="1.46152">
        <ele>259.32913208008</ele>
        <time>2021-03-15T17:30:10.162Z</time>
      </trkpt>
      <trkpt lat="44.43497" lon="1.46114">
        <ele>258.09985351562</ele>
        <time>2021-03-15T17:30:12.244Z</time>
      </trkpt>
      <trkpt lat="44.43494" lon="1.46075">
        <ele>257.39617919922</ele>
        <time>2021-03-15T17:30:14.334Z</time>
      </trkpt>
      <trkpt lat="44.43482" lon="1.46039">
        <ele>255.11224365234</ele>
        <time>2021-03-15T17:30:16.433Z</time>
      </trkpt>
      <trkpt lat="44.43482" lon="1.46018">
        <ele>253.73207092285</ele>
        <time>2021-03-15T17:30:18.537Z</time>
      </trkpt>
      <trkpt lat="44.43487" lon="1.45984">
        <ele>249.91386413574</ele>
        <time>2021-03-15T17:30:20.648Z</time>
      </trkpt>
      <trkpt lat="44.43497" lon="1.45966">
        <ele>250.6990814209</ele>
        <time>2021-03-15T17:30:22.764Z</time>
      </trkpt>
      <trkpt lat="44.43499" lon="1.45938">
        <ele>250.6462097168</ele>
        <time>2021-03-15T17:30:24.887Z</time>
      </trkpt>
      <trkpt lat="44.43499" lon="1.45892">
        <ele>247.3641204834</ele>
        <time>2021-03-15T17:30:27.020Z</time>
      </trkpt>
      <trkpt lat="44.43512" lon="1.45872">
        <ele>247.2935333252</ele>
        <time>2021-03-15T17:30:29.159Z</time>
      </trkpt>
      <trkpt lat="44.43539" lon="1.45852">
        <ele>246.42694091797</ele>
        <time>2021-03-15T17:30:31.307Z</time>
      </trkpt>
      <trkpt lat="44.43543" lon="1.45839">
        <ele>245.85815429688</ele>
        <time>2021-03-15T17:30:33.458Z</time>
      </trkpt>
      <trkpt lat="44.43569" lon="1.45818">
        <ele>244.48980712891</ele>
        <time>2021-03-15T17:30:35.618Z</time>
      </trkpt>
      <trkpt lat="44.43583" lon="1.4579">
        <ele>241.25398254395</ele>
        <time>2021-03-15T17:30:37.786Z</time>
      </trkpt>
      <trkpt lat="44.43592" lon="1.45766">
        <ele>236.71557617188</ele>
        <time>2021-03-15T17:30:39.960Z</time>
      </trkpt>
      <trkpt lat="44.43617" lon="1.45739">
        <ele>231.83654785156</ele>
        <time>2021-03-15T17:30:42.144Z</time>
      </trkpt>
      <trkpt lat="44.43618" lon="1.45721">
        <ele>230.36784362793</ele>
        <time>2021-03-15T17:30:44.332Z</time>
      </trkpt>
      <trkpt lat="44.43628" lon="1.45708">
        <ele>226.7953338623</ele>
        <time>2021-03-15T17:30:46.524Z</time>
      </trkpt>
      <trkpt lat="44.43635" lon="1.45693">
        <ele>224.8699798584</ele>
        <time>2021-03-15T17:30:48.720Z</time>
      </trkpt>
      <trkpt lat="44.43655" lon="1.45681">
        <ele>222.67753601074</ele>
        <time>2021-03-15T17:30:50.923Z</time>
      </trkpt>
      <trkpt lat="44.43661" lon="1.45668">
        <ele>221.27392578125</ele>
        <time>2021-03-15T17:30:53.129Z</time>
      </trkpt>
      <trkpt lat="44.43676" lon="1.45654">
        <ele>218.96389770508</ele>
        <time>2021-03-15T17:30:55.341Z</time>
      </trkpt>
      <trkpt lat="44.43697" lon="1.45608">
        <ele>213.26258850098</ele>
        <time>2021-03-15T17:30:57.565Z</time>
      </trkpt>
      <trkpt lat="44.43702" lon="1.45583">
        <ele>209.42654418945</ele>
        <time>2021-03-15T17:30:59.794Z</time>
      </trkpt>
      <trkpt lat="44.43716" lon="1.45558">
        <ele>205.39721679688</ele>
        <time>2021-03-15T17:31:02.030Z</time>
      </trkpt>
      <trkpt lat="44.43726" lon="1.45518">
        <ele>199.86787414551</ele>
        <time>2021-03-15T17:31:04.276Z</time>
      </trkpt>
      <trkpt lat="44.43732" lon="1.45511">
        <ele>197.96040344238</ele>
        <time>2021-03-15T17:31:06.524Z</time>
      </trkpt>
      <trkpt lat="44.43738" lon="1.45513">
        <ele>197.90797424316</ele>
        <time>2021-03-15T17:31:08.774Z</time>
      </trkpt>
      <trkpt lat="44.43742" lon="1.455">
        <ele>196.36039733887</ele>
        <time>2021-03-15T17:31:11.027Z</time>
      </trkpt>
      <trkpt lat="44.43739" lon="1.45486">
        <ele>193.7056427002</ele>
        <time>2021-03-15T17:31:13.283Z</time>
      </trkpt>
      <trkpt lat="44.43738" lon="1.45468">
        <ele>190.35984802246</ele>
        <time>2021-03-15T17:31:15.543Z</time>
      </trkpt>
      <trkpt lat="44.43745" lon="1.45446">
        <ele>186.39016723633</ele>
        <time>2021-03-15T17:31:17.809Z</time>
      </trkpt>
      <trkpt lat="44.43739" lon="1.45387">
        <ele>172.80261230469</ele>
        <time>2021-03-15T17:31:20.088Z</time>
      </trkpt>
      <trkpt lat="44.4375" lon="1.45359">
        <ele>168.69741821289</ele>
        <time>2021-03-15T17:31:22.374Z</time>
      </trkpt>
      <trkpt lat="44.43759" lon="1.45348">
        <ele>165.67425537109</ele>
        <time>2021-03-15T17:31:24.663Z</time>
      </trkpt>
      <trkpt lat="44.43766" lon="1.45348">
        <ele>165.29803466797</ele>
        <time>2021-03-15T17:31:26.955Z</time>
      </trkpt>
      <trkpt lat="44.43769" lon="1.45343">
        <ele>164.57823181152</ele>
        <time>2021-03-15T17:31:29.248Z</time>
      </trkpt>
      <trkpt lat="44.43763" lon="1.45333">
        <ele>163.13862609863</ele>
        <time>2021-03-15T17:31:31.544Z</time>
      </trkpt>
      <trkpt lat="44.43767" lon="1.45304">
        <ele>156.9686126709</ele>
        <time>2021-03-15T17:31:33.846Z</time>
      </trkpt>
      <trkpt lat="44.43779" lon="1.45285">
        <ele>154.90997314453</ele>
        <time>2021-03-15T17:31:36.154Z</time>
      </trkpt>
      <trkpt lat="44.43791" lon="1.45278">
        <ele>154.05520629883</ele>
        <time>2021-03-15T17:31:38.466Z</time>
      </trkpt>
      <trkpt lat="44.43809" lon="1.45311">
        <ele>154.31341552734</ele>
        <time>2021-03-15T17:31:40.787Z</time>
      </trkpt>
      <trkpt lat="44.43825" lon="1.45353">
        <ele>152.94578552246</ele>
        <time>2021-03-15T17:31:43.119Z</time>
      </trkpt>
      <trkpt lat="44.43842" lon="1.45415">
        <ele>155.59811401367</ele>
        <time>2021-03-15T17:31:45.465Z</time>
      </trkpt>
      <trkpt lat="44.43851" lon="1.45424">
        <ele>155.61227416992</ele>
        <time>2021-03-15T17:31:47.815Z</time>
      </trkpt>
      <trkpt lat="44.43868" lon="1.4542">
        <ele>156.35845947266</ele>
        <time>2021-03-15T17:31:50.170Z</time>
      </trkpt>
      <trkpt lat="44.43862" lon="1.45376">
        <ele>152.72462463379</ele>
        <time>2021-03-15T17:31:52.535Z</time>
      </trkpt>
      <trkpt lat="44.43843" lon="1.45289">
        <ele>151.40954589844</ele>
        <time>2021-03-15T17:31:54.920Z</time>
      </trkpt>
      <trkpt lat="44.4384" lon="1.45234">
        <ele>150.45120239258</ele>
        <time>2021-03-15T17:31:57.317Z</time>
      </trkpt>
      <trkpt lat="44.43827" lon="1.45177">
        <ele>148.16184997559</ele>
        <time>2021-03-15T17:31:59.727Z</time>
      </trkpt>
      <trkpt lat="44.4381" lon="1.45151">
        <ele>145.33129882812</ele>
        <time>2021-03-15T17:32:02.145Z</time>
      </trkpt>
      <trkpt lat="44.43811" lon="1.45152">
        <ele>145.54724121094</ele>
        <time>2021-03-15T17:32:04.563Z</time>
      </trkpt>
      <trkpt lat="44.43761" lon="1.45093">
        <ele>135.71086120605</ele>
        <time>2021-03-15T17:32:07.001Z</time>
      </trkpt>
      <trkpt lat="44.43752" lon="1.45166">
        <ele>138.45204162598</ele>
        <time>2021-03-15T17:32:09.456Z</time>
      </trkpt>
      <trkpt lat="44.43742" lon="1.45194">
        <ele>140.09614562988</ele>
        <time>2021-03-15T17:32:11.918Z</time>
      </trkpt>
      <trkpt lat="44.4369" lon="1.45279">
        <ele>141.98236083984</ele>
        <time>2021-03-15T17:32:14.404Z</time>
      </trkpt>
      <trkpt lat="44.43637" lon="1.45364">
        <ele>143.34658813477</ele>
        <time>2021-03-15T17:32:16.915Z</time>
      </trkpt>
      <trkpt lat="44.43585" lon="1.45449">
        <ele>148.45864868164</ele>
        <time>2021-03-15T17:32:19.451Z</time>
      </trkpt>
      <trkpt lat="44.43511" lon="1.45492">
        <ele>148.43601989746</ele>
        <time>2021-03-15T17:32:22.012Z</time>
      </trkpt>
      <trkpt lat="44.43437" lon="1.45536">
        <ele>150.93626403809</ele>
        <time>2021-03-15T17:32:24.597Z</time>
      </trkpt>
      <trkpt lat="44.43362" lon="1.45579">
        <ele>154.09399414062</ele>
        <time>2021-03-15T17:32:27.207Z</time>
      </trkpt>
      <trkpt lat="44.43288" lon="1.45622">
        <ele>152.43510437012</ele>
        <time>2021-03-15T17:32:29.842Z</time>
      </trkpt>
      <trkpt lat="44.43272" lon="1.45628">
        <ele>152.7036895752</ele>
        <time>2021-03-15T17:32:32.482Z</time>
      </trkpt>
      <trkpt lat="44.43282" lon="1.45731">
        <ele>154.65748596191</ele>
        <time>2021-03-15T17:32:35.145Z</time>
      </trkpt>
      <trkpt lat="44.43283" lon="1.45803">
        <ele>156.7154083252</ele>
        <time>2021-03-15T17:32:37.824Z</time>
      </trkpt>
      <trkpt lat="44.43283" lon="1.4582">
        <ele>158.19566345215</ele>
        <time>2021-03-15T17:32:40.507Z</time>
      </trkpt>
      <trkpt lat="44.43276" lon="1.45903">
        <ele>168.00643920898</ele>
        <time>2021-03-15T17:32:43.208Z</time>
      </trkpt>
      <trkpt lat="44.43272" lon="1.45915">
        <ele>168.80610656738</ele>
        <time>2021-03-15T17:32:45.912Z</time>
      </trkpt>
      <trkpt lat="44.43257" lon="1.45931">
        <ele>171.60899353027</ele>
        <time>2021-03-15T17:32:48.622Z</time>
      </trkpt>
      <trkpt lat="44.43242" lon="1.4595">
        <ele>173.46287536621</ele>
        <time>2021-03-15T17:32:51.338Z</time>
      </trkpt>
      <trkpt lat="44.43201" lon="1.45994">
        <ele>177.19194030762</ele>
        <time>2021-03-15T17:32:54.070Z</time>
      </trkpt>
      <trkpt lat="44.43179" lon="1.46025">
        <ele>181.23965454102</ele>
        <time>2021-03-15T17:32:56.811Z</time>
      </trkpt>
      <trkpt lat="44.43132" lon="1.46082">
        <ele>188.81105041504</ele>
        <time>2021-03-15T17:32:59.572Z</time>
      </trkpt>
      <trkpt lat="44.43077" lon="1.46163">
        <ele>201.75639343262</ele>
        <time>2021-03-15T17:33:02.357Z</time>
      </trkpt>
      <trkpt lat="44.43047" lon="1.46225">
        <ele>209.9626159668</ele>
        <time>2021-03-15T17:33:05.159Z</time>
      </trkpt>
      <trkpt lat="44.43048" lon="1.46225">
        <ele>209.49475097656</ele>
        <time>2021-03-15T17:33:07.961Z</time>
      </trkpt>
      <trkpt lat="44.43033" lon="1.46268">
        <ele>212.79522705078</ele>
        <time>2021-03-15T17:33:10.774Z</time>
      </trkpt>
      <trkpt lat="44.43017" lon="1.46324">
        <ele>218.51902770996</ele>
        <time>2021-03-15T17:33:13.600Z</time>
      </trkpt>
      <trkpt lat="44.43004" lon="1.4639">
        <ele>223.04048156738</ele>
        <time>2021-03-15T17:33:16.441Z</time>
      </trkpt>
      <trkpt lat="44.4299" lon="1.46455">
        <ele>228.4401550293</ele>
        <time>2021-03-15T17:33:19.297Z</time>
      </trkpt>
      <trkpt lat="44.42978" lon="1.46502">
        <ele>232.4377746582</ele>
        <time>2021-03-15T17:33:22.164Z</time>
      </trkpt>
      <trkpt lat="44.42957" lon="1.46553">
        <ele>235.4006652832</ele>
        <time>2021-03-15T17:33:25.044Z</time>
      </trkpt>
      <trkpt lat="44.42922" lon="1.46604">
        <ele>242.42343139648</ele>
        <time>2021-03-15T17:33:27.939Z</time>
      </trkpt>
      <trkpt lat="44.42897" lon="1.46662">
        <ele>248.32429504395</ele>
        <time>2021-03-15T17:33:30.849Z</time>
      </trkpt>
      <trkpt lat="44.42883" lon="1.46716">
        <ele>255.04020690918</ele>
        <time>2021-03-15T17:33:33.772Z</time>
      </trkpt>
      <trkpt lat="44.42871" lon="1.46831">
        <ele>261.14544677734</ele>
        <time>2021-03-15T17:33:36.721Z</time>
      </trkpt>
      <trkpt lat="44.42852" lon="1.46943">
        <ele>265.20895385742</ele>
        <time>2021-03-15T17:33:39.695Z</time>
      </trkpt>
      <trkpt lat="44.42842" lon="1.47025">
        <ele>266.69686889648</ele>
        <time>2021-03-15T17:33:42.687Z</time>
      </trkpt>
      <trkpt lat="44.42839" lon="1.47063">
        <ele>268.55117797852</ele>
        <time>2021-03-15T17:33:45.688Z</time>
      </trkpt>
      <trkpt lat="44.42838" lon="1.47107">
        <ele>270.00143432617</ele>
        <time>2021-03-15T17:33:48.699Z</time>
      </trkpt>
      <trkpt lat="44.42822" lon="1.47201">
        <ele>277.26397705078</ele>
        <time>2021-03-15T17:33:51.731Z</time>
      </trkpt>
      <trkpt lat="44.42815" lon="1.47287">
        <ele>280.81845092773</ele>
        <time>2021-03-15T17:33:54.782Z</time>
      </trkpt>
      <trkpt lat="44.42807" lon="1.47373">
        <ele>285.28897094727</ele>
        <time>2021-03-15T17:33:57.852Z</time>
      </trkpt>
      <trkpt lat="44.42805" lon="1.47378">
        <ele>286.0087890625</ele>
        <time>2021-03-15T17:34:00.923Z</time>
      </trkpt>
      <trkpt lat="44.42803" lon="1.47402">
        <ele>287</ele>
        <time>2021-03-15T17:34:04.000Z</time>
      </trkpt>
      <trkpt lat="44.42794" lon="1.47437">
        <ele>287.34396362305</ele>
        <time>2021-03-15T17:34:07.085Z</time>
      </trkpt>
      <trkpt lat="44.42782" lon="1.47457">
        <ele>287.04516601562</ele>
        <time>2021-03-15T17:34:10.176Z</time>
      </trkpt>
      <trkpt lat="44.42751" lon="1.47493">
        <ele>285.22692871094</ele>
        <time>2021-03-15T17:34:13.279Z</time>
      </trkpt>
      <trkpt lat="44.42697" lon="1.47549">
        <ele>280.46948242188</ele>
        <time>2021-03-15T17:34:16.403Z</time>
      </trkpt>
      <trkpt lat="44.42661" lon="1.47592">
        <ele>275.80532836914</ele>
        <time>2021-03-15T17:34:19.541Z</time>
      </trkpt>
      <trkpt lat="44.42656" lon="1.4761">
        <ele>274.67330932617</ele>
        <time>2021-03-15T17:34:22.684Z</time>
      </trkpt>
      <trkpt lat="44.42641" lon="1.47635">
        <ele>274</ele>
        <time>2021-03-15T17:34:25.834Z</time>
      </trkpt>
      <trkpt lat="44.42615" lon="1.47705">
        <ele>275.40295410156</ele>
        <time>2021-03-15T17:34:29.001Z</time>
      </trkpt>
      <trkpt lat="44.42599" lon="1.47769">
        <ele>275.68832397461</ele>
        <time>2021-03-15T17:34:32.183Z</time>
      </trkpt>
      <trkpt lat="44.42583" lon="1.47832">
        <ele>275.83987426758</ele>
        <time>2021-03-15T17:34:35.380Z</time>
      </trkpt>
      <trkpt lat="44.42551" lon="1.47891">
        <ele>277.72384643555</ele>
        <time>2021-03-15T17:34:38.593Z</time>
      </trkpt>
      <trkpt lat="44.42524" lon="1.48005">
        <ele>280.19995117188</ele>
        <time>2021-03-15T17:34:41.833Z</time>
      </trkpt>
      <trkpt lat="44.42509" lon="1.48084">
        <ele>284.83212280273</ele>
        <time>2021-03-15T17:34:45.091Z</time>
      </trkpt>
      <trkpt lat="44.42493" lon="1.48162">
        <ele>289.02731323242</ele>
        <time>2021-03-15T17:34:48.366Z</time>
      </trkpt>
      <trkpt lat="44.42481" lon="1.48203">
        <ele>291.32595825195</ele>
        <time>2021-03-15T17:34:51.651Z</time>
      </trkpt>
      <trkpt lat="44.42472" lon="1.48268">
        <ele>290.40194702148</ele>
        <time>2021-03-15T17:34:54.951Z</time>
      </trkpt>
      <trkpt lat="44.42448" lon="1.48377">
        <ele>288.61526489258</ele>
        <time>2021-03-15T17:34:58.276Z</time>
      </trkpt>
      <trkpt lat="44.42446" lon="1.48475">
        <ele>282.78576660156</ele>
        <time>2021-03-15T17:35:01.623Z</time>
      </trkpt>
      <trkpt lat="44.42461" lon="1.48537">
        <ele>277.61352539062</ele>
        <time>2021-03-15T17:35:04.984Z</time>
      </trkpt>
      <trkpt lat="44.42475" lon="1.48599">
        <ele>272.84399414062</ele>
        <time>2021-03-15T17:35:08.359Z</time>
      </trkpt>
      <trkpt lat="44.4249" lon="1.48694">
        <ele>262.70596313477</ele>
        <time>2021-03-15T17:35:11.756Z</time>
      </trkpt>
      <trkpt lat="44.42504" lon="1.48789">
        <ele>250.35734558105</ele>
        <time>2021-03-15T17:35:15.174Z</time>
      </trkpt>
      <trkpt lat="44.42513" lon="1.48864">
        <ele>237.50891113281</ele>
        <time>2021-03-15T17:35:18.609Z</time>
      </trkpt>
      <trkpt lat="44.42532" lon="1.48939">
        <ele>226.05506896973</ele>
        <time>2021-03-15T17:35:22.061Z</time>
      </trkpt>
      <trkpt lat="44.4255" lon="1.49013">
        <ele>217.0643157959</ele>
        <time>2021-03-15T17:35:25.531Z</time>
      </trkpt>
      <trkpt lat="44.4258" lon="1.49114">
        <ele>206.34407043457</ele>
        <time>2021-03-15T17:35:29.025Z</time>
      </trkpt>
      <trkpt lat="44.42614" lon="1.49209">
        <ele>196.75834655762</ele>
        <time>2021-03-15T17:35:32.542Z</time>
      </trkpt>
      <trkpt lat="44.42645" lon="1.49307">
        <ele>196.06048583984</ele>
        <time>2021-03-15T17:35:36.083Z</time>
      </trkpt>
      <trkpt lat="44.42662" lon="1.4942">
        <ele>184.49681091309</ele>
        <time>2021-03-15T17:35:39.649Z</time>
      </trkpt>
      <trkpt lat="44.42659" lon="1.49447">
        <ele>180.51235961914</ele>
        <time>2021-03-15T17:35:43.221Z</time>
      </trkpt>
      <trkpt lat="44.42676" lon="1.49468">
        <ele>176.32418823242</ele>
        <time>2021-03-15T17:35:46.800Z</time>
      </trkpt>
      <trkpt lat="44.42688" lon="1.49519">
        <ele>169.09246826172</ele>
        <time>2021-03-15T17:35:50.391Z</time>
      </trkpt>
      <trkpt lat="44.42703" lon="1.49557">
        <ele>166.32452392578</ele>
        <time>2021-03-15T17:35:53.992Z</time>
      </trkpt>
      <trkpt lat="44.42715" lon="1.49576">
        <ele>166.07258605957</ele>
        <time>2021-03-15T17:35:57.598Z</time>
      </trkpt>
      <trkpt lat="44.42756" lon="1.4966">
        <ele>167.15190124512</ele>
        <time>2021-03-15T17:36:01.227Z</time>
      </trkpt>
      <trkpt lat="44.4279" lon="1.49723">
        <ele>166.91864013672</ele>
        <time>2021-03-15T17:36:04.873Z</time>
      </trkpt>
      <trkpt lat="44.42829" lon="1.49807">
        <ele>165.68766784668</ele>
        <time>2021-03-15T17:36:08.541Z</time>
      </trkpt>
      <trkpt lat="44.42867" lon="1.4989">
        <ele>162.44332885742</ele>
        <time>2021-03-15T17:36:12.231Z</time>
      </trkpt>
      <trkpt lat="44.42911" lon="1.49954">
        <ele>157.92179870605</ele>
        <time>2021-03-15T17:36:15.941Z</time>
      </trkpt>
      <trkpt lat="44.42929" lon="1.49964">
        <ele>156.78094482422</ele>
        <time>2021-03-15T17:36:19.656Z</time>
      </trkpt>
      <trkpt lat="44.42966" lon="1.49957">
        <ele>156.6427154541</ele>
        <time>2021-03-15T17:36:23.383Z</time>
      </trkpt>
      <trkpt lat="44.42977" lon="1.49966">
        <ele>156.39761352539</ele>
        <time>2021-03-15T17:36:27.114Z</time>
      </trkpt>
      <trkpt lat="44.42979" lon="1.49995">
        <ele>154.494140625</ele>
        <time>2021-03-15T17:36:30.851Z</time>
      </trkpt>
      <trkpt lat="44.42993" lon="1.50047">
        <ele>152.67236328125</ele>
        <time>2021-03-15T17:36:34.601Z</time>
      </trkpt>
      <trkpt lat="44.43022" lon="1.50086">
        <ele>152.13824462891</ele>
        <time>2021-03-15T17:36:38.363Z</time>
      </trkpt>
      <trkpt lat="44.43049" lon="1.50147">
        <ele>151.33302307129</ele>
        <time>2021-03-15T17:36:42.141Z</time>
      </trkpt>
      <trkpt lat="44.43086" lon="1.5014">
        <ele>152.37956237793</ele>
        <time>2021-03-15T17:36:45.930Z</time>
      </trkpt>
      <trkpt lat="44.431" lon="1.50173">
        <ele>150.65914916992</ele>
        <time>2021-03-15T17:36:49.728Z</time>
      </trkpt>
      <trkpt lat="44.43103" lon="1.502">
        <ele>148.80200195312</ele>
        <time>2021-03-15T17:36:53.532Z</time>
      </trkpt>
      <trkpt lat="44.43121" lon="1.50263">
        <ele>144.21971130371</ele>
        <time>2021-03-15T17:36:57.351Z</time>
      </trkpt>
      <trkpt lat="44.43136" lon="1.50292">
        <ele>140.54351806641</ele>
        <time>2021-03-15T17:37:01.178Z</time>
      </trkpt>
      <trkpt lat="44.43112" lon="1.50321">
        <ele>139.34162902832</ele>
        <time>2021-03-15T17:37:05.014Z</time>
      </trkpt>
      <trkpt lat="44.43098" lon="1.50334">
        <ele>139.1883392334</ele>
        <time>2021-03-15T17:37:08.856Z</time>
      </trkpt>
      <trkpt lat="44.43082" lon="1.50343">
        <ele>139.94512939453</ele>
        <time>2021-03-15T17:37:12.703Z</time>
      </trkpt>
      <trkpt lat="44.43057" lon="1.5035">
        <ele>141.44276428223</ele>
        <time>2021-03-15T17:37:16.558Z</time>
      </trkpt>
      <trkpt lat="44.43041" lon="1.50357">
        <ele>141.60627746582</ele>
        <time>2021-03-15T17:37:20.418Z</time>
      </trkpt>
      <trkpt lat="44.43024" lon="1.50369">
        <ele>140.70442199707</ele>
        <time>2021-03-15T17:37:24.284Z</time>
      </trkpt>
      <trkpt lat="44.43007" lon="1.50386">
        <ele>140.78761291504</ele>
        <time>2021-03-15T17:37:28.156Z</time>
      </trkpt>
      <trkpt lat="44.42945" lon="1.50456">
        <ele>141.08659362793</ele>
        <time>2021-03-15T17:37:32.053Z</time>
      </trkpt>
      <trkpt lat="44.42919" lon="1.50477">
        <ele>140.66554260254</ele>
        <time>2021-03-15T17:37:35.959Z</time>
      </trkpt>
      <trkpt lat="44.42851" lon="1.5054">
        <ele>141.43460083008</ele>
        <time>2021-03-15T17:37:39.890Z</time>
      </trkpt>
      <trkpt lat="44.42807" lon="1.50568">
        <ele>140.69013977051</ele>
        <time>2021-03-15T17:37:43.836Z</time>
      </trkpt>
      <trkpt lat="44.42798" lon="1.50581">
        <ele>140.77961730957</ele>
        <time>2021-03-15T17:37:47.786Z</time>
      </trkpt>
      <trkpt lat="44.42765" lon="1.50652">
        <ele>139.85314941406</ele>
        <time>2021-03-15T17:37:51.755Z</time>
      </trkpt>
      <trkpt lat="44.42805" lon="1.50706">
        <ele>147.3371887207</ele>
        <time>2021-03-15T17:37:55.741Z</time>
      </trkpt>
      <trkpt lat="44.42763" lon="1.50752">
        <ele>142.88954162598</ele>
        <time>2021-03-15T17:37:59.743Z</time>
      </trkpt>
      <trkpt lat="44.4272" lon="1.50798">
        <ele>142.72724914551</ele>
        <time>2021-03-15T17:38:03.762Z</time>
      </trkpt>
      <trkpt lat="44.42668" lon="1.50843">
        <ele>145.22537231445</ele>
        <time>2021-03-15T17:38:07.800Z</time>
      </trkpt>
      <trkpt lat="44.42615" lon="1.50888">
        <ele>144.68237304688</ele>
        <time>2021-03-15T17:38:11.857Z</time>
      </trkpt>
      <trkpt lat="44.42567" lon="1.5092">
        <ele>144.94395446777</ele>
        <time>2021-03-15T17:38:15.930Z</time>
      </trkpt>
      <trkpt lat="44.42563" lon="1.50983">
        <ele>142.62182617188</ele>
        <time>2021-03-15T17:38:20.017Z</time>
      </trkpt>
      <trkpt lat="44.42559" lon="1.51046">
        <ele>141</ele>
        <time>2021-03-15T17:38:24.118Z</time>
      </trkpt>
      <trkpt lat="44.42604" lon="1.51026">
        <ele>142.81793212891</ele>
        <time>2021-03-15T17:38:28.234Z</time>
      </trkpt>
      <trkpt lat="44.42625" lon="1.51014">
        <ele>146.36250305176</ele>
        <time>2021-03-15T17:38:32.357Z</time>
      </trkpt>
      <trkpt lat="44.42638" lon="1.50999">
        <ele>148.45320129395</ele>
        <time>2021-03-15T17:38:36.485Z</time>
      </trkpt>
      <trkpt lat="44.42647" lon="1.51014">
        <ele>152.14895629883</ele>
        <time>2021-03-15T17:38:40.617Z</time>
      </trkpt>
      <trkpt lat="44.42649" lon="1.51024">
        <ele>153.2286529541</ele>
        <time>2021-03-15T17:38:44.751Z</time>
      </trkpt>
      <trkpt lat="44.4264" lon="1.511">
        <ele>155.61122131348</ele>
        <time>2021-03-15T17:38:48.902Z</time>
      </trkpt>
      <trkpt lat="44.42645" lon="1.51123">
        <ele>157.47148132324</ele>
        <time>2021-03-15T17:38:53.059Z</time>
      </trkpt>
      <trkpt lat="44.42656" lon="1.51147">
        <ele>160.26487731934</ele>
        <time>2021-03-15T17:38:57.222Z</time>
      </trkpt>
      <trkpt lat="44.42677" lon="1.51174">
        <ele>162.02404785156</ele>
        <time>2021-03-15T17:39:01.394Z</time>
      </trkpt>
      <trkpt lat="44.42692" lon="1.5119">
        <ele>162.45593261719</ele>
        <time>2021-03-15T17:39:05.571Z</time>
      </trkpt>
      <trkpt lat="44.42695" lon="1.51197">
        <ele>162.19905090332</ele>
        <time>2021-03-15T17:39:09.750Z</time>
      </trkpt>
      <trkpt lat="44.42726" lon="1.51188">
        <ele>167.22782897949</ele>
        <time>2021-03-15T17:39:13.939Z</time>
      </trkpt>
      <trkpt lat="44.42754" lon="1.51186">
        <ele>172.93035888672</ele>
        <time>2021-03-15T17:39:18.137Z</time>
      </trkpt>
      <trkpt lat="44.42772" lon="1.51189">
        <ele>176.67347717285</ele>
        <time>2021-03-15T17:39:22.340Z</time>
      </trkpt>
      <trkpt lat="44.42787" lon="1.51195">
        <ele>178.61643981934</ele>
        <time>2021-03-15T17:39:26.548Z</time>
      </trkpt>
      <trkpt lat="44.42818" lon="1.51213">
        <ele>182.55940246582</ele>
        <time>2021-03-15T17:39:30.766Z</time>
      </trkpt>
      <trkpt lat="44.42834" lon="1.51229">
        <ele>184.51863098145</ele>
        <time>2021-03-15T17:39:34.990Z</time>
      </trkpt>
      <trkpt lat="44.42849" lon="1.51253">
        <ele>186.90646362305</ele>
        <time>2021-03-15T17:39:39.221Z</time>
      </trkpt>
      <trkpt lat="44.42868" lon="1.51291">
        <ele>190.66648864746</ele>
        <time>2021-03-15T17:39:43.463Z</time>
      </trkpt>
      <trkpt lat="44.42882" lon="1.51325">
        <ele>194.97940063477</ele>
        <time>2021-03-15T17:39:47.713Z</time>
      </trkpt>
      <trkpt lat="44.42902" lon="1.51411">
        <ele>206.43159484863</ele>
        <time>2021-03-15T17:39:51.983Z</time>
      </trkpt>
      <trkpt lat="44.42889" lon="1.51402">
        <ele>204.5241394043</ele>
        <time>2021-03-15T17:39:56.258Z</time>
      </trkpt>
      <trkpt lat="44.42864" lon="1.51377">
        <ele>202.05760192871</ele>
        <time>2021-03-15T17:40:00.542Z</time>
      </trkpt>
      <trkpt lat="44.42853" lon="1.51369">
        <ele>201.74290466309</ele>
        <time>2021-03-15T17:40:04.830Z</time>
      </trkpt>
      <trkpt lat="44.4284" lon="1.51364">
        <ele>202.42671203613</ele>
        <time>2021-03-15T17:40:09.122Z</time>
      </trkpt>
      <trkpt lat="44.42826" lon="1.51369">
        <ele>204.54385375977</ele>
        <time>2021-03-15T17:40:13.419Z</time>
      </trkpt>
      <trkpt lat="44.4281" lon="1.51381">
        <ele>206.3384552002</ele>
        <time>2021-03-15T17:40:17.721Z</time>
      </trkpt>
      <trkpt lat="44.42801" lon="1.514">
        <ele>208.26792907715</ele>
        <time>2021-03-15T17:40:22.028Z</time>
      </trkpt>
      <trkpt lat="44.42832" lon="1.51456">
        <ele>215.15701293945</ele>
        <time>2021-03-15T17:40:26.351Z</time>
      </trkpt>
      <trkpt lat="44.42854" lon="1.51502">
        <ele>218.05699157715</ele>
        <time>2021-03-15T17:40:30.686Z</time>
      </trkpt>
      <trkpt lat="44.42866" lon="1.51515">
        <ele>218.77217102051</ele>
        <time>2021-03-15T17:40:35.026Z</time>
      </trkpt>
      <trkpt lat="44.42899" lon="1.51538">
        <ele>220.70524597168</ele>
        <time>2021-03-15T17:40:39.377Z</time>
      </trkpt>
      <trkpt lat="44.42929" lon="1.51565">
        <ele>222.9730682373</ele>
        <time>2021-03-15T17:40:43.739Z</time>
      </trkpt>
      <trkpt lat="44.42948" lon="1.51576">
        <ele>224.55773925781</ele>
        <time>2021-03-15T17:40:48.107Z</time>
      </trkpt>
      <trkpt lat="44.42962" lon="1.51574">
        <ele>225.45770263672</ele>
        <time>2021-03-15T17:40:52.480Z</time>
      </trkpt>
      <trkpt lat="44.42978" lon="1.51565">
        <ele>227.43714904785</ele>
        <time>2021-03-15T17:40:56.858Z</time>
      </trkpt>
      <trkpt lat="44.43001" lon="1.51535">
        <ele>228.80722045898</ele>
        <time>2021-03-15T17:41:01.246Z</time>
      </trkpt>
      <trkpt lat="44.4303" lon="1.51524">
        <ele>230.99844360352</ele>
        <time>2021-03-15T17:41:05.643Z</time>
      </trkpt>
      <trkpt lat="44.43035" lon="1.5156">
        <ele>233.28880310059</ele>
        <time>2021-03-15T17:41:10.048Z</time>
      </trkpt>
      <trkpt lat="44.4302" lon="1.51622">
        <ele>234.74513244629</ele>
        <time>2021-03-15T17:41:14.467Z</time>
      </trkpt>
      <trkpt lat="44.43008" lon="1.51698">
        <ele>238.82682800293</ele>
        <time>2021-03-15T17:41:18.904Z</time>
      </trkpt>
      <trkpt lat="44.42982" lon="1.51746">
        <ele>237.8443145752</ele>
        <time>2021-03-15T17:41:23.354Z</time>
      </trkpt>
      <trkpt lat="44.42974" lon="1.51753">
        <ele>237.26847839355</ele>
        <time>2021-03-15T17:41:27.807Z</time>
      </trkpt>
      <trkpt lat="44.42968" lon="1.51754">
        <ele>236.83659362793</ele>
        <time>2021-03-15T17:41:32.262Z</time>
      </trkpt>
      <trkpt lat="44.4292" lon="1.51741">
        <ele>234.31718444824</ele>
        <time>2021-03-15T17:41:36.732Z</time>
      </trkpt>
      <trkpt lat="44.42868" lon="1.51731">
        <ele>234.2986907959</ele>
        <time>2021-03-15T17:41:41.218Z</time>
      </trkpt>
      <trkpt lat="44.42816" lon="1.51721">
        <ele>231.93879699707</ele>
        <time>2021-03-15T17:41:45.720Z</time>
      </trkpt>
      <trkpt lat="44.42803" lon="1.5172">
        <ele>231.86430358887</ele>
        <time>2021-03-15T17:41:50.226Z</time>
      </trkpt>
      <trkpt lat="44.42796" lon="1.51719">
        <ele>231.59483337402</ele>
        <time>2021-03-15T17:41:54.734Z</time>
      </trkpt>
      <trkpt lat="44.42796" lon="1.51742">
        <ele>231.03343200684</ele>
        <time>2021-03-15T17:41:59.247Z</time>
      </trkpt>
      <trkpt lat="44.42778" lon="1.51777">
        <ele>231</ele>
        <time>2021-03-15T17:42:03.770Z</time>
      </trkpt>
      <trkpt lat="44.42755" lon="1.518">
        <ele>230.21800231934</ele>
        <time>2021-03-15T17:42:08.301Z</time>
      </trkpt>
      <trkpt lat="44.42752" lon="1.51822">
        <ele>228.85243225098</ele>
        <time>2021-03-15T17:42:12.837Z</time>
      </trkpt>
      <trkpt lat="44.42755" lon="1.51843">
        <ele>227.01127624512</ele>
        <time>2021-03-15T17:42:17.378Z</time>
      </trkpt>
      <trkpt lat="44.4275" lon="1.51868">
        <ele>223.84124755859</ele>
        <time>2021-03-15T17:42:21.925Z</time>
      </trkpt>
      <trkpt lat="44.4275" lon="1.51868">
        <ele>223.84761047363</ele>
        <time>2021-03-15T17:42:26.472Z</time>
      </trkpt>
      <trkpt lat="44.4275" lon="1.51868">
        <ele>223.8533782959</ele>
        <time>2021-03-15T17:42:31.019Z</time>
      </trkpt>
      <trkpt lat="44.42726" lon="1.51882">
        <ele>221.33407592773</ele>
        <time>2021-03-15T17:42:35.574Z</time>
      </trkpt>
      <trkpt lat="44.42709" lon="1.51885">
        <ele>220.63537597656</ele>
        <time>2021-03-15T17:42:40.134Z</time>
      </trkpt>
      <trkpt lat="44.42685" lon="1.5192">
        <ele>214.12829589844</ele>
        <time>2021-03-15T17:42:44.705Z</time>
      </trkpt>
      <trkpt lat="44.42699" lon="1.51955">
        <ele>206.71380615234</ele>
        <time>2021-03-15T17:42:49.285Z</time>
      </trkpt>
      <trkpt lat="44.42695" lon="1.51971">
        <ele>202.53895568848</ele>
        <time>2021-03-15T17:42:53.868Z</time>
      </trkpt>
      <trkpt lat="44.42697" lon="1.51988">
        <ele>198.71124267578</ele>
        <time>2021-03-15T17:42:58.455Z</time>
      </trkpt>
      <trkpt lat="44.42702" lon="1.51999">
        <ele>196.33590698242</ele>
        <time>2021-03-15T17:43:03.045Z</time>
      </trkpt>
      <trkpt lat="44.4273" lon="1.52028">
        <ele>188.38055419922</ele>
        <time>2021-03-15T17:43:07.646Z</time>
      </trkpt>
      <trkpt lat="44.42727" lon="1.52044">
        <ele>187.0645904541</ele>
        <time>2021-03-15T17:43:12.250Z</time>
      </trkpt>
      <trkpt lat="44.42742" lon="1.52059">
        <ele>185.21543884277</ele>
        <time>2021-03-15T17:43:16.860Z</time>
      </trkpt>
      <trkpt lat="44.42774" lon="1.52061">
        <ele>183.1275177002</ele>
        <time>2021-03-15T17:43:21.480Z</time>
      </trkpt>
      <trkpt lat="44.42804" lon="1.5207">
        <ele>181.0013885498</ele>
        <time>2021-03-15T17:43:26.109Z</time>
      </trkpt>
      <trkpt lat="44.42832" lon="1.52106">
        <ele>179.22871398926</ele>
        <time>2021-03-15T17:43:30.750Z</time>
      </trkpt>
      <trkpt lat="44.42867" lon="1.52139">
        <ele>176.76884460449</ele>
        <time>2021-03-15T17:43:35.404Z</time>
      </trkpt>
      <trkpt lat="44.42885" lon="1.52165">
        <ele>172.39544677734</ele>
        <time>2021-03-15T17:43:40.066Z</time>
      </trkpt>
      <trkpt lat="44.42893" lon="1.52199">
        <ele>170.1420135498</ele>
        <time>2021-03-15T17:43:44.736Z</time>
      </trkpt>
      <trkpt lat="44.42886" lon="1.52209">
        <ele>170.0986328125</ele>
        <time>2021-03-15T17:43:49.409Z</time>
      </trkpt>
      <trkpt lat="44.42877" lon="1.52216">
        <ele>170.84909057617</ele>
        <time>2021-03-15T17:43:54.085Z</time>
      </trkpt>
      <trkpt lat="44.42866" lon="1.52238">
        <ele>170.70169067383</ele>
        <time>2021-03-15T17:43:58.767Z</time>
      </trkpt>
      <trkpt lat="44.42863" lon="1.52257">
        <ele>170.87692260742</ele>
        <time>2021-03-15T17:44:03.453Z</time>
      </trkpt>
      <trkpt lat="44.4288" lon="1.52246">
        <ele>170.91763305664</ele>
        <time>2021-03-15T17:44:08.145Z</time>
      </trkpt>
      <trkpt lat="44.42891" lon="1.52243">
        <ele>171.01971435547</ele>
        <time>2021-03-15T17:44:12.841Z</time>
      </trkpt>
      <trkpt lat="44.42902" lon="1.52248">
        <ele>171.99143981934</ele>
        <time>2021-03-15T17:44:17.540Z</time>
      </trkpt>
      <trkpt lat="44.42924" lon="1.52267">
        <ele>176.53601074219</ele>
        <time>2021-03-15T17:44:22.247Z</time>
      </trkpt>
      <trkpt lat="44.42936" lon="1.52274">
        <ele>178.04759216309</ele>
        <time>2021-03-15T17:44:26.958Z</time>
      </trkpt>
      <trkpt lat="44.4295" lon="1.52289">
        <ele>181.7784576416</ele>
        <time>2021-03-15T17:44:31.675Z</time>
      </trkpt>
      <trkpt lat="44.42932" lon="1.523">
        <ele>184.9073638916</ele>
        <time>2021-03-15T17:44:36.398Z</time>
      </trkpt>
      <trkpt lat="44.4292" lon="1.52312">
        <ele>186.63487243652</ele>
        <time>2021-03-15T17:44:41.125Z</time>
      </trkpt>
      <trkpt lat="44.42904" lon="1.52335">
        <ele>188.83627319336</ele>
        <time>2021-03-15T17:44:45.859Z</time>
      </trkpt>
      <trkpt lat="44.42884" lon="1.52379">
        <ele>191.74684143066</ele>
        <time>2021-03-15T17:44:50.605Z</time>
      </trkpt>
      <trkpt lat="44.42903" lon="1.52382">
        <ele>195.22854614258</ele>
        <time>2021-03-15T17:44:55.357Z</time>
      </trkpt>
      <trkpt lat="44.42922" lon="1.52388">
        <ele>198.0951385498</ele>
        <time>2021-03-15T17:45:00.115Z</time>
      </trkpt>
      <trkpt lat="44.42931" lon="1.52395">
        <ele>199.17483520508</ele>
        <time>2021-03-15T17:45:04.876Z</time>
      </trkpt>
      <trkpt lat="44.4294" lon="1.52405">
        <ele>200.57844543457</ele>
        <time>2021-03-15T17:45:09.640Z</time>
      </trkpt>
      <trkpt lat="44.42952" lon="1.52425">
        <ele>203.44548034668</ele>
        <time>2021-03-15T17:45:14.410Z</time>
      </trkpt>
      <trkpt lat="44.42965" lon="1.52453">
        <ele>207.37728881836</ele>
        <time>2021-03-15T17:45:19.187Z</time>
      </trkpt>
      <trkpt lat="44.42976" lon="1.52463">
        <ele>208.28675842285</ele>
        <time>2021-03-15T17:45:23.968Z</time>
      </trkpt>
      <trkpt lat="44.42985" lon="1.52478">
        <ele>209.18322753906</ele>
        <time>2021-03-15T17:45:28.754Z</time>
      </trkpt>
      <trkpt lat="44.42955" lon="1.52511">
        <ele>210.54957580566</ele>
        <time>2021-03-15T17:45:33.552Z</time>
      </trkpt>
      <trkpt lat="44.42923" lon="1.52555">
        <ele>213.65570068359</ele>
        <time>2021-03-15T17:45:38.363Z</time>
      </trkpt>
      <trkpt lat="44.42912" lon="1.52575">
        <ele>214.67425537109</ele>
        <time>2021-03-15T17:45:43.180Z</time>
      </trkpt>
      <trkpt lat="44.42881" lon="1.52653">
        <ele>217.69430541992</ele>
        <time>2021-03-15T17:45:48.017Z</time>
      </trkpt>
      <trkpt lat="44.42855" lon="1.52702">
        <ele>219.70286560059</ele>
        <time>2021-03-15T17:45:52.867Z</time>
      </trkpt>
      <trkpt lat="44.42844" lon="1.52734">
        <ele>219.45553588867</ele>
        <time>2021-03-15T17:45:57.725Z</time>
      </trkpt>
      <trkpt lat="44.42838" lon="1.52761">
        <ele>220.36839294434</ele>
        <time>2021-03-15T17:46:02.589Z</time>
      </trkpt>
      <trkpt lat="44.42822" lon="1.52801">
        <ele>220.13551330566</ele>
        <time>2021-03-15T17:46:07.463Z</time>
      </trkpt>
      <trkpt lat="44.42781" lon="1.52863">
        <ele>220.03938293457</ele>
        <time>2021-03-15T17:46:12.356Z</time>
      </trkpt>
      <trkpt lat="44.42757" lon="1.52917">
        <ele>222.33401489258</ele>
        <time>2021-03-15T17:46:17.263Z</time>
      </trkpt>
      <trkpt lat="44.42721" lon="1.52957">
        <ele>224.91369628906</ele>
        <time>2021-03-15T17:46:22.184Z</time>
      </trkpt>
      <trkpt lat="44.42697" lon="1.52995">
        <ele>224.04493713379</ele>
        <time>2021-03-15T17:46:27.116Z</time>
      </trkpt>
      <trkpt lat="44.42657" lon="1.53072">
        <ele>220.72540283203</ele>
        <time>2021-03-15T17:46:32.069Z</time>
      </trkpt>
      <trkpt lat="44.42635" lon="1.53102">
        <ele>220.7345123291</ele>
        <time>2021-03-15T17:46:37.032Z</time>
      </trkpt>
      <trkpt lat="44.4261" lon="1.53147">
        <ele>220.22665405273</ele>
        <time>2021-03-15T17:46:42.007Z</time>
      </trkpt>
      <trkpt lat="44.42575" lon="1.53228">
        <ele>223.17573547363</ele>
        <time>2021-03-15T17:46:47.003Z</time>
      </trkpt>
      <trkpt lat="44.4252" lon="1.53301">
        <ele>227.60600280762</ele>
        <time>2021-03-15T17:46:52.022Z</time>
      </trkpt>
      <trkpt lat="44.42508" lon="1.53309">
        <ele>228.09091186523</ele>
        <time>2021-03-15T17:46:57.045Z</time>
      </trkpt>
      <trkpt lat="44.42463" lon="1.53323">
        <ele>228.27104187012</ele>
        <time>2021-03-15T17:47:02.083Z</time>
      </trkpt>
      <trkpt lat="44.42448" lon="1.53332">
        <ele>229.59344482422</ele>
        <time>2021-03-15T17:47:07.126Z</time>
      </trkpt>
      <trkpt lat="44.42432" lon="1.53346">
        <ele>230.10041809082</ele>
        <time>2021-03-15T17:47:12.174Z</time>
      </trkpt>
      <trkpt lat="44.42411" lon="1.5337">
        <ele>231.44448852539</ele>
        <time>2021-03-15T17:47:17.231Z</time>
      </trkpt>
      <trkpt lat="44.42359" lon="1.53447">
        <ele>234.11585998535</ele>
        <time>2021-03-15T17:47:22.311Z</time>
      </trkpt>
      <trkpt lat="44.42351" lon="1.53463">
        <ele>234.11663818359</ele>
        <time>2021-03-15T17:47:27.395Z</time>
      </trkpt>
      <trkpt lat="44.42325" lon="1.53558">
        <ele>235.93608093262</ele>
        <time>2021-03-15T17:47:32.502Z</time>
      </trkpt>
      <trkpt lat="44.42313" lon="1.53585">
        <ele>236.68969726562</ele>
        <time>2021-03-15T17:47:37.616Z</time>
      </trkpt>
      <trkpt lat="44.42265" lon="1.53675">
        <ele>238.11531066895</ele>
        <time>2021-03-15T17:47:42.755Z</time>
      </trkpt>
      <trkpt lat="44.42217" lon="1.53765">
        <ele>242.5023651123</ele>
        <time>2021-03-15T17:47:47.918Z</time>
      </trkpt>
      <trkpt lat="44.42195" lon="1.53813">
        <ele>245</ele>
        <time>2021-03-15T17:47:53.094Z</time>
      </trkpt>
      <trkpt lat="44.42165" lon="1.53899">
        <ele>243.68669128418</ele>
        <time>2021-03-15T17:47:58.291Z</time>
      </trkpt>
      <trkpt lat="44.42159" lon="1.5393">
        <ele>244.84786987305</ele>
        <time>2021-03-15T17:48:03.495Z</time>
      </trkpt>
      <trkpt lat="44.42152" lon="1.5401">
        <ele>247.42082214355</ele>
        <time>2021-03-15T17:48:08.717Z</time>
      </trkpt>
      <trkpt lat="44.42138" lon="1.54089">
        <ele>248.19174194336</ele>
        <time>2021-03-15T17:48:13.957Z</time>
      </trkpt>
      <trkpt lat="44.42124" lon="1.54167">
        <ele>251.02615356445</ele>
        <time>2021-03-15T17:48:19.215Z</time>
      </trkpt>
      <trkpt lat="44.42118" lon="1.54185">
        <ele>251.8899230957</ele>
        <time>2021-03-15T17:48:24.477Z</time>
      </trkpt>
      <trkpt lat="44.42108" lon="1.54202">
        <ele>252.39378356934</ele>
        <time>2021-03-15T17:48:29.744Z</time>
      </trkpt>
      <trkpt lat="44.42096" lon="1.54217">
        <ele>252.60972595215</ele>
        <time>2021-03-15T17:48:35.016Z</time>
      </trkpt>
      <trkpt lat="44.42041" lon="1.54248">
        <ele>250.21215820312</ele>
        <time>2021-03-15T17:48:40.306Z</time>
      </trkpt>
      <trkpt lat="44.42001" lon="1.54264">
        <ele>251.2681427002</ele>
        <time>2021-03-15T17:48:45.609Z</time>
      </trkpt>
      <trkpt lat="44.41929" lon="1.54273">
        <ele>254</ele>
        <time>2021-03-15T17:48:50.934Z</time>
      </trkpt>
      <trkpt lat="44.41878" lon="1.54286">
        <ele>255.56396484375</ele>
        <time>2021-03-15T17:48:56.275Z</time>
      </trkpt>
      <trkpt lat="44.41826" lon="1.54298">
        <ele>254.81771850586</ele>
        <time>2021-03-15T17:49:01.632Z</time>
      </trkpt>
      <trkpt lat="44.41832" lon="1.54305">
        <ele>255.03366088867</ele>
        <time>2021-03-15T17:49:06.992Z</time>
      </trkpt>
      <trkpt lat="44.41848" lon="1.5433">
        <ele>255.60949707031</ele>
        <time>2021-03-15T17:49:12.359Z</time>
      </trkpt>
      <trkpt lat="44.41886" lon="1.54408">
        <ele>257.62106323242</ele>
        <time>2021-03-15T17:49:17.747Z</time>
      </trkpt>
      <trkpt lat="44.41895" lon="1.54423">
        <ele>258</ele>
        <time>2021-03-15T17:49:23.139Z</time>
      </trkpt>
      <trkpt lat="44.41895" lon="1.54428">
        <ele>257.93728637695</ele>
        <time>2021-03-15T17:49:28.532Z</time>
      </trkpt>
      <trkpt lat="44.41936" lon="1.54446">
        <ele>257.22338867188</ele>
        <time>2021-03-15T17:49:33.938Z</time>
      </trkpt>
      <trkpt lat="44.42017" lon="1.54449">
        <ele>259</ele>
        <time>2021-03-15T17:49:39.369Z</time>
      </trkpt>
      <trkpt lat="44.42049" lon="1.54444">
        <ele>259.8434753418</ele>
        <time>2021-03-15T17:49:44.810Z</time>
      </trkpt>
      <trkpt lat="44.42124" lon="1.54415">
        <ele>260</ele>
        <time>2021-03-15T17:49:50.275Z</time>
      </trkpt>
      <trkpt lat="44.4214" lon="1.54402">
        <ele>260</ele>
        <time>2021-03-15T17:49:55.746Z</time>
      </trkpt>
      <trkpt lat="44.42155" lon="1.54372">
        <ele>260.34829711914</ele>
        <time>2021-03-15T17:50:01.225Z</time>
      </trkpt>
      <trkpt lat="44.42168" lon="1.54351">
        <ele>259.5924987793</ele>
        <time>2021-03-15T17:50:06.710Z</time>
      </trkpt>
      <trkpt lat="44.42183" lon="1.54334">
        <ele>258.98068237305</ele>
        <time>2021-03-15T17:50:12.201Z</time>
      </trkpt>
      <trkpt lat="44.42204" lon="1.54317">
        <ele>259.05310058594</ele>
        <time>2021-03-15T17:50:17.700Z</time>
      </trkpt>
      <trkpt lat="44.42273" lon="1.54272">
        <ele>260</ele>
        <time>2021-03-15T17:50:23.222Z</time>
      </trkpt>
      <trkpt lat="44.42342" lon="1.54227">
        <ele>259</ele>
        <time>2021-03-15T17:50:28.767Z</time>
      </trkpt>
      <trkpt lat="44.42369" lon="1.54215">
        <ele>258.69787597656</ele>
        <time>2021-03-15T17:50:34.321Z</time>
      </trkpt>
      <trkpt lat="44.42402" lon="1.54193">
        <ele>257.3581237793</ele>
        <time>2021-03-15T17:50:39.886Z</time>
      </trkpt>
      <trkpt lat="44.42445" lon="1.54171">
        <ele>256</ele>
        <time>2021-03-15T17:50:45.465Z</time>
      </trkpt>
      <trkpt lat="44.42489" lon="1.54135">
        <ele>253.81866455078</ele>
        <time>2021-03-15T17:50:51.060Z</time>
      </trkpt>
      <trkpt lat="44.42553" lon="1.54072">
        <ele>253.98245239258</ele>
        <time>2021-03-15T17:50:56.679Z</time>
      </trkpt>
      <trkpt lat="44.42578" lon="1.54045">
        <ele>252.88220214844</ele>
        <time>2021-03-15T17:51:02.308Z</time>
      </trkpt>
      <trkpt lat="44.42624" lon="1.53986">
        <ele>251.99389648438</ele>
        <time>2021-03-15T17:51:07.956Z</time>
      </trkpt>
      <trkpt lat="44.4264" lon="1.53954">
        <ele>251.30447387695</ele>
        <time>2021-03-15T17:51:13.613Z</time>
      </trkpt>
      <trkpt lat="44.42666" lon="1.53891">
        <ele>250.08642578125</ele>
        <time>2021-03-15T17:51:19.286Z</time>
      </trkpt>
      <trkpt lat="44.42684" lon="1.53855">
        <ele>248.87719726562</ele>
        <time>2021-03-15T17:51:24.969Z</time>
      </trkpt>
      <trkpt lat="44.42701" lon="1.53831">
        <ele>249.06437683105</ele>
        <time>2021-03-15T17:51:30.659Z</time>
      </trkpt>
      <trkpt lat="44.42719" lon="1.53811">
        <ele>249.07148742676</ele>
        <time>2021-03-15T17:51:36.356Z</time>
      </trkpt>
      <trkpt lat="44.42728" lon="1.53805">
        <ele>249.22265625</ele>
        <time>2021-03-15T17:51:42.056Z</time>
      </trkpt>
      <trkpt lat="44.42733" lon="1.53795">
        <ele>249.04270935059</ele>
        <time>2021-03-15T17:51:47.759Z</time>
      </trkpt>
      <trkpt lat="44.42766" lon="1.53745">
        <ele>249.56512451172</ele>
        <time>2021-03-15T17:51:53.477Z</time>
      </trkpt>
      <trkpt lat="44.42791" lon="1.53727">
        <ele>248.86526489258</ele>
        <time>2021-03-15T17:51:59.203Z</time>
      </trkpt>
      <trkpt lat="44.42869" lon="1.53679">
        <ele>247.23748779297</ele>
        <time>2021-03-15T17:52:04.956Z</time>
      </trkpt>
      <trkpt lat="44.429" lon="1.53651">
        <ele>248.60049438477</ele>
        <time>2021-03-15T17:52:10.720Z</time>
      </trkpt>
      <trkpt lat="44.42977" lon="1.53628">
        <ele>245.08731079102</ele>
        <time>2021-03-15T17:52:16.508Z</time>
      </trkpt>
      <trkpt lat="44.43063" lon="1.5362">
        <ele>240.71618652344</ele>
        <time>2021-03-15T17:52:22.323Z</time>
      </trkpt>
      <trkpt lat="44.43107" lon="1.53587">
        <ele>240</ele>
        <time>2021-03-15T17:52:28.153Z</time>
      </trkpt>
      <trkpt lat="44.4315" lon="1.53553">
        <ele>241.3409576416</ele>
        <time>2021-03-15T17:52:33.998Z</time>
      </trkpt>
      <trkpt lat="44.4321" lon="1.5349">
        <ele>243.25576782227</ele>
        <time>2021-03-15T17:52:39.867Z</time>
      </trkpt>
      <trkpt lat="44.43265" lon="1.5344">
        <ele>245.02027893066</ele>
        <time>2021-03-15T17:52:45.756Z</time>
      </trkpt>
      <trkpt lat="44.43285" lon="1.53413">
        <ele>245.99488830566</ele>
        <time>2021-03-15T17:52:51.653Z</time>
      </trkpt>
      <trkpt lat="44.43318" lon="1.53358">
        <ele>245.39883422852</ele>
        <time>2021-03-15T17:52:57.566Z</time>
      </trkpt>
      <trkpt lat="44.43378" lon="1.53319">
        <ele>248.45082092285</ele>
        <time>2021-03-15T17:53:03.499Z</time>
      </trkpt>
      <trkpt lat="44.43422" lon="1.53294">
        <ele>248</ele>
        <time>2021-03-15T17:53:09.447Z</time>
      </trkpt>
      <trkpt lat="44.43465" lon="1.53269">
        <ele>247.65132141113</ele>
        <time>2021-03-15T17:53:15.409Z</time>
      </trkpt>
      <trkpt lat="44.43528" lon="1.53251">
        <ele>247.07270812988</ele>
        <time>2021-03-15T17:53:21.391Z</time>
      </trkpt>
      <trkpt lat="44.43591" lon="1.53233">
        <ele>246.37129211426</ele>
        <time>2021-03-15T17:53:27.393Z</time>
      </trkpt>
      <trkpt lat="44.43628" lon="1.53225">
        <ele>246</ele>
        <time>2021-03-15T17:53:33.406Z</time>
      </trkpt>
      <trkpt lat="44.43683" lon="1.53199">
        <ele>245</ele>
        <time>2021-03-15T17:53:39.437Z</time>
      </trkpt>
      <trkpt lat="44.43741" lon="1.53161">
        <ele>244.76441955566</ele>
        <time>2021-03-15T17:53:45.488Z</time>
      </trkpt>
      <trkpt lat="44.43798" lon="1.53123">
        <ele>239.21354675293</ele>
        <time>2021-03-15T17:53:51.559Z</time>
      </trkpt>
      <trkpt lat="44.43832" lon="1.53104">
        <ele>238.71296691895</ele>
        <time>2021-03-15T17:53:57.641Z</time>
      </trkpt>
      <trkpt lat="44.43877" lon="1.5305">
        <ele>239.53901672363</ele>
        <time>2021-03-15T17:54:03.741Z</time>
      </trkpt>
      <trkpt lat="44.43876" lon="1.53034">
        <ele>239.19444274902</ele>
        <time>2021-03-15T17:54:09.845Z</time>
      </trkpt>
      <trkpt lat="44.43908" lon="1.52937">
        <ele>237.24670410156</ele>
        <time>2021-03-15T17:54:15.972Z</time>
      </trkpt>
      <trkpt lat="44.43901" lon="1.52903">
        <ele>235.96989440918</ele>
        <time>2021-03-15T17:54:22.107Z</time>
      </trkpt>
      <trkpt lat="44.4391" lon="1.5289">
        <ele>236.47375488281</ele>
        <time>2021-03-15T17:54:28.246Z</time>
      </trkpt>
      <trkpt lat="44.43916" lon="1.52859">
        <ele>236.93223571777</ele>
        <time>2021-03-15T17:54:34.392Z</time>
      </trkpt>
      <trkpt lat="44.43964" lon="1.52794">
        <ele>231.7917175293</ele>
        <time>2021-03-15T17:54:40.559Z</time>
      </trkpt>
      <trkpt lat="44.44009" lon="1.52714">
        <ele>224.55578613281</ele>
        <time>2021-03-15T17:54:46.748Z</time>
      </trkpt>
      <trkpt lat="44.44061" lon="1.52652">
        <ele>214.16860961914</ele>
        <time>2021-03-15T17:54:52.958Z</time>
      </trkpt>
      <trkpt lat="44.44113" lon="1.5259">
        <ele>207.81871032715</ele>
        <time>2021-03-15T17:54:59.189Z</time>
      </trkpt>
      <trkpt lat="44.44136" lon="1.52574">
        <ele>204.13612365723</ele>
        <time>2021-03-15T17:55:05.428Z</time>
      </trkpt>
      <trkpt lat="44.44137" lon="1.52556">
        <ele>203.95306396484</ele>
        <time>2021-03-15T17:55:11.671Z</time>
      </trkpt>
      <trkpt lat="44.44152" lon="1.52544">
        <ele>200.28675842285</ele>
        <time>2021-03-15T17:55:17.919Z</time>
      </trkpt>
      <trkpt lat="44.44174" lon="1.52566">
        <ele>193.3429107666</ele>
        <time>2021-03-15T17:55:24.176Z</time>
      </trkpt>
      <trkpt lat="44.44199" lon="1.5258">
        <ele>186.06298828125</ele>
        <time>2021-03-15T17:55:30.441Z</time>
      </trkpt>
      <trkpt lat="44.44209" lon="1.52608">
        <ele>181.38850402832</ele>
        <time>2021-03-15T17:55:36.713Z</time>
      </trkpt>
      <trkpt lat="44.44206" lon="1.52638">
        <ele>180.10430908203</ele>
        <time>2021-03-15T17:55:42.991Z</time>
      </trkpt>
      <trkpt lat="44.44234" lon="1.52622">
        <ele>176.97605895996</ele>
        <time>2021-03-15T17:55:49.279Z</time>
      </trkpt>
      <trkpt lat="44.44246" lon="1.5261">
        <ele>176.54418945312</ele>
        <time>2021-03-15T17:55:55.571Z</time>
      </trkpt>
      <trkpt lat="44.4427" lon="1.5261">
        <ele>170.8233795166</ele>
        <time>2021-03-15T17:56:01.871Z</time>
      </trkpt>
      <trkpt lat="44.44303" lon="1.5263">
        <ele>157.046875</ele>
        <time>2021-03-15T17:56:08.182Z</time>
      </trkpt>
      <trkpt lat="44.44317" lon="1.52662">
        <ele>151.6462097168</ele>
        <time>2021-03-15T17:56:14.501Z</time>
      </trkpt>
      <trkpt lat="44.44323" lon="1.52681">
        <ele>152.09808349609</ele>
        <time>2021-03-15T17:56:20.825Z</time>
      </trkpt>
      <trkpt lat="44.44345" lon="1.52677">
        <ele>151.85748291016</ele>
        <time>2021-03-15T17:56:27.155Z</time>
      </trkpt>
      <trkpt lat="44.44388" lon="1.52655">
        <ele>149.70858764648</ele>
        <time>2021-03-15T17:56:33.500Z</time>
      </trkpt>
      <trkpt lat="44.44408" lon="1.52635">
        <ele>148.74391174316</ele>
        <time>2021-03-15T17:56:39.852Z</time>
      </trkpt>
      <trkpt lat="44.44426" lon="1.52605">
        <ele>146.21655273438</ele>
        <time>2021-03-15T17:56:46.213Z</time>
      </trkpt>
      <trkpt lat="44.44435" lon="1.52595">
        <ele>144.92558288574</ele>
        <time>2021-03-15T17:56:52.577Z</time>
      </trkpt>
      <trkpt lat="44.44458" lon="1.52571">
        <ele>142.4172668457</ele>
        <time>2021-03-15T17:56:58.950Z</time>
      </trkpt>
      <trkpt lat="44.44504" lon="1.52528">
        <ele>133.98272705078</ele>
        <time>2021-03-15T17:57:05.340Z</time>
      </trkpt>
      <trkpt lat="44.44512" lon="1.52544">
        <ele>134.63026428223</ele>
        <time>2021-03-15T17:57:11.734Z</time>
      </trkpt>
      <trkpt lat="44.44516" lon="1.5257">
        <ele>136.35778808594</ele>
        <time>2021-03-15T17:57:18.134Z</time>
      </trkpt>
      <trkpt lat="44.44513" lon="1.52582">
        <ele>138.13618469238</ele>
        <time>2021-03-15T17:57:24.537Z</time>
      </trkpt>
      <trkpt lat="44.44517" lon="1.52603">
        <ele>140.0454864502</ele>
        <time>2021-03-15T17:57:30.945Z</time>
      </trkpt>
      <trkpt lat="44.44517" lon="1.52637">
        <ele>143.95529174805</ele>
        <time>2021-03-15T17:57:37.360Z</time>
      </trkpt>
      <trkpt lat="44.44526" lon="1.52684">
        <ele>149.81932067871</ele>
        <time>2021-03-15T17:57:43.786Z</time>
      </trkpt>
      <trkpt lat="44.44566" lon="1.52758">
        <ele>150.49031066895</ele>
        <time>2021-03-15T17:57:50.233Z</time>
      </trkpt>
      <trkpt lat="44.4458" lon="1.52795">
        <ele>153.63148498535</ele>
        <time>2021-03-15T17:57:56.689Z</time>
      </trkpt>
      <trkpt lat="44.44608" lon="1.52821">
        <ele>152.81578063965</ele>
        <time>2021-03-15T17:58:03.155Z</time>
      </trkpt>
      <trkpt lat="44.44634" lon="1.52862">
        <ele>153.4995880127</ele>
        <time>2021-03-15T17:58:09.633Z</time>
      </trkpt>
      <trkpt lat="44.44645" lon="1.52899">
        <ele>154.96734619141</ele>
        <time>2021-03-15T17:58:16.120Z</time>
      </trkpt>
      <trkpt lat="44.44648" lon="1.52921">
        <ele>154.9656829834</ele>
        <time>2021-03-15T17:58:22.612Z</time>
      </trkpt>
      <trkpt lat="44.44645" lon="1.52942">
        <ele>155.35879516602</ele>
        <time>2021-03-15T17:58:29.109Z</time>
      </trkpt>
      <trkpt lat="44.44635" lon="1.52962">
        <ele>156.91580200195</ele>
        <time>2021-03-15T17:58:35.611Z</time>
      </trkpt>
      <trkpt lat="44.4463" lon="1.52995">
        <ele>156.54151916504</ele>
        <time>2021-03-15T17:58:42.121Z</time>
      </trkpt>
      <trkpt lat="44.44615" lon="1.53046">
        <ele>158.01760864258</ele>
        <time>2021-03-15T17:58:48.643Z</time>
      </trkpt>
      <trkpt lat="44.44613" lon="1.53068">
        <ele>157.19050598145</ele>
        <time>2021-03-15T17:58:55.170Z</time>
      </trkpt>
      <trkpt lat="44.44606" lon="1.53109">
        <ele>155.38484191895</ele>
        <time>2021-03-15T17:59:01.706Z</time>
      </trkpt>
      <trkpt lat="44.446" lon="1.5313">
        <ele>153.87059020996</ele>
        <time>2021-03-15T17:59:08.247Z</time>
      </trkpt>
      <trkpt lat="44.44599" lon="1.53151">
        <ele>151.58406066895</ele>
        <time>2021-03-15T17:59:14.792Z</time>
      </trkpt>
      <trkpt lat="44.44593" lon="1.53182">
        <ele>148.49664306641</ele>
        <time>2021-03-15T17:59:21.345Z</time>
      </trkpt>
      <trkpt lat="44.44586" lon="1.53196">
        <ele>149.32456970215</ele>
        <time>2021-03-15T17:59:27.901Z</time>
      </trkpt>
      <trkpt lat="44.44573" lon="1.53235">
        <ele>146.09791564941</ele>
        <time>2021-03-15T17:59:34.467Z</time>
      </trkpt>
      <trkpt lat="44.44577" lon="1.53252">
        <ele>144.63981628418</ele>
        <time>2021-03-15T17:59:41.037Z</time>
      </trkpt>
      <trkpt lat="44.44597" lon="1.53251">
        <ele>141.82643127441</ele>
        <time>2021-03-15T17:59:47.613Z</time>
      </trkpt>
      <trkpt lat="44.44618" lon="1.53256">
        <ele>139.22477722168</ele>
        <time>2021-03-15T17:59:54.195Z</time>
      </trkpt>
      <trkpt lat="44.44634" lon="1.53271">
        <ele>138.50497436523</ele>
        <time>2021-03-15T18:00:00.783Z</time>
      </trkpt>
      <trkpt lat="44.4465" lon="1.5328">
        <ele>136.42071533203</ele>
        <time>2021-03-15T18:00:07.377Z</time>
      </trkpt>
      <trkpt lat="44.44727" lon="1.53269">
        <ele>128.02282714844</ele>
        <time>2021-03-15T18:00:13.995Z</time>
      </trkpt>
      <trkpt lat="44.44769" lon="1.5326">
        <ele>132.20889282227</ele>
        <time>2021-03-15T18:00:20.626Z</time>
      </trkpt>
      <trkpt lat="44.44783" lon="1.53259">
        <ele>133.48031616211</ele>
        <time>2021-03-15T18:00:27.261Z</time>
      </trkpt>
      <trkpt lat="44.44785" lon="1.53347">
        <ele>134.77069091797</ele>
        <time>2021-03-15T18:00:33.915Z</time>
      </trkpt>
      <trkpt lat="44.44786" lon="1.53436">
        <ele>135</ele>
        <time>2021-03-15T18:00:40.589Z</time>
      </trkpt>
      <trkpt lat="44.44788" lon="1.53524">
        <ele>134.9885559082</ele>
        <time>2021-03-15T18:00:47.282Z</time>
      </trkpt>
      <trkpt lat="44.44788" lon="1.53565">
        <ele>135.73968505859</ele>
        <time>2021-03-15T18:00:53.984Z</time>
      </trkpt>
      <trkpt lat="44.44786" lon="1.53602">
        <ele>137.24348449707</ele>
        <time>2021-03-15T18:01:00.695Z</time>
      </trkpt>
      <trkpt lat="44.44765" lon="1.53708">
        <ele>140.28422546387</ele>
        <time>2021-03-15T18:01:07.430Z</time>
      </trkpt>
      <trkpt lat="44.44743" lon="1.53813">
        <ele>144.96678161621</ele>
        <time>2021-03-15T18:01:14.189Z</time>
      </trkpt>
      <trkpt lat="44.44729" lon="1.53858">
        <ele>143.00888061523</ele>
        <time>2021-03-15T18:01:20.959Z</time>
      </trkpt>
      <trkpt lat="44.44695" lon="1.53941">
        <ele>141.87120056152</ele>
        <time>2021-03-15T18:01:27.750Z</time>
      </trkpt>
      <trkpt lat="44.44661" lon="1.54024">
        <ele>147.2306060791</ele>
        <time>2021-03-15T18:01:34.562Z</time>
      </trkpt>
      <trkpt lat="44.44638" lon="1.54061">
        <ele>144.75401306152</ele>
        <time>2021-03-15T18:01:41.385Z</time>
      </trkpt>
      <trkpt lat="44.4461" lon="1.54095">
        <ele>140.6764831543</ele>
        <time>2021-03-15T18:01:48.219Z</time>
      </trkpt>
      <trkpt lat="44.44609" lon="1.54096">
        <ele>140.58494567871</ele>
        <time>2021-03-15T18:01:55.053Z</time>
      </trkpt>
      <trkpt lat="44.44626" lon="1.54096">
        <ele>142.59449768066</ele>
        <time>2021-03-15T18:02:01.893Z</time>
      </trkpt>
      <trkpt lat="44.44638" lon="1.54091">
        <ele>143.29991149902</ele>
        <time>2021-03-15T18:02:08.737Z</time>
      </trkpt>
      <trkpt lat="44.4467" lon="1.54067">
        <ele>145.8911895752</ele>
        <time>2021-03-15T18:02:15.592Z</time>
      </trkpt>
      <trkpt lat="44.44719" lon="1.54024">
        <ele>141.59771728516</ele>
        <time>2021-03-15T18:02:22.465Z</time>
      </trkpt>
      <trkpt lat="44.44731" lon="1.54008">
        <ele>140.84982299805</ele>
        <time>2021-03-15T18:02:29.343Z</time>
      </trkpt>
      <trkpt lat="44.44752" lon="1.53971">
        <ele>140.62232971191</ele>
        <time>2021-03-15T18:02:36.231Z</time>
      </trkpt>
      <trkpt lat="44.4477" lon="1.53946">
        <ele>143.10569763184</ele>
        <time>2021-03-15T18:02:43.127Z</time>
      </trkpt>
      <trkpt lat="44.44775" lon="1.53936">
        <ele>144.15229797363</ele>
        <time>2021-03-15T18:02:50.026Z</time>
      </trkpt>
      <trkpt lat="44.44782" lon="1.53907">
        <ele>146.22499084473</ele>
        <time>2021-03-15T18:02:56.931Z</time>
      </trkpt>
      <trkpt lat="44.44779" lon="1.53894">
        <ele>145.57717895508</ele>
        <time>2021-03-15T18:03:03.839Z</time>
      </trkpt>
      <trkpt lat="44.4478" lon="1.53882">
        <ele>145.63848876953</ele>
        <time>2021-03-15T18:03:10.750Z</time>
      </trkpt>
      <trkpt lat="44.44804" lon="1.53827">
        <ele>146.18499755859</ele>
        <time>2021-03-15T18:03:17.675Z</time>
      </trkpt>
      <trkpt lat="44.44815" lon="1.53812">
        <ele>146.54084777832</ele>
        <time>2021-03-15T18:03:24.605Z</time>
      </trkpt>
      <trkpt lat="44.44817" lon="1.53798">
        <ele>145.69914245605</ele>
        <time>2021-03-15T18:03:31.538Z</time>
      </trkpt>
      <trkpt lat="44.44848" lon="1.53753">
        <ele>146.29997253418</ele>
        <time>2021-03-15T18:03:38.485Z</time>
      </trkpt>
      <trkpt lat="44.44858" lon="1.53746">
        <ele>146.51591491699</ele>
        <time>2021-03-15T18:03:45.435Z</time>
      </trkpt>
      <trkpt lat="44.44871" lon="1.53742">
        <ele>147.16372680664</ele>
        <time>2021-03-15T18:03:52.389Z</time>
      </trkpt>
      <trkpt lat="44.44882" lon="1.53743">
        <ele>148.12007141113</ele>
        <time>2021-03-15T18:03:59.347Z</time>
      </trkpt>
      <trkpt lat="44.44889" lon="1.5374">
        <ele>148.82299804688</ele>
        <time>2021-03-15T18:04:06.307Z</time>
      </trkpt>
      <trkpt lat="44.44903" lon="1.53742">
        <ele>150.91041564941</ele>
        <time>2021-03-15T18:04:13.271Z</time>
      </trkpt>
      <trkpt lat="44.44925" lon="1.5373">
        <ele>153.75367736816</ele>
        <time>2021-03-15T18:04:20.243Z</time>
      </trkpt>
      <trkpt lat="44.44949" lon="1.53721">
        <ele>157.8579864502</ele>
        <time>2021-03-15T18:04:27.222Z</time>
      </trkpt>
      <trkpt lat="44.44965" lon="1.53719">
        <ele>160.16134643555</ele>
        <time>2021-03-15T18:04:34.206Z</time>
      </trkpt>
      <trkpt lat="44.44975" lon="1.53722">
        <ele>161.94662475586</ele>
        <time>2021-03-15T18:04:41.193Z</time>
      </trkpt>
      <trkpt lat="44.44992" lon="1.53721">
        <ele>165.6535949707</ele>
        <time>2021-03-15T18:04:48.186Z</time>
      </trkpt>
      <trkpt lat="44.45025" lon="1.53728">
        <ele>169.67848205566</ele>
        <time>2021-03-15T18:04:55.189Z</time>
      </trkpt>
      <trkpt lat="44.45032" lon="1.53739">
        <ele>170.03837585449</ele>
        <time>2021-03-15T18:05:02.195Z</time>
      </trkpt>
      <trkpt lat="44.45044" lon="1.53745">
        <ele>171.11807250977</ele>
        <time>2021-03-15T18:05:09.205Z</time>
      </trkpt>
      <trkpt lat="44.45075" lon="1.53742">
        <ele>174.24771118164</ele>
        <time>2021-03-15T18:05:16.225Z</time>
      </trkpt>
      <trkpt lat="44.45082" lon="1.53746">
        <ele>175.00233459473</ele>
        <time>2021-03-15T18:05:23.247Z</time>
      </trkpt>
      <trkpt lat="44.45089" lon="1.53744">
        <ele>175.50619506836</ele>
        <time>2021-03-15T18:05:30.271Z</time>
      </trkpt>
      <trkpt lat="44.45094" lon="1.53735">
        <ele>175.86608886719</ele>
        <time>2021-03-15T18:05:37.298Z</time>
      </trkpt>
      <trkpt lat="44.45095" lon="1.53729">
        <ele>175.93807983398</ele>
        <time>2021-03-15T18:05:44.326Z</time>
      </trkpt>
      <trkpt lat="44.45114" lon="1.53736">
        <ele>177.30569458008</ele>
        <time>2021-03-15T18:05:51.360Z</time>
      </trkpt>
      <trkpt lat="44.45159" lon="1.53761">
        <ele>182.03399658203</ele>
        <time>2021-03-15T18:05:58.409Z</time>
      </trkpt>
      <trkpt lat="44.45175" lon="1.53751">
        <ele>184.09091186523</ele>
        <time>2021-03-15T18:06:05.463Z</time>
      </trkpt>
      <trkpt lat="44.45183" lon="1.53727">
        <ele>187.18360900879</ele>
        <time>2021-03-15T18:06:12.523Z</time>
      </trkpt>
      <trkpt lat="44.45173" lon="1.53709">
        <ele>186.47303771973</ele>
        <time>2021-03-15T18:06:19.588Z</time>
      </trkpt>
      <trkpt lat="44.45167" lon="1.53693">
        <ele>186.83821105957</ele>
        <time>2021-03-15T18:06:26.657Z</time>
      </trkpt>
      <trkpt lat="44.45199" lon="1.53688">
        <ele>196.55944824219</ele>
        <time>2021-03-15T18:06:33.736Z</time>
      </trkpt>
      <trkpt lat="44.45219" lon="1.53687">
        <ele>201.74201965332</ele>
        <time>2021-03-15T18:06:40.821Z</time>
      </trkpt>
      <trkpt lat="44.45236" lon="1.53693">
        <ele>204.61744689941</ele>
        <time>2021-03-15T18:06:47.912Z</time>
      </trkpt>
      <trkpt lat="44.45268" lon="1.53723">
        <ele>209.88558959961</ele>
        <time>2021-03-15T18:06:55.014Z</time>
      </trkpt>
      <trkpt lat="44.45285" lon="1.53744">
        <ele>212.6568145752</ele>
        <time>2021-03-15T18:07:02.123Z</time>
      </trkpt>
      <trkpt lat="44.45318" lon="1.53715">
        <ele>221.86026000977</ele>
        <time>2021-03-15T18:07:09.244Z</time>
      </trkpt>
      <trkpt lat="44.45316" lon="1.5371">
        <ele>221.96823120117</ele>
        <time>2021-03-15T18:07:16.367Z</time>
      </trkpt>
      <trkpt lat="44.45315" lon="1.53695">
        <ele>222.59815979004</ele>
        <time>2021-03-15T18:07:23.493Z</time>
      </trkpt>
      <trkpt lat="44.45304" lon="1.53681">
        <ele>222.4990234375</ele>
        <time>2021-03-15T18:07:30.624Z</time>
      </trkpt>
      <trkpt lat="44.45303" lon="1.53662">
        <ele>224.47869873047</ele>
        <time>2021-03-15T18:07:37.759Z</time>
      </trkpt>
      <trkpt lat="44.45296" lon="1.53651">
        <ele>224.91058349609</ele>
        <time>2021-03-15T18:07:44.897Z</time>
      </trkpt>
      <trkpt lat="44.45288" lon="1.53649">
        <ele>224.26275634766</ele>
        <time>2021-03-15T18:07:52.038Z</time>
      </trkpt>
      <trkpt lat="44.45286" lon="1.53635">
        <ele>225.73474121094</ele>
        <time>2021-03-15T18:07:59.182Z</time>
      </trkpt>
      <trkpt lat="44.45265" lon="1.53625">
        <ele>225.31962585449</ele>
        <time>2021-03-15T18:08:06.333Z</time>
      </trkpt>
      <trkpt lat="44.45259" lon="1.53616">
        <ele>226.18339538574</ele>
        <time>2021-03-15T18:08:13.486Z</time>
      </trkpt>
      <trkpt lat="44.4522" lon="1.53589">
        <ele>228.66209411621</ele>
        <time>2021-03-15T18:08:20.653Z</time>
      </trkpt>
      <trkpt lat="44.45214" lon="1.53581">
        <ele>229.47802734375</ele>
        <time>2021-03-15T18:08:27.822Z</time>
      </trkpt>
      <trkpt lat="44.45199" lon="1.5357">
        <ele>229.15412902832</ele>
        <time>2021-03-15T18:08:34.996Z</time>
      </trkpt>
      <trkpt lat="44.45174" lon="1.53517">
        <ele>233.56617736816</ele>
        <time>2021-03-15T18:08:42.184Z</time>
      </trkpt>
      <trkpt lat="44.45149" lon="1.53464">
        <ele>235.87936401367</ele>
        <time>2021-03-15T18:08:49.386Z</time>
      </trkpt>
      <trkpt lat="44.45136" lon="1.53429">
        <ele>235.79295349121</ele>
        <time>2021-03-15T18:08:56.597Z</time>
      </trkpt>
      <trkpt lat="44.45132" lon="1.5341">
        <ele>236.15284729004</ele>
        <time>2021-03-15T18:09:03.812Z</time>
      </trkpt>
      <trkpt lat="44.4513" lon="1.53375">
        <ele>237.63455200195</ele>
        <time>2021-03-15T18:09:11.035Z</time>
      </trkpt>
      <trkpt lat="44.45123" lon="1.53366">
        <ele>236.19494628906</ele>
        <time>2021-03-15T18:09:18.261Z</time>
      </trkpt>
      <trkpt lat="44.45107" lon="1.53335">
        <ele>233.27975463867</ele>
        <time>2021-03-15T18:09:25.496Z</time>
      </trkpt>
      <trkpt lat="44.45108" lon="1.5329">
        <ele>233.96545410156</ele>
        <time>2021-03-15T18:09:32.740Z</time>
      </trkpt>
      <trkpt lat="44.45098" lon="1.53271">
        <ele>230.48564147949</ele>
        <time>2021-03-15T18:09:39.990Z</time>
      </trkpt>
      <trkpt lat="44.4512" lon="1.53158">
        <ele>226.55079650879</ele>
        <time>2021-03-15T18:09:47.265Z</time>
      </trkpt>
      <trkpt lat="44.45123" lon="1.53124">
        <ele>225.20283508301</ele>
        <time>2021-03-15T18:09:54.548Z</time>
      </trkpt>
      <trkpt lat="44.45135" lon="1.53049">
        <ele>222.91885375977</ele>
        <time>2021-03-15T18:10:01.848Z</time>
      </trkpt>
      <trkpt lat="44.4515" lon="1.53031">
        <ele>223.51686096191</ele>
        <time>2021-03-15T18:10:09.154Z</time>
      </trkpt>
      <trkpt lat="44.45175" lon="1.53021">
        <ele>224.79983520508</ele>
        <time>2021-03-15T18:10:16.468Z</time>
      </trkpt>
      <trkpt lat="44.45184" lon="1.53006">
        <ele>224.04403686523</ele>
        <time>2021-03-15T18:10:23.786Z</time>
      </trkpt>
      <trkpt lat="44.45191" lon="1.52986">
        <ele>222.93229675293</ele>
        <time>2021-03-15T18:10:31.109Z</time>
      </trkpt>
      <trkpt lat="44.45207" lon="1.52978">
        <ele>221.85653686523</ele>
        <time>2021-03-15T18:10:38.437Z</time>
      </trkpt>
      <trkpt lat="44.45239" lon="1.52996">
        <ele>220.69731140137</ele>
        <time>2021-03-15T18:10:45.776Z</time>
      </trkpt>
      <trkpt lat="44.45259" lon="1.53003">
        <ele>218.376953125</ele>
        <time>2021-03-15T18:10:53.121Z</time>
      </trkpt>
      <trkpt lat="44.45238" lon="1.52911">
        <ele>212.0694732666</ele>
        <time>2021-03-15T18:11:00.488Z</time>
      </trkpt>
      <trkpt lat="44.45259" lon="1.52877">
        <ele>205.1441192627</ele>
        <time>2021-03-15T18:11:07.865Z</time>
      </trkpt>
      <trkpt lat="44.45278" lon="1.52859">
        <ele>199.41021728516</ele>
        <time>2021-03-15T18:11:15.249Z</time>
      </trkpt>
      <trkpt lat="44.45325" lon="1.52822">
        <ele>188.39389038086</ele>
        <time>2021-03-15T18:11:22.649Z</time>
      </trkpt>
      <trkpt lat="44.45368" lon="1.52808">
        <ele>180.59117126465</ele>
        <time>2021-03-15T18:11:30.063Z</time>
      </trkpt>
      <trkpt lat="44.45394" lon="1.52793">
        <ele>177.10014343262</ele>
        <time>2021-03-15T18:11:37.486Z</time>
      </trkpt>
      <trkpt lat="44.45399" lon="1.52772">
        <ele>174.29858398438</ele>
        <time>2021-03-15T18:11:44.913Z</time>
      </trkpt>
      <trkpt lat="44.45405" lon="1.52758">
        <ele>172.27752685547</ele>
        <time>2021-03-15T18:11:52.344Z</time>
      </trkpt>
      <trkpt lat="44.45432" lon="1.52721">
        <ele>166.73345947266</ele>
        <time>2021-03-15T18:11:59.787Z</time>
      </trkpt>
      <trkpt lat="44.45452" lon="1.52708">
        <ele>164.60438537598</ele>
        <time>2021-03-15T18:12:07.236Z</time>
      </trkpt>
      <trkpt lat="44.45469" lon="1.52702">
        <ele>162.87637329102</ele>
        <time>2021-03-15T18:12:14.691Z</time>
      </trkpt>
      <trkpt lat="44.45488" lon="1.52686">
        <ele>159.49897766113</ele>
        <time>2021-03-15T18:12:22.153Z</time>
      </trkpt>
      <trkpt lat="44.45522" lon="1.52667">
        <ele>152.75750732422</ele>
        <time>2021-03-15T18:12:29.626Z</time>
      </trkpt>
      <trkpt lat="44.45568" lon="1.5268">
        <ele>152.81283569336</ele>
        <time>2021-03-15T18:12:37.113Z</time>
      </trkpt>
      <trkpt lat="44.45588" lon="1.52651">
        <ele>149.65270996094</ele>
        <time>2021-03-15T18:12:44.609Z</time>
      </trkpt>
      <trkpt lat="44.45606" lon="1.52645">
        <ele>150.30052185059</ele>
        <time>2021-03-15T18:12:52.111Z</time>
      </trkpt>
      <trkpt lat="44.45641" lon="1.52642">
        <ele>154.80305480957</ele>
        <time>2021-03-15T18:12:59.624Z</time>
      </trkpt>
      <trkpt lat="44.45662" lon="1.52637">
        <ele>159.34657287598</ele>
        <time>2021-03-15T18:13:07.143Z</time>
      </trkpt>
      <trkpt lat="44.4569" lon="1.52636">
        <ele>162.77961730957</ele>
        <time>2021-03-15T18:13:14.671Z</time>
      </trkpt>
      <trkpt lat="44.45705" lon="1.52625">
        <ele>164.7950592041</ele>
        <time>2021-03-15T18:13:22.204Z</time>
      </trkpt>
      <trkpt lat="44.45715" lon="1.52625">
        <ele>165.56567382812</ele>
        <time>2021-03-15T18:13:29.740Z</time>
      </trkpt>
      <trkpt lat="44.45728" lon="1.52632">
        <ele>166.50141906738</ele>
        <time>2021-03-15T18:13:37.281Z</time>
      </trkpt>
      <trkpt lat="44.45741" lon="1.52626">
        <ele>167.22833251953</ele>
        <time>2021-03-15T18:13:44.826Z</time>
      </trkpt>
      <trkpt lat="44.45747" lon="1.5262">
        <ele>167.22833251953</ele>
        <time>2021-03-15T18:13:52.373Z</time>
      </trkpt>
      <trkpt lat="44.45753" lon="1.52634">
        <ele>167.94812011719</ele>
        <time>2021-03-15T18:13:59.924Z</time>
      </trkpt>
      <trkpt lat="44.45758" lon="1.52632">
        <ele>168.05609130859</ele>
        <time>2021-03-15T18:14:07.476Z</time>
      </trkpt>
      <trkpt lat="44.45776" lon="1.52645">
        <ele>169.17178344727</ele>
        <time>2021-03-15T18:14:15.034Z</time>
      </trkpt>
      <trkpt lat="44.45794" lon="1.52665">
        <ele>171.79150390625</ele>
        <time>2021-03-15T18:14:22.599Z</time>
      </trkpt>
      <trkpt lat="44.45834" lon="1.52743">
        <ele>181.04881286621</ele>
        <time>2021-03-15T18:14:30.186Z</time>
      </trkpt>
      <trkpt lat="44.45866" lon="1.52721">
        <ele>183.00372314453</ele>
        <time>2021-03-15T18:14:37.784Z</time>
      </trkpt>
      <trkpt lat="44.4587" lon="1.52736">
        <ele>185.12852478027</ele>
        <time>2021-03-15T18:14:45.385Z</time>
      </trkpt>
      <trkpt lat="44.4588" lon="1.52756">
        <ele>188.19616699219</ele>
        <time>2021-03-15T18:14:52.992Z</time>
      </trkpt>
      <trkpt lat="44.4591" lon="1.528">
        <ele>195.1169128418</ele>
        <time>2021-03-15T18:15:00.612Z</time>
      </trkpt>
      <trkpt lat="44.45934" lon="1.52847">
        <ele>199.12818908691</ele>
        <time>2021-03-15T18:15:08.245Z</time>
      </trkpt>
      <trkpt lat="44.45966" lon="1.52898">
        <ele>200.5173034668</ele>
        <time>2021-03-15T18:15:15.893Z</time>
      </trkpt>
      <trkpt lat="44.45989" lon="1.52923">
        <ele>201.28819274902</ele>
        <time>2021-03-15T18:15:23.550Z</time>
      </trkpt>
      <trkpt lat="44.46006" lon="1.52946">
        <ele>202.99716186523</ele>
        <time>2021-03-15T18:15:31.214Z</time>
      </trkpt>
      <trkpt lat="44.46022" lon="1.52978">
        <ele>203.98062133789</ele>
        <time>2021-03-15T18:15:38.886Z</time>
      </trkpt>
      <trkpt lat="44.46032" lon="1.53007">
        <ele>205.11975097656</ele>
        <time>2021-03-15T18:15:46.566Z</time>
      </trkpt>
      <trkpt lat="44.4604" lon="1.53046">
        <ele>205.73156738281</ele>
        <time>2021-03-15T18:15:54.254Z</time>
      </trkpt>
      <trkpt lat="44.46047" lon="1.53129">
        <ele>204.38911437988</ele>
        <time>2021-03-15T18:16:01.961Z</time>
      </trkpt>
      <trkpt lat="44.46047" lon="1.53163">
        <ele>203.38911437988</ele>
        <time>2021-03-15T18:16:09.675Z</time>
      </trkpt>
      <trkpt lat="44.46053" lon="1.53195">
        <ele>203.77789306641</ele>
        <time>2021-03-15T18:16:17.397Z</time>
      </trkpt>
      <trkpt lat="44.46058" lon="1.5324">
        <ele>204.25482177734</ele>
        <time>2021-03-15T18:16:25.129Z</time>
      </trkpt>
      <trkpt lat="44.46054" lon="1.53273">
        <ele>204.74562072754</ele>
        <time>2021-03-15T18:16:32.868Z</time>
      </trkpt>
      <trkpt lat="44.4604" lon="1.53331">
        <ele>206.68376159668</ele>
        <time>2021-03-15T18:16:40.621Z</time>
      </trkpt>
      <trkpt lat="44.46037" lon="1.53387">
        <ele>207.11485290527</ele>
        <time>2021-03-15T18:16:48.386Z</time>
      </trkpt>
      <trkpt lat="44.46039" lon="1.53414">
        <ele>207.31346130371</ele>
        <time>2021-03-15T18:16:56.157Z</time>
      </trkpt>
      <trkpt lat="44.46038" lon="1.53441">
        <ele>206.15840148926</ele>
        <time>2021-03-15T18:17:03.934Z</time>
      </trkpt>
      <trkpt lat="44.46032" lon="1.53468">
        <ele>205.61666870117</ele>
        <time>2021-03-15T18:17:11.717Z</time>
      </trkpt>
      <trkpt lat="44.46025" lon="1.53482">
        <ele>205.24510192871</ele>
        <time>2021-03-15T18:17:19.504Z</time>
      </trkpt>
      <trkpt lat="44.46016" lon="1.53509">
        <ele>204.38417053223</ele>
        <time>2021-03-15T18:17:27.297Z</time>
      </trkpt>
      <trkpt lat="44.46011" lon="1.53516">
        <ele>204.77406311035</ele>
        <time>2021-03-15T18:17:35.093Z</time>
      </trkpt>
      <trkpt lat="44.46003" lon="1.53523">
        <ele>206.14167785645</ele>
        <time>2021-03-15T18:17:42.892Z</time>
      </trkpt>
      <trkpt lat="44.45969" lon="1.53536">
        <ele>213.60604858398</ele>
        <time>2021-03-15T18:17:50.701Z</time>
      </trkpt>
      <trkpt lat="44.45966" lon="1.53544">
        <ele>215.4775390625</ele>
        <time>2021-03-15T18:17:58.512Z</time>
      </trkpt>
      <trkpt lat="44.45966" lon="1.53554">
        <ele>217.27703857422</ele>
        <time>2021-03-15T18:18:06.326Z</time>
      </trkpt>
      <trkpt lat="44.45981" lon="1.53624">
        <ele>223.28636169434</ele>
        <time>2021-03-15T18:18:14.156Z</time>
      </trkpt>
      <trkpt lat="44.46001" lon="1.53678">
        <ele>230.40028381348</ele>
        <time>2021-03-15T18:18:21.999Z</time>
      </trkpt>
      <trkpt lat="44.46012" lon="1.53718">
        <ele>234.412109375</ele>
        <time>2021-03-15T18:18:29.852Z</time>
      </trkpt>
      <trkpt lat="44.46018" lon="1.53752">
        <ele>237.32330322266</ele>
        <time>2021-03-15T18:18:37.712Z</time>
      </trkpt>
      <trkpt lat="44.46019" lon="1.53786">
        <ele>241.70785522461</ele>
        <time>2021-03-15T18:18:45.580Z</time>
      </trkpt>
      <trkpt lat="44.46016" lon="1.53813">
        <ele>244.7647857666</ele>
        <time>2021-03-15T18:18:53.454Z</time>
      </trkpt>
      <trkpt lat="44.46004" lon="1.53854">
        <ele>249.93934631348</ele>
        <time>2021-03-15T18:19:01.338Z</time>
      </trkpt>
      <trkpt lat="44.45985" lon="1.53906">
        <ele>257.57556152344</ele>
        <time>2021-03-15T18:19:09.234Z</time>
      </trkpt>
      <trkpt lat="44.45971" lon="1.53953">
        <ele>263.30197143555</ele>
        <time>2021-03-15T18:19:17.142Z</time>
      </trkpt>
      <trkpt lat="44.45969" lon="1.53991">
        <ele>267.22570800781</ele>
        <time>2021-03-15T18:19:25.058Z</time>
      </trkpt>
      <trkpt lat="44.45982" lon="1.54066">
        <ele>274.16488647461</ele>
        <time>2021-03-15T18:19:32.991Z</time>
      </trkpt>
      <trkpt lat="44.45978" lon="1.54089">
        <ele>277.48229980469</ele>
        <time>2021-03-15T18:19:40.929Z</time>
      </trkpt>
      <trkpt lat="44.45976" lon="1.54143">
        <ele>282.38940429688</ele>
        <time>2021-03-15T18:19:48.879Z</time>
      </trkpt>
      <trkpt lat="44.4599" lon="1.54178">
        <ele>285.09265136719</ele>
        <time>2021-03-15T18:19:56.838Z</time>
      </trkpt>
      <trkpt lat="44.46004" lon="1.54197">
        <ele>287.33407592773</ele>
        <time>2021-03-15T18:20:04.803Z</time>
      </trkpt>
      <trkpt lat="44.46025" lon="1.54217">
        <ele>290.24926757812</ele>
        <time>2021-03-15T18:20:12.776Z</time>
      </trkpt>
      <trkpt lat="44.4604" lon="1.54238">
        <ele>291.57168579102</ele>
        <time>2021-03-15T18:20:20.755Z</time>
      </trkpt>
      <trkpt lat="44.46049" lon="1.54258">
        <ele>292.44192504883</ele>
        <time>2021-03-15T18:20:28.740Z</time>
      </trkpt>
      <trkpt lat="44.46089" lon="1.54325">
        <ele>290.44338989258</ele>
        <time>2021-03-15T18:20:36.744Z</time>
      </trkpt>
      <trkpt lat="44.46122" lon="1.54298">
        <ele>290</ele>
        <time>2021-03-15T18:20:44.760Z</time>
      </trkpt>
      <trkpt lat="44.4613" lon="1.54292">
        <ele>289.74227905273</ele>
        <time>2021-03-15T18:20:52.778Z</time>
      </trkpt>
      <trkpt lat="44.46161" lon="1.54265">
        <ele>287.82333374023</ele>
        <time>2021-03-15T18:21:00.808Z</time>
      </trkpt>
      <trkpt lat="44.462" lon="1.54226">
        <ele>283.13705444336</ele>
        <time>2021-03-15T18:21:08.852Z</time>
      </trkpt>
      <trkpt lat="44.46239" lon="1.54187">
        <ele>275.81060791016</ele>
        <time>2021-03-15T18:21:16.911Z</time>
      </trkpt>
      <trkpt lat="44.46239" lon="1.54187">
        <ele>275.81002807617</ele>
        <time>2021-03-15T18:21:24.970Z</time>
      </trkpt>
      <trkpt lat="44.46239" lon="1.54187">
        <ele>275.80911254883</ele>
        <time>2021-03-15T18:21:33.029Z</time>
      </trkpt>
      <trkpt lat="44.46261" lon="1.5417">
        <ele>273.80154418945</ele>
        <time>2021-03-15T18:21:41.096Z</time>
      </trkpt>
      <trkpt lat="44.46277" lon="1.54143">
        <ele>270.2275390625</ele>
        <time>2021-03-15T18:21:49.171Z</time>
      </trkpt>
      <trkpt lat="44.46278" lon="1.54111">
        <ele>266.77395629883</ele>
        <time>2021-03-15T18:21:57.253Z</time>
      </trkpt>
      <trkpt lat="44.46276" lon="1.54091">
        <ele>266.91967773438</ele>
        <time>2021-03-15T18:22:05.339Z</time>
      </trkpt>
      <trkpt lat="44.46267" lon="1.54059">
        <ele>264.68069458008</ele>
        <time>2021-03-15T18:22:13.433Z</time>
      </trkpt>
      <trkpt lat="44.46251" lon="1.53976">
        <ele>258.46365356445</ele>
        <time>2021-03-15T18:22:21.546Z</time>
      </trkpt>
      <trkpt lat="44.46244" lon="1.53899">
        <ele>251.40089416504</ele>
        <time>2021-03-15T18:22:29.676Z</time>
      </trkpt>
      <trkpt lat="44.46242" lon="1.53846">
        <ele>244.41633605957</ele>
        <time>2021-03-15T18:22:37.817Z</time>
      </trkpt>
      <trkpt lat="44.46248" lon="1.53776">
        <ele>235.34985351562</ele>
        <time>2021-03-15T18:22:45.974Z</time>
      </trkpt>
      <trkpt lat="44.46263" lon="1.537">
        <ele>228.36328125</ele>
        <time>2021-03-15T18:22:54.148Z</time>
      </trkpt>
      <trkpt lat="44.4629" lon="1.53635">
        <ele>223.33358764648</ele>
        <time>2021-03-15T18:23:02.339Z</time>
      </trkpt>
      <trkpt lat="44.46317" lon="1.5357">
        <ele>217.14996337891</ele>
        <time>2021-03-15T18:23:10.546Z</time>
      </trkpt>
      <trkpt lat="44.46332" lon="1.53549">
        <ele>214.32580566406</ele>
        <time>2021-03-15T18:23:18.760Z</time>
      </trkpt>
      <trkpt lat="44.46355" lon="1.535">
        <ele>205.20439147949</ele>
        <time>2021-03-15T18:23:26.987Z</time>
      </trkpt>
      <trkpt lat="44.46398" lon="1.53428">
        <ele>192.23265075684</ele>
        <time>2021-03-15T18:23:35.235Z</time>
      </trkpt>
      <trkpt lat="44.46452" lon="1.53359">
        <ele>180.83715820312</ele>
        <time>2021-03-15T18:23:43.505Z</time>
      </trkpt>
      <trkpt lat="44.46473" lon="1.53307">
        <ele>172.84809875488</ele>
        <time>2021-03-15T18:23:51.788Z</time>
      </trkpt>
      <trkpt lat="44.46489" lon="1.53293">
        <ele>170.11285400391</ele>
        <time>2021-03-15T18:24:00.077Z</time>
      </trkpt>
      <trkpt lat="44.46508" lon="1.53305">
        <ele>168.60227966309</ele>
        <time>2021-03-15T18:24:08.372Z</time>
      </trkpt>
      <trkpt lat="44.46529" lon="1.53329">
        <ele>167.14923095703</ele>
        <time>2021-03-15T18:24:16.676Z</time>
      </trkpt>
      <trkpt lat="44.46573" lon="1.53399">
        <ele>161.68647766113</ele>
        <time>2021-03-15T18:24:25.000Z</time>
      </trkpt>
      <trkpt lat="44.46597" lon="1.5343">
        <ele>158.20927429199</ele>
        <time>2021-03-15T18:24:33.334Z</time>
      </trkpt>
      <trkpt lat="44.46648" lon="1.53511">
        <ele>151.91546630859</ele>
        <time>2021-03-15T18:24:41.692Z</time>
      </trkpt>
      <trkpt lat="44.4667" lon="1.5349">
        <ele>149.54013061523</ele>
        <time>2021-03-15T18:24:50.058Z</time>
      </trkpt>
      <trkpt lat="44.4669" lon="1.53459">
        <ele>147.25381469727</ele>
        <time>2021-03-15T18:24:58.434Z</time>
      </trkpt>
      <trkpt lat="44.46702" lon="1.53426">
        <ele>146.0883026123</ele>
        <time>2021-03-15T18:25:06.818Z</time>
      </trkpt>
      <trkpt lat="44.46705" lon="1.53409">
        <ele>145.86404418945</ele>
        <time>2021-03-15T18:25:15.206Z</time>
      </trkpt>
      <trkpt lat="44.46721" lon="1.5334">
        <ele>141.43565368652</ele>
        <time>2021-03-15T18:25:23.610Z</time>
      </trkpt>
      <trkpt lat="44.46721" lon="1.53323">
        <ele>140.23443603516</ele>
        <time>2021-03-15T18:25:32.017Z</time>
      </trkpt>
      <trkpt lat="44.46713" lon="1.53283">
        <ele>139.95001220703</ele>
        <time>2021-03-15T18:25:40.433Z</time>
      </trkpt>
      <trkpt lat="44.46713" lon="1.53274">
        <ele>140.13229370117</ele>
        <time>2021-03-15T18:25:48.851Z</time>
      </trkpt>
      <trkpt lat="44.46763" lon="1.53264">
        <ele>124.96956634521</ele>
        <time>2021-03-15T18:25:57.285Z</time>
      </trkpt>
      <trkpt lat="44.4677" lon="1.53294">
        <ele>125.28503417969</ele>
        <time>2021-03-15T18:26:05.726Z</time>
      </trkpt>
      <trkpt lat="44.46777" lon="1.53356">
        <ele>124.76556396484</ele>
        <time>2021-03-15T18:26:14.181Z</time>
      </trkpt>
      <trkpt lat="44.46778" lon="1.53417">
        <ele>125.81699371338</ele>
        <time>2021-03-15T18:26:22.649Z</time>
      </trkpt>
      <trkpt lat="44.46775" lon="1.53468">
        <ele>127.55867767334</ele>
        <time>2021-03-15T18:26:31.128Z</time>
      </trkpt>
      <trkpt lat="44.46761" lon="1.53534">
        <ele>128.24104309082</ele>
        <time>2021-03-15T18:26:39.623Z</time>
      </trkpt>
      <trkpt lat="44.46738" lon="1.53613">
        <ele>127.78176116943</ele>
        <time>2021-03-15T18:26:48.136Z</time>
      </trkpt>
      <trkpt lat="44.46715" lon="1.53691">
        <ele>129.33784484863</ele>
        <time>2021-03-15T18:26:56.668Z</time>
      </trkpt>
      <trkpt lat="44.46705" lon="1.53768">
        <ele>132.67320251465</ele>
        <time>2021-03-15T18:27:05.217Z</time>
      </trkpt>
      <trkpt lat="44.46701" lon="1.53878">
        <ele>133.04121398926</ele>
        <time>2021-03-15T18:27:13.791Z</time>
      </trkpt>
      <trkpt lat="44.46704" lon="1.5392">
        <ele>128.36500549316</ele>
        <time>2021-03-15T18:27:22.374Z</time>
      </trkpt>
      <trkpt lat="44.46671" lon="1.53977">
        <ele>139.94990539551</ele>
        <time>2021-03-15T18:27:30.973Z</time>
      </trkpt>
      <trkpt lat="44.46686" lon="1.53994">
        <ele>127.83959960938</ele>
        <time>2021-03-15T18:27:39.578Z</time>
      </trkpt>
      <trkpt lat="44.46697" lon="1.54044">
        <ele>119.62493896484</ele>
        <time>2021-03-15T18:27:48.194Z</time>
      </trkpt>
      <trkpt lat="44.46708" lon="1.54073">
        <ele>118.37089538574</ele>
        <time>2021-03-15T18:27:56.818Z</time>
      </trkpt>
      <trkpt lat="44.46724" lon="1.54131">
        <ele>119.34940338135</ele>
        <time>2021-03-15T18:28:05.455Z</time>
      </trkpt>
      <trkpt lat="44.46732" lon="1.54231">
        <ele>125.65837097168</ele>
        <time>2021-03-15T18:28:14.115Z</time>
      </trkpt>
      <trkpt lat="44.46737" lon="1.54247">
        <ele>126.12924194336</ele>
        <time>2021-03-15T18:28:22.778Z</time>
      </trkpt>
      <trkpt lat="44.46741" lon="1.54289">
        <ele>126.76461791992</ele>
        <time>2021-03-15T18:28:31.451Z</time>
      </trkpt>
      <trkpt lat="44.46755" lon="1.54353">
        <ele>126.54795837402</ele>
        <time>2021-03-15T18:28:40.138Z</time>
      </trkpt>
      <trkpt lat="44.46786" lon="1.54358">
        <ele>127.81182861328</ele>
        <time>2021-03-15T18:28:48.835Z</time>
      </trkpt>
      <trkpt lat="44.46795" lon="1.54467">
        <ele>127.30408477783</ele>
        <time>2021-03-15T18:28:57.556Z</time>
      </trkpt>
      <trkpt lat="44.46792" lon="1.54486">
        <ele>128.44160461426</ele>
        <time>2021-03-15T18:29:06.282Z</time>
      </trkpt>
      <trkpt lat="44.46798" lon="1.5449">
        <ele>129.30535888672</ele>
        <time>2021-03-15T18:29:15.010Z</time>
      </trkpt>
      <trkpt lat="44.46807" lon="1.54508">
        <ele>131.90547180176</ele>
        <time>2021-03-15T18:29:23.742Z</time>
      </trkpt>
      <trkpt lat="44.46808" lon="1.54572">
        <ele>135.2657623291</ele>
        <time>2021-03-15T18:29:32.489Z</time>
      </trkpt>
      <trkpt lat="44.46812" lon="1.54589">
        <ele>136.42510986328</ele>
        <time>2021-03-15T18:29:41.239Z</time>
      </trkpt>
      <trkpt lat="44.46815" lon="1.54593">
        <ele>136.92897033691</ele>
        <time>2021-03-15T18:29:49.991Z</time>
      </trkpt>
      <trkpt lat="44.46816" lon="1.54594">
        <ele>137.10891723633</ele>
        <time>2021-03-15T18:29:58.743Z</time>
      </trkpt>
      <trkpt lat="44.46869" lon="1.54612">
        <ele>148.56239318848</ele>
        <time>2021-03-15T18:30:07.512Z</time>
      </trkpt>
      <trkpt lat="44.46929" lon="1.54621">
        <ele>157.73390197754</ele>
        <time>2021-03-15T18:30:16.299Z</time>
      </trkpt>
      <trkpt lat="44.46973" lon="1.54633">
        <ele>162.5998840332</ele>
        <time>2021-03-15T18:30:25.100Z</time>
      </trkpt>
      <trkpt lat="44.46997" lon="1.54633">
        <ele>164.32740783691</ele>
        <time>2021-03-15T18:30:33.909Z</time>
      </trkpt>
      <trkpt lat="44.47057" lon="1.54615">
        <ele>169.35057067871</ele>
        <time>2021-03-15T18:30:42.737Z</time>
      </trkpt>
      <trkpt lat="44.47092" lon="1.54599">
        <ele>171.20016479492</ele>
        <time>2021-03-15T18:30:51.576Z</time>
      </trkpt>
      <trkpt lat="44.47104" lon="1.54596">
        <ele>171.95596313477</ele>
        <time>2021-03-15T18:31:00.419Z</time>
      </trkpt>
      <trkpt lat="44.47125" lon="1.54597">
        <ele>173.50352478027</ele>
        <time>2021-03-15T18:31:09.268Z</time>
      </trkpt>
      <trkpt lat="44.47142" lon="1.5459">
        <ele>174.47525024414</ele>
        <time>2021-03-15T18:31:18.123Z</time>
      </trkpt>
      <trkpt lat="44.47172" lon="1.54589">
        <ele>176.50270080566</ele>
        <time>2021-03-15T18:31:26.987Z</time>
      </trkpt>
      <trkpt lat="44.47196" lon="1.54585">
        <ele>179.15390014648</ele>
        <time>2021-03-15T18:31:35.858Z</time>
      </trkpt>
      <trkpt lat="44.47221" lon="1.54578">
        <ele>181.41065979004</ele>
        <time>2021-03-15T18:31:44.737Z</time>
      </trkpt>
      <trkpt lat="44.47212" lon="1.54515">
        <ele>182.29936218262</ele>
        <time>2021-03-15T18:31:53.630Z</time>
      </trkpt>
      <trkpt lat="44.47205" lon="1.54492">
        <ele>180.37390136719</ele>
        <time>2021-03-15T18:32:02.529Z</time>
      </trkpt>
      <trkpt lat="44.47192" lon="1.54472">
        <ele>176.81300354004</ele>
        <time>2021-03-15T18:32:11.434Z</time>
      </trkpt>
      <trkpt lat="44.4717" lon="1.54445">
        <ele>174.64204406738</ele>
        <time>2021-03-15T18:32:20.348Z</time>
      </trkpt>
      <trkpt lat="44.4714" lon="1.54427">
        <ele>171.35972595215</ele>
        <time>2021-03-15T18:32:29.272Z</time>
      </trkpt>
      <trkpt lat="44.47119" lon="1.54397">
        <ele>172.32379150391</ele>
        <time>2021-03-15T18:32:38.205Z</time>
      </trkpt>
      <trkpt lat="44.47102" lon="1.54362">
        <ele>171.94161987305</ele>
        <time>2021-03-15T18:32:47.147Z</time>
      </trkpt>
      <trkpt lat="44.4707" lon="1.5432">
        <ele>169.31602478027</ele>
        <time>2021-03-15T18:32:56.103Z</time>
      </trkpt>
      <trkpt lat="44.47076" lon="1.54244">
        <ele>174.87347412109</ele>
        <time>2021-03-15T18:33:05.076Z</time>
      </trkpt>
      <trkpt lat="44.47104" lon="1.54273">
        <ele>180.62538146973</ele>
        <time>2021-03-15T18:33:14.059Z</time>
      </trkpt>
      <trkpt lat="44.4713" lon="1.54295">
        <ele>184.65260314941</ele>
        <time>2021-03-15T18:33:23.052Z</time>
      </trkpt>
      <trkpt lat="44.47152" lon="1.54305">
        <ele>188.75546264648</ele>
        <time>2021-03-15T18:33:32.052Z</time>
      </trkpt>
      <trkpt lat="44.47168" lon="1.54308">
        <ele>192.12551879883</ele>
        <time>2021-03-15T18:33:41.057Z</time>
      </trkpt>
      <trkpt lat="44.47179" lon="1.54305">
        <ele>194.14096069336</ele>
        <time>2021-03-15T18:33:50.065Z</time>
      </trkpt>
      <trkpt lat="44.472" lon="1.54307">
        <ele>196.65715026855</ele>
        <time>2021-03-15T18:33:59.080Z</time>
      </trkpt>
      <trkpt lat="44.47235" lon="1.54297">
        <ele>202.7053527832</ele>
        <time>2021-03-15T18:34:08.106Z</time>
      </trkpt>
      <trkpt lat="44.47265" lon="1.54276">
        <ele>210.12901306152</ele>
        <time>2021-03-15T18:34:17.142Z</time>
      </trkpt>
      <trkpt lat="44.47289" lon="1.54279">
        <ele>211.42620849609</ele>
        <time>2021-03-15T18:34:26.185Z</time>
      </trkpt>
      <trkpt lat="44.47307" lon="1.54274">
        <ele>212.79383850098</ele>
        <time>2021-03-15T18:34:35.234Z</time>
      </trkpt>
      <trkpt lat="44.47318" lon="1.54275">
        <ele>213.0457611084</ele>
        <time>2021-03-15T18:34:44.287Z</time>
      </trkpt>
      <trkpt lat="44.47345" lon="1.54265">
        <ele>215.90364074707</ele>
        <time>2021-03-15T18:34:53.348Z</time>
      </trkpt>
      <trkpt lat="44.47359" lon="1.54249">
        <ele>220.13624572754</ele>
        <time>2021-03-15T18:35:02.415Z</time>
      </trkpt>
      <trkpt lat="44.47359" lon="1.54184">
        <ele>225.36822509766</ele>
        <time>2021-03-15T18:35:11.496Z</time>
      </trkpt>
      <trkpt lat="44.47362" lon="1.54166">
        <ele>226.11674499512</ele>
        <time>2021-03-15T18:35:20.581Z</time>
      </trkpt>
      <trkpt lat="44.47358" lon="1.54151">
        <ele>225.91441345215</ele>
        <time>2021-03-15T18:35:29.670Z</time>
      </trkpt>
      <trkpt lat="44.47365" lon="1.5413">
        <ele>226.33268737793</ele>
        <time>2021-03-15T18:35:38.764Z</time>
      </trkpt>
      <trkpt lat="44.47354" lon="1.54081">
        <ele>225.41610717773</ele>
        <time>2021-03-15T18:35:47.869Z</time>
      </trkpt>
      <trkpt lat="44.47347" lon="1.54064">
        <ele>224.30041503906</ele>
        <time>2021-03-15T18:35:56.978Z</time>
      </trkpt>
      <trkpt lat="44.4735" lon="1.54052">
        <ele>223.74745178223</ele>
        <time>2021-03-15T18:36:06.090Z</time>
      </trkpt>
      <trkpt lat="44.47359" lon="1.54047">
        <ele>224.154296875</ele>
        <time>2021-03-15T18:36:15.205Z</time>
      </trkpt>
      <trkpt lat="44.47433" lon="1.54031">
        <ele>225.15139770508</ele>
        <time>2021-03-15T18:36:24.343Z</time>
      </trkpt>
      <trkpt lat="44.47454" lon="1.54042">
        <ele>226.68208312988</ele>
        <time>2021-03-15T18:36:33.488Z</time>
      </trkpt>
      <trkpt lat="44.47463" lon="1.54055">
        <ele>228.26565551758</ele>
        <time>2021-03-15T18:36:42.637Z</time>
      </trkpt>
      <trkpt lat="44.47473" lon="1.54079">
        <ele>230.65969848633</ele>
        <time>2021-03-15T18:36:51.792Z</time>
      </trkpt>
      <trkpt lat="44.47476" lon="1.54118">
        <ele>232</ele>
        <time>2021-03-15T18:37:00.956Z</time>
      </trkpt>
      <trkpt lat="44.47486" lon="1.54171">
        <ele>231</ele>
        <time>2021-03-15T18:37:10.132Z</time>
      </trkpt>
      <trkpt lat="44.47494" lon="1.54198">
        <ele>231</ele>
        <time>2021-03-15T18:37:19.314Z</time>
      </trkpt>
      <trkpt lat="44.47506" lon="1.54212">
        <ele>231.2409362793</ele>
        <time>2021-03-15T18:37:28.501Z</time>
      </trkpt>
      <trkpt lat="44.47512" lon="1.54225">
        <ele>231.39910888672</ele>
        <time>2021-03-15T18:37:37.692Z</time>
      </trkpt>
      <trkpt lat="44.47553" lon="1.54189">
        <ele>234.03526306152</ele>
        <time>2021-03-15T18:37:46.897Z</time>
      </trkpt>
      <trkpt lat="44.47612" lon="1.54114">
        <ele>244.05587768555</ele>
        <time>2021-03-15T18:37:56.127Z</time>
      </trkpt>
      <trkpt lat="44.47654" lon="1.54077">
        <ele>246.2986907959</ele>
        <time>2021-03-15T18:38:05.372Z</time>
      </trkpt>
      <trkpt lat="44.47652" lon="1.54111">
        <ele>246.49546813965</ele>
        <time>2021-03-15T18:38:14.625Z</time>
      </trkpt>
      <trkpt lat="44.47656" lon="1.54144">
        <ele>244.857421875</ele>
        <time>2021-03-15T18:38:23.885Z</time>
      </trkpt>
      <trkpt lat="44.47659" lon="1.54158">
        <ele>244.35356140137</ele>
        <time>2021-03-15T18:38:33.148Z</time>
      </trkpt>
      <trkpt lat="44.47672" lon="1.5419">
        <ele>242.98661804199</ele>
        <time>2021-03-15T18:38:42.419Z</time>
      </trkpt>
      <trkpt lat="44.477" lon="1.54252">
        <ele>236.74253845215</ele>
        <time>2021-03-15T18:38:51.707Z</time>
      </trkpt>
      <trkpt lat="44.47728" lon="1.54313">
        <ele>231.53857421875</ele>
        <time>2021-03-15T18:39:01.011Z</time>
      </trkpt>
      <trkpt lat="44.47753" lon="1.54343">
        <ele>229.40631103516</ele>
        <time>2021-03-15T18:39:10.325Z</time>
      </trkpt>
      <trkpt lat="44.47749" lon="1.5435">
        <ele>230.4</ele>
      </trkpt>
    </trkseg>
  </trk>
</gpx>